[[{"header":{"parameterUnit":"m.s-1","parameterCategory":1,"la1":30.6,"la2":29.2853,"lo1":-89.7004,"lo2":-87.6739,"dy":0.0162,"dx":0.0183,"nx":112,"ny":82,"refTime":"2026-03-22T00:00:00:Z","depth":0,"parameterNumber":2,"parameterNumberName":"U-component_of_WINDS"},"data":[0.0,0.0,0.0,0.0,0.0,0.0,0.0,0.0,0.0,0.0,0.0,0.0,0.0,0.0,0.0,0.0,0.0,0.0,0.0,0.0,0.0,0.0,0.0,0.0,0.0,0.0,0.0,0.0,0.0,0.0,0.0,0.0,0.0,0.0,0.0,0.0,0.0,0.0,0.0,0.0,0.0,0.0,0.0,0.0,0.0,0.0,0.0,0.0,0.0,0.0,0.0,0.0,0.0,0.0,0.0,0.0,0.0,0.0,0.0,0.0,0.0,0.0,0.0,0.0,0.0,0.0,0.0,0.0,0.0,0.0,0.0,0.0,0.0,0.0,0.0,0.0,0.0,0.0,0.0,0.0,0.0,0.0,0.0,0.0,0.0,0.0,0.0,0.0,0.0,0.0,0.0,-1.9299,-2.0917,-2.1195,-1.9453,-1.8494,-1.7561,-1.6555,0.0,0.0,0.0,0.0,0.0,0.0,0.0,0.0,0.0,0.0,0.0,0.0,0.0,0.0,0.0,0.0,0.0,0.0,0.0,0.0,0.0,0.0,0.0,0.0,0.0,0.0,0.0,0.0,0.0,0.0,0.0,0.0,0.0,0.0,0.0,0.0,0.0,0.0,0.0,0.0,0.0,0.0,0.0,0.0,0.0,0.0,0.0,0.0,0.0,0.0,0.0,0.0,0.0,0.0,0.0,0.0,0.0,0.0,0.0,0.0,0.0,0.0,0.0,0.0,0.0,0.0,0.0,0.0,0.0,0.0,0.0,0.0,0.0,0.0,0.0,0.0,0.0,0.0,0.0,0.0,0.0,0.0,0.0,0.0,0.0,0.0,0.0,0.0,0.0,0.0,0.0,0.0,0.0,0.0,0.0,0.0,0.0,0.0,0.0,0.0,0.0,0.0,0.0,0.0,-1.8534,-2.0211,-2.1287,-2.1181,-1.9456,-1.8442,-1.7247,-1.5704,0.0,0.0,0.0,0.0,0.0,0.0,0.0,0.0,0.0,0.0,0.0,0.0,0.0,0.0,0.0,0.0,0.0,0.0,0.0,0.0,0.0,0.0,0.0,0.0,0.0,0.0,0.0,0.0,0.0,0.0,0.0,0.0,0.0,0.0,0.0,0.0,0.0,0.0,0.0,0.0,0.0,0.0,0.0,0.0,0.0,0.0,0.0,0.0,0.0,0.0,0.0,0.0,0.0,0.0,0.0,0.0,0.0,0.0,0.0,0.0,0.0,0.0,0.0,0.0,0.0,0.0,0.0,0.0,0.0,0.0,0.0,0.0,0.0,0.0,0.0,0.0,0.0,0.0,0.0,0.0,0.0,0.0,0.0,0.0,0.0,0.0,0.0,0.0,0.0,0.0,0.0,0.0,0.0,0.0,0.0,0.0,0.0,0.0,0.0,0.0,0.0,0.0,0.0,-1.6942,-1.8625,-2.041,-2.0954,-2.0868,-2.0017,-1.869,-1.7591,-1.6869,-1.4291,0.0,0.0,0.0,0.0,0.0,0.0,0.0,0.0,0.0,0.0,0.0,0.0,0.0,0.0,0.0,0.0,0.0,0.0,0.0,0.0,0.0,0.0,0.0,0.0,0.0,0.0,0.0,0.0,0.0,0.0,0.0,0.0,0.0,0.0,0.0,0.0,0.0,0.0,0.0,0.0,0.0,0.0,0.0,0.0,0.0,0.0,0.0,0.0,0.0,0.0,0.0,0.0,0.0,0.0,0.0,0.0,0.0,0.0,0.0,0.0,0.0,0.0,0.0,0.0,0.0,0.0,0.0,0.0,0.0,0.0,0.0,0.0,0.0,0.0,0.0,0.0,0.0,0.0,0.0,0.0,0.0,0.0,0.0,0.0,0.0,0.0,0.0,0.0,0.0,0.0,0.0,0.0,0.0,0.0,0.0,0.0,0.0,0.0,0.0,0.0,0.0,0.0,-1.8158,-1.8906,-2.0448,-2.0778,-2.081,-2.0521,-1.8903,-1.7922,-1.7998,-1.473,0.0,0.0,0.0,0.0,0.0,0.0,0.0,0.0,0.0,0.0,0.0,0.0,0.0,0.0,0.0,0.0,0.0,0.0,0.0,0.0,0.0,0.0,0.0,0.0,0.0,0.0,0.0,0.0,0.0,0.0,0.0,0.0,0.0,0.0,0.0,0.0,0.0,0.0,0.0,0.0,0.0,0.0,0.0,0.0,0.0,0.0,0.0,0.0,0.0,0.0,0.0,0.0,0.0,0.0,0.0,0.0,0.0,0.0,0.0,0.0,0.0,0.0,0.0,0.0,0.0,0.0,0.0,0.0,0.0,0.0,0.0,0.0,0.0,0.0,0.0,0.0,0.0,0.0,0.0,0.0,0.0,0.0,0.0,0.0,0.0,0.0,0.0,0.0,0.0,0.0,0.0,0.0,0.0,0.0,0.0,0.0,0.0,0.0,0.0,0.0,0.0,0.0,-1.8691,-1.957,-2.0507,-2.1323,-2.1454,-2.0566,-1.8906,-1.7922,-1.7998,-1.473,0.0,0.0,0.0,0.0,0.0,0.0,0.0,0.0,0.0,0.0,0.0,0.0,0.0,0.0,0.0,0.0,0.0,0.0,0.0,0.0,0.0,0.0,0.0,0.0,0.0,0.0,0.0,0.0,0.0,0.0,0.0,0.0,0.0,0.0,0.0,0.0,0.0,0.0,0.0,0.0,0.0,0.0,0.0,0.0,0.0,0.0,0.0,0.0,0.0,0.0,0.0,0.0,0.0,0.0,0.0,0.0,0.0,0.0,0.0,0.0,0.0,0.0,0.0,0.0,0.0,0.0,0.0,0.0,0.0,0.0,0.0,0.0,0.0,0.0,0.0,0.0,0.0,0.0,0.0,0.0,0.0,0.0,0.0,0.0,0.0,0.0,0.0,0.0,0.0,0.0,0.0,0.0,0.0,0.0,0.0,0.0,0.0,0.0,0.0,0.0,0.0,0.0,-1.8769,-1.9627,0.0,-2.0892,-2.0922,-2.0536,-1.8895,-1.7933,-1.7991,0.0,0.0,0.0,0.0,0.0,0.0,0.0,0.0,0.0,0.0,0.0,0.0,0.0,0.0,0.0,0.0,0.0,0.0,0.0,0.0,0.0,0.0,0.0,0.0,0.0,0.0,0.0,0.0,0.0,0.0,0.0,0.0,0.0,0.0,0.0,0.0,0.0,0.0,0.0,0.0,0.0,0.0,0.0,0.0,0.0,0.0,0.0,0.0,0.0,0.0,0.0,0.0,0.0,0.0,0.0,0.0,0.0,0.0,0.0,0.0,0.0,0.0,0.0,0.0,0.0,0.0,0.0,0.0,0.0,0.0,0.0,0.0,0.0,0.0,0.0,0.0,0.0,0.0,0.0,0.0,0.0,0.0,0.0,0.0,0.0,0.0,0.0,0.0,0.0,0.0,0.0,0.0,0.0,0.0,0.0,0.0,0.0,0.0,0.0,0.0,0.0,0.0,-1.763,-1.8769,-1.9627,0.0,-2.0596,-2.0468,-2.0116,-1.8497,-1.7519,-1.7579,0.0,0.0,0.0,0.0,0.0,0.0,0.0,0.0,0.0,0.0,0.0,0.0,0.0,0.0,0.0,0.0,0.0,0.0,0.0,0.0,0.0,0.0,0.0,0.0,0.0,0.0,0.0,0.0,0.0,0.0,0.0,0.0,0.0,0.0,0.0,0.0,0.0,0.0,0.0,0.0,0.0,0.0,0.0,0.0,0.0,0.0,0.0,0.0,0.0,0.0,0.0,0.0,0.0,0.0,0.0,0.0,0.0,0.0,0.0,0.0,0.0,0.0,0.0,0.0,0.0,0.0,0.0,0.0,0.0,0.0,0.0,0.0,0.0,0.0,0.0,0.0,0.0,0.0,0.0,0.0,0.0,0.0,0.0,0.0,0.0,0.0,0.0,0.0,0.0,0.0,0.0,0.0,0.0,0.0,0.0,0.0,0.0,0.0,0.0,0.0,0.0,0.0,-1.7534,-1.875,-1.9624,-2.0482,-2.0573,-2.0189,-1.9254,-1.7599,-1.6604,0.0,0.0,0.0,0.0,0.0,0.0,0.0,0.0,0.0,0.0,0.0,0.0,0.0,0.0,0.0,0.0,0.0,0.0,0.0,0.0,0.0,0.0,0.0,0.0,0.0,0.0,0.0,0.0,0.0,0.0,0.0,0.0,0.0,0.0,0.0,0.0,0.0,0.0,0.0,0.0,0.0,0.0,0.0,0.0,0.0,0.0,0.0,0.0,0.0,0.0,0.0,0.0,0.0,0.0,0.0,0.0,0.0,0.0,0.0,0.0,0.0,0.0,0.0,0.0,0.0,0.0,0.0,0.0,0.0,0.0,0.0,0.0,0.0,0.0,0.0,0.0,0.0,0.0,0.0,0.0,0.0,0.0,0.0,0.0,0.0,0.0,0.0,0.0,0.0,0.0,0.0,0.0,0.0,0.0,0.0,0.0,0.0,0.0,0.0,0.0,0.0,0.0,0.0,-1.6796,-1.7849,-1.8487,-1.8739,-1.8772,-1.8643,-1.831,-1.6696,-1.5718,-1.5773,0.0,0.0,0.0,0.0,0.0,0.0,0.0,0.0,0.0,0.0,0.0,0.0,0.0,0.0,0.0,0.0,0.0,0.0,0.0,0.0,0.0,0.0,0.0,0.0,0.0,0.0,0.0,0.0,0.0,0.0,0.0,0.0,0.0,0.0,0.0,0.0,0.0,0.0,0.0,0.0,0.0,0.0,0.0,0.0,0.0,0.0,0.0,0.0,0.0,0.0,0.0,0.0,0.0,0.0,0.0,0.0,0.0,0.0,0.0,0.0,0.0,0.0,0.0,0.0,0.0,0.0,0.0,0.0,0.0,0.0,0.0,0.0,0.0,0.0,0.0,0.0,0.0,0.0,0.0,0.0,0.0,0.0,0.0,0.0,0.0,0.0,0.0,0.0,0.0,0.0,0.0,0.0,0.0,0.0,0.0,0.0,0.0,0.0,0.0,0.0,0.0,0.0,-1.5917,-1.6945,-1.762,-1.795,-1.7693,-1.7314,-1.694,-1.5619,-1.468,-1.4381,0.0,0.0,0.0,0.0,0.0,0.0,0.0,0.0,0.0,0.0,0.0,0.0,0.0,0.0,0.0,0.0,0.0,0.0,0.0,0.0,0.0,0.0,0.0,0.0,0.0,0.0,0.0,0.0,0.0,0.0,0.0,0.0,0.0,0.0,0.0,0.0,0.0,0.0,0.0,0.0,0.0,0.0,0.0,0.0,0.0,0.0,0.0,0.0,0.0,0.0,0.0,0.0,0.0,0.0,0.0,0.0,0.0,0.0,0.0,0.0,0.0,0.0,0.0,0.0,0.0,0.0,0.0,0.0,0.0,0.0,0.0,0.0,0.0,0.0,0.0,0.0,0.0,0.0,0.0,0.0,0.0,0.0,0.0,0.0,0.0,0.0,0.0,0.0,0.0,0.0,0.0,0.0,0.0,0.0,0.0,0.0,0.0,0.0,0.0,0.0,0.0,0.0,-1.5072,-1.6074,-1.6862,-1.7663,-1.7042,-1.6255,-1.5452,-1.4524,-1.3646,-1.286,0.0,0.0,0.0,0.0,0.0,0.0,0.0,0.0,0.0,0.0,0.0,0.0,0.0,0.0,0.0,0.0,0.0,0.0,0.0,0.0,0.0,0.0,0.0,0.0,0.0,0.0,0.0,0.0,0.0,0.0,0.0,0.0,0.0,0.0,0.0,0.0,0.0,0.0,0.0,0.0,0.0,0.0,0.0,0.0,0.0,0.0,0.0,0.0,0.0,0.0,0.0,0.0,0.0,0.0,0.0,0.0,0.0,0.0,0.0,0.0,-1.403,0.0,0.0,0.0,0.0,0.0,0.0,0.0,0.0,0.0,0.0,0.0,0.0,0.0,0.0,0.0,0.0,0.0,0.0,0.0,0.0,0.0,0.0,0.0,0.0,0.0,0.0,0.0,0.0,0.0,0.0,0.0,0.0,0.0,0.0,0.0,0.0,0.0,0.0,0.0,0.0,0.0,-1.5157,-1.5524,-1.5679,-1.5851,-1.5766,-1.5588,-1.5347,-1.394,-1.3007,-1.2801,-1.1158,0.0,0.0,0.0,0.0,0.0,0.0,0.0,0.0,0.0,0.0,0.0,0.0,0.0,0.0,0.0,0.0,0.0,0.0,0.0,0.0,0.0,0.0,0.0,0.0,0.0,0.0,0.0,0.0,0.0,0.0,0.0,0.0,0.0,0.0,0.0,0.0,0.0,0.0,0.0,0.0,0.0,0.0,0.0,0.0,0.0,0.0,0.0,0.0,0.0,0.0,0.0,0.0,0.0,0.0,0.0,0.0,0.0,0.0,0.0,0.0,-1.4972,0.0,0.0,0.0,0.0,0.0,0.0,0.0,0.0,0.0,0.0,0.0,0.0,0.0,0.0,0.0,0.0,0.0,0.0,0.0,0.0,0.0,0.0,0.0,0.0,0.0,0.0,0.0,0.0,0.0,0.0,0.0,0.0,0.0,0.0,0.0,0.0,0.0,0.0,0.0,0.0,-1.4552,-1.5057,-1.5256,-1.5299,-1.5334,-1.5179,-1.471,-1.3871,-1.3038,-1.2232,-1.0923,0.0,0.0,0.0,0.0,0.0,0.0,0.0,0.0,0.0,0.0,0.0,0.0,0.0,0.0,0.0,0.0,0.0,0.0,0.0,0.0,0.0,0.0,0.0,0.0,0.0,0.0,0.0,0.0,0.0,0.0,0.0,0.0,0.0,0.0,0.0,0.0,0.0,0.0,0.0,0.0,0.0,0.0,0.0,0.0,0.0,0.0,0.0,0.0,0.0,0.0,0.0,0.0,0.0,-1.7809,-1.8668,-1.9643,-1.9645,-2.0134,-2.0876,-1.9421,-1.8264,-1.7311,-1.643,0.0,0.0,0.0,0.0,0.0,0.0,0.0,0.0,0.0,0.0,0.0,0.0,0.0,0.0,0.0,0.0,0.0,0.0,0.0,0.0,0.0,0.0,0.0,0.0,-1.6384,-1.5446,-1.3945,0.0,0.0,0.0,0.0,0.0,0.0,0.0,0.0,0.0,0.0,0.0,-1.4092,-1.4831,-1.5214,-1.5289,-1.5282,-1.4992,-1.4277,-1.4065,-1.3333,-1.1812,-1.0896,-0.9952,0.0,0.0,0.0,0.0,0.0,0.0,0.0,0.0,0.0,0.0,0.0,0.0,0.0,0.0,0.0,0.0,0.0,0.0,0.0,0.0,0.0,0.0,0.0,0.0,0.0,0.0,0.0,0.0,0.0,0.0,0.0,0.0,-0.831,-0.9996,0.0,0.0,0.0,0.0,0.0,0.0,0.0,0.0,0.0,0.0,0.0,0.0,0.0,-1.5006,-1.5228,-1.6833,-1.8085,-1.8945,-1.9062,-1.9941,-2.1464,-2.1464,-2.1933,-2.2734,-2.2519,0.0,-2.0019,-1.9141,0.0,0.0,0.0,0.0,0.0,0.0,0.0,0.0,0.0,0.0,0.0,0.0,0.0,0.0,0.0,0.0,0.0,0.0,0.0,0.0,0.0,0.0,-1.9491,-1.8146,-1.7735,-1.7598,0.0,-1.6105,-1.5037,-1.5038,-1.4961,0.0,0.0,0.0,0.0,0.0,0.0,0.0,-1.5002,-1.5173,-1.5201,-1.5204,-1.5204,-1.5168,-1.505,-1.4343,-1.3523,-1.2607,-1.1719,-1.0533,-0.8969,-0.8795,0.0,0.0,0.0,0.0,0.0,0.0,0.0,0.0,0.0,0.0,0.0,0.0,0.0,0.0,0.0,0.0,0.0,0.0,0.0,0.0,0.0,0.0,0.0,0.0,0.0,0.0,0.0,0.0,0.0,-0.8025,-0.9373,-1.0105,-1.0633,-1.0926,0.0,0.0,0.0,0.0,0.0,0.0,0.0,0.0,0.0,-1.4244,-1.5484,-1.6601,-1.7578,-1.8827,-2.0134,-2.1442,-2.1929,-2.2808,-2.3981,-2.3981,-2.4194,-2.4583,-2.5071,-2.4603,-2.3316,-2.1462,-1.998,-1.8764,0.0,0.0,0.0,0.0,-1.6223,-1.6335,-1.6694,-1.6813,-1.6813,-1.6813,0.0,0.0,0.0,0.0,0.0,0.0,0.0,0.0,0.0,0.0,-1.9643,-1.8901,-1.8725,-1.8724,-1.8738,-1.8486,-1.8121,0.0,-1.7173,-1.6412,-1.5144,0.0,0.0,0.0,0.0,0.0,-1.5072,-1.5137,-1.5091,-1.5146,-1.5146,-1.5133,-1.513,-1.4781,-1.4022,-1.2735,-1.2296,-1.1321,-0.9636,-0.9579,-0.8788,0.0,0.0,0.0,0.0,0.0,0.0,0.0,0.0,0.0,0.0,0.0,0.0,0.0,0.0,0.0,0.0,0.0,0.0,0.0,0.0,0.0,0.0,0.0,0.0,0.0,0.0,0.0,0.0,-0.9151,-1.0306,-1.0537,-1.1318,-1.1826,0.0,0.0,0.0,0.0,0.0,0.0,-1.3451,-1.4291,-1.5151,-1.6033,-1.6914,-1.8104,-1.9625,-2.0499,-2.1764,-2.3443,-2.4086,-2.4867,-2.5707,-2.5707,-2.5707,-2.5746,-2.6391,-2.643,-2.5864,-2.3683,-2.2186,-2.1152,-2.0228,-1.9364,-1.8681,-1.8834,-1.8938,-1.9041,-1.9473,-1.9648,-1.9668,-1.9902,-1.9665,-1.9302,-1.925,0.0,0.0,0.0,0.0,-2.0484,-2.0312,-2.044,-2.0544,-2.0329,-2.0271,-2.0268,-2.0277,-2.0891,-2.1097,0.0,-1.9034,-1.8214,-1.7098,0.0,0.0,0.0,0.0,-1.4369,-1.4993,-1.5026,-1.5106,-1.5358,-1.5392,-1.5406,-1.5417,-1.5416,-1.46,-1.2681,-1.2564,-1.1819,-1.0135,-1.0075,-0.9385,-0.7904,0.0,0.0,0.0,0.0,0.0,0.0,0.0,0.0,0.0,0.0,0.0,0.0,0.0,0.0,0.0,0.0,0.0,0.0,0.0,0.0,0.0,0.0,0.0,0.0,0.0,0.0,0.0,0.0,0.0,-1.1425,-1.2245,0.0,0.0,0.0,0.0,-1.2792,-1.3573,-1.4393,-1.5234,-1.6093,-1.6972,-1.7832,-1.871,-1.9606,-2.0539,-2.1394,-2.2681,-2.4339,-2.4378,-2.4867,-2.5707,-2.5707,-2.5707,-2.5707,-2.5746,-2.6215,-2.686,-2.5903,-2.4503,-2.2888,-2.2012,-2.1172,-2.0566,-2.1328,-2.1601,-2.1852,-2.349,-2.4076,-2.4213,-2.5036,-2.4199,-2.2848,-2.2838,-2.2283,0.0,0.0,-2.347,-2.3945,-2.3125,-2.353,-2.3929,-2.311,-2.2916,-2.2912,-2.2916,-2.3546,-2.3373,0.0,-2.0393,-1.9803,-1.8043,0.0,-1.6045,-1.5254,-1.5079,-1.5023,-1.5004,-1.4996,-1.5288,-1.6067,-1.6198,-1.6248,-1.6248,-1.6229,-1.5167,-1.2655,-1.2506,-1.1758,-1.0071,-1.0014,-0.9581,-0.8655,-0.8634,0.0,0.0,0.0,0.0,0.0,0.0,0.0,0.0,0.0,0.0,0.0,0.0,0.0,0.0,0.0,0.0,0.0,0.0,0.0,0.0,0.0,0.0,0.0,0.0,0.0,0.0,0.0,0.0,-1.1639,-1.2811,0.0,-1.3631,-1.3631,-1.3866,-1.4432,-1.5271,-1.5915,-1.6227,-1.7594,-1.8511,-1.8822,-1.9682,-2.0561,-2.1439,-2.1731,-2.3021,-2.5247,-2.5244,-2.5985,-2.7372,-2.7368,-2.7366,-2.7366,-2.7366,-2.7542,-2.7815,-2.7503,-2.6686,-2.5519,-2.4646,-2.3788,-2.3006,-2.2733,-2.2986,-2.3567,-2.4172,-2.4776,-2.5282,-2.56,-2.5663,-2.5605,-2.5602,-2.5754,-2.589,-2.5662,-2.543,-2.5037,-2.4169,-2.3321,-2.2786,-2.304,-2.2665,-2.2425,-2.2971,-2.3725,-2.4019,-2.3069,-2.2426,-2.1642,-2.0405,-1.8519,-1.6896,-1.5983,-1.5346,-1.4952,-1.4938,-1.5838,-1.6597,-1.688,-1.7885,-1.8122,-1.7041,-1.6937,-1.5649,-1.2632,-1.2395,-1.1623,-0.9944,-0.9875,-0.9457,-0.8593,-0.8581,-0.8263,0.0,0.0,0.0,0.0,0.0,0.0,0.0,0.0,0.0,0.0,0.0,0.0,0.0,0.0,0.0,0.0,0.0,0.0,0.0,0.0,0.0,0.0,0.0,0.0,0.0,0.0,-1.2762,-1.2489,-1.368,-1.4539,-1.4537,-1.4538,-1.4774,-1.5358,-1.6213,-1.6836,-1.7128,-1.8493,-1.9392,-1.9706,-2.0551,-2.1413,-2.2293,-2.2606,-2.3896,-2.6142,-2.6137,-2.6898,-2.8264,-2.8276,-2.8272,-2.8272,-2.827,-2.8424,-2.8697,-2.8697,-2.8543,-2.8137,-2.6708,-2.5794,-2.5168,-2.4291,-2.4523,-2.536,-2.5948,-2.6707,-2.7425,-2.7429,-2.7803,-2.8254,-2.8256,-2.861,-2.8923,-2.841,-2.7427,-2.6403,-2.5839,-2.4385,-2.3308,-2.4163,-2.3727,-2.3305,-2.4156,-2.4291,-2.4222,-2.4173,-2.3705,-2.3018,-2.2064,-1.976,-1.7721,-1.6787,-1.5655,-1.5107,-1.5631,-1.6626,-1.7586,-1.8419,-1.9507,-1.9495,-1.7847,-1.7675,-1.6139,-1.2551,-1.2275,-1.1501,-0.984,-0.9771,-0.948,-0.8877,-0.8872,-0.8736,-0.8424,0.0,0.0,0.0,0.0,0.0,0.0,0.0,0.0,0.0,0.0,0.0,0.0,0.0,0.0,0.0,0.0,0.0,0.0,0.0,0.0,0.0,0.0,0.0,-1.0488,-1.1794,-1.3154,-1.4007,-1.4891,-1.5438,-1.5448,-1.5436,-1.5438,-1.5448,-1.6226,-1.7083,-1.796,-1.8797,-1.9638,-2.0503,-2.1384,-2.2246,-2.3131,-2.3968,-2.5276,-2.6994,-2.7014,-2.7461,-2.8239,-2.8267,-2.8281,-2.8279,-2.8286,-2.8749,-2.9533,-2.9533,-3.0039,-3.055,-2.8056,-2.7073,-2.6976,-2.6077,-2.6273,-2.7251,-2.9011,-3.0141,-3.0819,-3.0851,-3.0833,-3.0786,-3.0747,-3.0728,-3.0689,-3.067,-2.9452,-2.8155,-2.8155,-2.6863,-2.578,-2.667,-2.6212,-2.5785,-2.6625,-2.5386,-2.4123,-2.4126,-2.4131,-2.3829,-2.2834,-2.0603,-1.8646,-1.7656,-1.6037,0.0,-1.7104,-1.7315,-1.8241,-2.0678,-2.0994,-2.0377,-1.8709,-1.8485,-1.6658,-1.2496,-1.2133,-1.1373,-0.9762,-0.9688,-0.9665,-0.9597,-0.9632,-0.9268,-0.8487,0.0,0.0,0.0,0.0,0.0,0.0,0.0,0.0,0.0,0.0,0.0,0.0,0.0,0.0,0.0,0.0,0.0,0.0,0.0,0.0,0.0,0.0,-1.2363,-1.2141,-1.3008,-1.3757,-1.401,-1.5355,-1.6272,-1.6269,-1.6272,-1.6272,-1.6269,-1.6486,-1.7013,-1.7886,-1.9288,-2.0472,-2.1342,-2.2226,-2.3069,-2.3895,-2.4138,-2.5122,-2.685,-2.75,-2.824,-2.9089,-2.9722,-3.0019,-3.0016,-2.9965,-3.0076,-3.0293,-3.0293,-3.0448,-3.0532,-2.9301,-2.8813,-2.8638,-2.7117,-2.6759,-2.7336,-2.967,-3.0618,-3.1001,-3.2211,-3.2597,-3.2463,-3.184,-3.1198,-3.0578,-2.9947,-2.8541,-2.7254,-2.7201,-2.5929,-2.5027,-2.6481,-2.5686,-2.4975,-2.6428,-2.5762,-2.4875,-2.4823,-2.4796,-2.4112,-2.211,-2.1173,-1.9988,-1.7814,-1.659,0.0,-1.7181,-1.8721,-2.0225,-2.1487,-2.3155,-2.3011,-2.0199,-1.9409,-1.7286,-1.3112,-1.2198,-1.111,-0.9554,-0.9521,-0.9552,-0.9538,-1.0109,-0.9723,0.0,0.0,0.0,0.0,0.0,0.0,0.0,0.0,0.0,0.0,0.0,0.0,0.0,0.0,0.0,0.0,0.0,0.0,0.0,0.0,0.0,0.0,-1.2751,-1.3425,-1.3762,-1.3915,-1.426,-1.4955,-1.5948,-1.6708,-1.7074,-1.6766,-1.6553,-1.6553,-1.6909,-1.7318,-1.782,-1.9798,-2.1136,-2.164,-2.2871,-2.3733,-2.4191,-2.4569,-2.5438,-2.6818,-2.7681,-2.8537,-2.9382,-3.0266,-3.0656,-3.0649,-3.0591,-3.0564,-3.0564,-3.0564,-3.0564,0.0,0.0,0.0,0.0,0.0,-2.817,-2.8771,-3.0628,-3.1487,-3.1913,-3.2896,-3.2944,-3.2542,-3.2038,-3.1033,-2.9974,-2.9482,-2.8128,-2.6886,-2.7209,-2.6313,-2.5744,-2.7431,-2.6765,-2.6025,-2.6991,-2.6105,-2.4992,-2.4567,-2.4397,0.0,-2.1546,-2.1252,-2.0687,-1.8794,-1.7487,-1.719,-1.8547,-1.9866,-2.1213,-2.2673,-2.4035,-2.3794,-2.1141,-1.9862,0.0,0.0,0.0,-1.097,-0.947,-0.9439,0.0,0.0,0.0,0.0,0.0,0.0,0.0,0.0,-1.0238,-1.0863,0.0,0.0,0.0,0.0,0.0,0.0,0.0,0.0,0.0,0.0,0.0,0.0,0.0,0.0,0.0,0.0,-1.3663,-1.4451,-1.5372,-1.4789,-1.484,-1.6325,-1.6574,-1.6979,-1.7849,-1.7153,-1.667,-1.6767,-1.7316,-1.7747,-1.794,0.0,0.0,0.0,0.0,-2.433,-2.4325,-2.5087,-2.5869,-2.6652,-2.7516,-2.8369,-2.9171,-3.0031,-3.0483,-3.0563,-3.0516,-3.0482,-3.0482,-3.0482,-3.0482,-3.0414,-2.9703,-2.9384,-2.931,-2.929,-2.979,-3.06,-3.158,0.0,0.0,-3.3219,-3.268,-3.1965,-3.1766,-3.0595,-2.9332,-2.9294,-2.8101,-2.7028,-2.7808,-2.7421,-2.7267,-2.8911,-2.8589,-2.7923,-2.8027,-2.6577,-2.4994,-2.4055,-2.3773,-2.3113,-2.1344,-2.1173,-2.0934,-1.9892,-1.8414,-1.8198,-2.04,-2.0681,-2.1557,-2.3818,0.0,0.0,-2.1624,-2.0063,-1.8392,-1.6496,-1.3527,-1.1211,-0.9828,-0.9762,-0.9762,-0.9762,-1.0471,-1.0863,-1.0959,-1.3123,-1.3863,-1.3225,-1.1898,-1.2551,0.0,0.0,0.0,0.0,0.0,0.0,0.0,0.0,0.0,0.0,0.0,0.0,0.0,0.0,0.0,-1.4568,-1.49,-1.5504,-1.707,-1.6563,-1.6137,-1.6464,-1.7061,-1.7812,-1.8682,-1.7985,-1.7751,-1.8456,-1.7424,-1.7334,-1.8705,-2.0527,-2.1837,-2.2557,-2.421,-2.5096,-2.51,-2.5254,-2.5446,-2.5685,0.0,0.0,-2.8198,-2.9062,-2.9818,-3.0449,-3.0417,-3.0419,-3.0419,-3.0419,-3.0419,-3.0411,-3.0313,-2.9875,-2.9291,-2.9307,-2.9443,-2.985,-3.1379,-3.2464,-3.3286,-3.395,-3.4037,-3.3619,-3.2206,-3.1051,0.0,-2.9414,-2.8517,-2.7797,-2.7956,-2.7877,-2.8002,-2.9042,-2.8575,-2.8087,-2.872,-2.7899,-2.6742,-2.579,-2.546,-2.4607,-2.2268,-2.1903,-2.1195,-1.9008,-1.836,-1.8692,-2.0328,-2.0949,-2.1916,-2.3666,-2.4382,-2.3811,-2.1456,-2.0332,-1.8735,-1.6393,-1.4385,-1.2905,-1.2026,-1.1975,-1.1988,-1.1988,-1.2185,-1.2551,-1.3102,-1.4211,-1.5219,-1.6115,-1.6499,-1.6493,0.0,0.0,0.0,0.0,0.0,0.0,0.0,0.0,0.0,0.0,0.0,-1.0966,-1.1385,0.0,-1.4273,-1.5115,-1.5587,-1.6294,-1.7574,-1.7029,-1.6814,-1.7641,-1.8107,-1.868,-1.9565,-1.8853,-1.8526,-1.8965,-1.8219,-1.8315,-1.9584,-2.1235,-2.2547,-2.3413,-2.4659,-2.5308,-2.5308,-2.5308,-2.5317,-2.5351,-2.6198,-2.6819,-2.7296,-2.8606,-2.9404,-2.9778,-3.0198,-3.0404,-3.0404,-3.0404,-3.0404,-3.041,-3.0433,-3.02,-2.9839,-2.9887,-3.0443,-3.1323,-3.216,-3.3015,-3.3812,-3.4212,-3.3757,-3.2891,-3.2006,-3.0856,-2.9857,-2.9857,-2.924,-2.8782,-2.9621,-2.9849,-3.0066,-3.0939,-3.0783,-3.0422,-3.0367,-2.9531,-2.8512,-2.7544,-2.6472,-2.5072,-2.2967,-2.2203,-2.1223,-1.9205,-1.8874,-1.9232,-2.0272,-2.0625,-2.1395,-2.2932,-2.3451,-2.3315,-2.2375,-2.1072,-1.8913,-1.5645,-1.5038,-1.4285,-1.3157,-1.3132,-1.3146,-1.3152,-1.3174,-1.3519,-1.415,-1.5295,-1.6353,-1.7345,-1.9111,-1.9433,0.0,0.0,0.0,0.0,0.0,0.0,0.0,0.0,-1.0221,-1.0404,-1.1648,-1.2752,-1.2925,-1.4181,-1.5316,-1.5645,-1.6156,-1.6888,-1.8023,-1.7343,-1.7359,-1.9031,-1.91,-1.9334,-2.0212,-1.9508,-1.9069,-1.9242,-1.9242,-1.9623,-2.0481,-2.212,-2.3374,-2.4072,-2.4889,-2.5308,-2.5308,-2.5308,-2.5308,-2.5308,-2.601,-2.6434,-2.6659,-2.8046,-2.8758,-2.8915,-2.9775,-3.0231,-3.0404,-3.0577,-3.0654,-3.0673,-3.0833,-3.0914,-3.0865,-3.0609,-3.157,-3.3004,-3.283,-3.3448,-3.4253,-3.3919,-3.2858,-3.17,-3.1516,-3.0632,-2.9825,-3.0549,-3.0351,-3.0249,-3.1595,-3.1948,-3.2127,-3.2835,-3.2997,-3.2793,-3.2007,-3.1164,-3.0221,-2.9058,-2.7404,-2.554,-2.3459,-2.2325,-2.1164,-1.9615,-1.9364,-1.9573,-2.0199,-2.0219,-2.0696,-2.2005,-2.2198,-2.2343,-2.2662,-2.1316,-1.8982,-1.555,-1.593,-1.5666,-1.428,-1.4286,-1.432,-1.4322,-1.4322,-1.4598,-1.5171,-1.6652,-1.7608,-1.8121,-2.0513,-2.1274,-1.1122,-0.9942,0.0,-0.876,-0.8163,-0.7802,0.0,0.0,-1.0334,-1.1117,-1.2034,-1.2946,-1.3708,-1.4591,-1.57,-1.7263,-1.6939,-1.7308,-1.96,-1.8555,-1.8187,-1.986,-1.9439,-1.9334,-2.0212,-1.9508,-1.9319,-2.01,-2.0154,-2.0504,-2.1331,-2.3009,-2.3995,-2.411,-2.4889,-2.5308,-2.5308,-2.5308,-2.5308,-2.5308,-2.5409,-2.5851,-2.6621,-2.6794,-2.7318,-2.8088,-2.8896,-2.9679,-3.0462,-3.1231,-3.1545,-3.1621,-3.2408,-3.2709,-3.2522,-3.1053,-3.1592,-3.2981,-3.2207,-3.3005,-3.4132,-3.2575,-3.1956,-3.1642,-3.0862,-3.0995,-3.1436,-3.1543,-3.2056,-3.2619,-3.2811,-3.2848,-3.2873,-3.2972,-3.3004,-3.2935,-3.2716,-3.2439,-3.173,-2.9998,-2.8726,-2.6888,-2.3663,-2.2316,-2.1157,-1.9544,-1.9206,-1.9381,-2.012,-2.0146,-2.0394,-2.1164,-2.1243,-2.0949,-2.0185,-1.9754,-1.8963,-1.7637,-1.7627,-1.7303,-1.6486,-1.6509,-1.6546,-1.6546,-1.6546,-1.6753,-1.7176,-1.8729,-1.9423,-1.9343,-2.0757,-2.1306,-1.1722,0.0,0.0,0.0,-1.0426,-1.06,-1.0967,-1.1714,-1.241,-1.2776,-1.3517,-1.4217,-1.4624,-1.5768,-1.6888,0.0,-1.7856,-1.8477,-1.9983,-1.9124,-1.8771,-1.9941,-1.9759,-1.9707,-2.0208,-1.9919,-2.0069,-2.0926,-2.0996,-2.1581,-2.2932,-2.3701,-2.4317,-2.4774,-2.5115,-2.5308,-2.5308,-2.5308,-2.5308,-2.5308,-2.5308,-2.55,-2.5865,-2.637,-2.7082,-2.7934,-2.8742,-2.9319,-2.9756,-3.1141,-3.1698,-3.1775,-3.2621,-3.2967,-3.2914,-3.226,-3.2775,-3.3691,-3.285,-3.303,-3.3518,-3.2798,-3.2207,-3.182,-3.1978,-3.2216,-3.2548,-3.3018,-3.3416,-3.3821,-3.4315,-3.4456,-3.4443,-3.4449,-3.4449,-3.4423,-3.4275,-3.3692,-3.2805,-3.1503,-2.958,-2.737,-2.4912,-2.295,-2.1295,-2.0117,-1.9451,-1.9177,-1.9407,-1.9417,-1.9648,-2.0289,-2.1111,-2.122,-2.0249,-2.0367,-1.9908,-1.8521,-1.8395,-1.8047,-1.736,-1.7387,-1.7409,-1.7409,-1.7343,-1.7517,-1.7914,-1.891,-1.9521,-1.9822,-2.1341,-2.1909,-1.2136,0.0,0.0,-1.1731,-1.2175,-1.2604,-1.2601,-1.3268,-1.3886,-1.3885,-1.4533,-1.5114,-1.5159,-1.6349,0.0,-1.7636,-1.8197,-1.8966,-2.0,-1.9335,-1.9039,-1.9844,-1.9898,-1.9934,-2.0078,-2.0364,-2.0704,-2.1116,-2.1814,-2.2663,-2.3687,-2.4182,-2.4697,-2.5288,-2.5308,-2.5308,-2.5308,-2.5308,-2.5308,-2.5308,-2.5308,-2.5308,-2.5327,-2.5942,-2.6717,-2.7582,-2.8415,-2.903,-2.9583,-3.1314,-3.2179,-3.2468,-3.3295,-3.3654,-3.3705,-3.3765,-3.387,-3.3887,-3.329,-3.3107,-3.3107,-3.3107,-3.2661,-3.2268,-3.288,-3.3194,-3.3454,-3.4039,-3.4366,-3.4699,-3.5346,-3.55,-3.55,-3.55,-3.55,-3.546,-3.5335,-3.4615,-3.3654,-3.2477,-3.0158,-2.7785,-2.5817,-2.3336,-2.1352,-2.047,-1.9567,-1.8975,-1.8904,-1.8843,-1.8983,-1.9399,-2.0714,-2.1156,-2.013,-2.0743,-2.0467,-1.8805,-1.8831,-1.8614,-1.7923,-1.815,-1.8202,-1.8012,-1.8067,-1.8095,-1.8084,-1.8881,-1.9539,-2.0099,-2.1439,-2.2156,0.0,0.0,-1.2566,-1.2552,-1.2588,-1.2601,-1.2609,-1.3262,-1.3879,-1.3822,-1.4498,-1.5108,-1.5101,-1.5843,-1.6682,-1.7482,-1.7627,-1.8206,-1.9772,-1.9206,-1.8903,-1.9707,-1.9807,-1.9801,0.0,-2.0747,-2.1048,-2.0308,-2.2583,-2.3687,-2.2874,-2.4385,-2.5269,-2.5308,-2.5308,-2.5308,-2.5308,-2.5308,-2.5308,-2.5308,-2.5308,-2.5308,-2.5308,-2.5327,-2.5827,-2.6697,-2.7563,-2.8852,-3.0481,-3.2179,-3.3353,-3.4205,-3.5077,-3.5423,-3.5437,-3.5496,-3.451,-3.3123,-3.3116,-3.3107,-3.3107,-3.3107,-3.3086,-3.3059,-3.3018,-3.3542,-3.4174,-3.4193,-3.4814,-3.5462,-3.5481,-3.55,-3.55,-3.55,-3.55,-3.5453,-3.5335,-3.5024,-3.4235,-3.2456,-3.0514,-2.8373,-2.5846,-2.3233,-2.1216,-2.0336,-1.9353,-1.877,-1.8887,-1.8725,-1.8584,-1.854,-1.969,-2.0031,-1.9027,-2.0148,-2.0197,-1.8532,-1.9081,-1.9147,-1.8407,-1.9128,-1.9243,-1.8581,-1.9085,-1.883,-1.78,-1.907,-1.9859,-2.0204,-2.0716,-2.1794,0.0,0.0,-1.3408,-1.3404,-1.3822,-1.4258,-1.4252,-1.4484,-1.4695,-1.4676,-1.4897,-1.5108,-1.5101,-1.5774,-1.6421,-1.6693,-1.7597,-1.8445,-1.8998,-1.9187,-1.9363,-1.9635,-1.9597,0.0,0.0,0.0,0.0,-2.171,-2.312,-2.407,-2.4304,-2.4894,-2.5231,-2.5231,-2.5287,-2.5302,-2.5302,-2.5298,-2.5308,-2.5308,-2.5307,-2.5585,-2.6098,-2.6102,-2.6576,-2.7464,-2.8885,-2.9806,-3.0516,-3.2768,-3.3876,-3.4223,-3.5081,-3.546,-3.5507,-3.5528,-3.4815,-3.3833,-3.3931,-3.3576,-3.3204,-3.377,-3.3926,-3.3996,-3.4556,-3.4879,-3.5052,-3.5064,-3.5269,-3.55,-3.55,-3.55,-3.55,-3.55,-3.55,-3.5446,-3.5258,-3.4972,-3.4204,-3.2393,-3.0423,-2.8433,-2.6399,-2.3452,-2.082,-1.9178,-1.8762,-1.8623,-1.8631,-1.8506,-1.8361,-1.8259,-1.9407,-2.0008,-1.9547,-2.0237,-2.0235,-1.9126,-1.9208,-1.9015,-1.8359,-1.9071,-1.9391,-1.9201,-1.917,-1.9111,-1.907,-1.9619,-2.0135,-2.0622,-2.1342,-2.2108,0.0,-1.4523,-1.4255,-1.4255,-1.4695,-1.5096,-1.5096,-1.4867,-1.4714,-1.5046,-1.4878,-1.476,-1.5056,-1.5501,-1.6029,-1.6574,-1.7492,-1.834,-1.8882,-1.9306,-1.9553,-1.9533,-1.9442,0.0,0.0,0.0,0.0,-2.1988,-2.3383,-2.4313,-2.4555,-2.4872,-2.5087,-2.5141,-2.5198,-2.5236,-2.5257,-2.5288,-2.5462,-2.5769,-2.5739,-2.6148,-2.6895,-2.6884,-2.7332,-2.8172,-2.9534,-3.0469,-3.1176,-3.3161,-3.419,-3.4549,-3.5146,-3.542,-3.5507,-3.5495,-3.4904,-3.4171,-3.4627,-3.4218,-3.3622,-3.4483,-3.4731,-3.4796,-3.5361,-3.5475,-3.542,-3.542,-3.542,-3.5439,-3.5424,-3.5424,-3.5417,-3.5403,-3.5383,-3.5339,-3.5132,-3.4851,-3.4091,-3.2278,-3.0335,-2.8427,-2.6669,-2.3479,-2.0563,-1.8857,-1.8481,-1.8378,-1.8368,-1.8266,-1.8245,-1.8367,-1.9319,-1.9848,-1.9668,-2.0181,-2.0037,-1.8999,-1.9341,-1.9309,-1.8643,-1.9556,-1.9994,-1.9778,-1.9716,-1.9734,-1.9874,-2.0133,-2.0598,-2.1277,-2.1731,-2.2341,-1.6078,-1.5716,-1.5096,-1.5096,-1.5096,-1.5096,-1.5039,-1.4351,-1.3975,-1.4807,-1.4329,-1.4025,0.0,0.0,-1.5422,-1.6979,-1.727,-1.7805,-1.9318,-1.9499,-1.9475,0.0,0.0,0.0,0.0,0.0,0.0,-2.1255,0.0,-2.4468,-2.3681,-2.4374,-2.485,-2.4987,-2.5068,-2.5132,-2.5187,-2.5259,-2.5726,-2.6596,-2.6516,-2.6908,-2.7669,-2.7693,-2.8077,-2.8771,-2.9628,-3.0886,-3.2428,-3.3444,-3.4385,-3.5209,-3.527,-3.5372,-3.5493,-3.5493,-3.4839,-3.4098,-3.5128,-3.4898,-3.4307,-3.5128,-3.5388,-3.5372,-3.5372,-3.5323,-3.5274,-3.5274,-3.5274,-3.5285,-3.5285,-3.5269,-3.5261,-3.5201,-3.5185,-3.5115,-3.4917,-3.4674,-3.3944,-3.214,-3.0212,-2.8276,-2.6409,-2.3195,-2.0477,-1.9264,-1.8461,-1.8009,-1.8086,-1.8025,-1.8217,-1.8824,-1.9327,-1.9547,-1.9474,-1.9971,-1.9706,-1.8297,-1.9528,-1.9981,-1.9297,-2.058,-2.1002,-2.0355,-2.0687,-2.0647,-2.0191,-2.0555,-2.1164,-2.201,-2.1779,-2.246,-1.605,-1.5708,-1.5096,-1.5096,-1.5096,-1.4924,-1.4274,-1.3497,-1.2968,-1.32,-1.2591,-1.2465,0.0,0.0,0.0,-1.6062,-1.6746,0.0,-1.8428,-1.9026,0.0,0.0,0.0,-1.9577,-2.0223,-2.1256,0.0,0.0,-2.3925,-2.4618,-2.4357,-2.4591,-2.4757,-2.4853,-2.4955,-2.5069,-2.5124,-2.519,-2.565,-2.6513,-2.6407,-2.7102,-2.8515,-2.9011,-2.966,-3.0468,-3.1939,-3.2789,-3.3251,-3.4169,-3.4736,-3.5051,-3.513,-3.5219,-3.533,-3.5289,-3.5037,-3.4755,-3.4985,-3.4516,-3.3977,-3.4833,-3.5066,-3.5032,-3.5032,-3.5016,-3.5,-3.5,-3.5,-3.5,-3.5001,-3.4954,-3.4926,-3.4908,-3.486,-3.4793,-3.4624,-3.4423,-3.3769,-3.205,-2.9154,-2.6177,-2.3607,-2.1839,-2.0298,-1.8995,-1.8175,-1.7738,-1.7861,-1.7828,-1.8024,-1.8674,-1.9258,-1.9761,-2.0178,-2.0323,-2.0186,-1.9771,-2.0094,-2.0224,-2.003,-2.081,-2.1118,-2.0894,-2.0634,-2.0376,-2.0061,-2.0693,-2.0983,-2.1011,-2.2071,-2.282,-1.6526,-1.5938,-1.5065,-1.5065,-1.476,-1.4367,-1.3904,-1.2886,-1.2137,-1.2514,-1.1966,0.0,0.0,0.0,0.0,0.0,0.0,0.0,-1.7934,-1.8507,-1.8904,0.0,-1.9297,0.0,-1.9989,-2.1091,-2.201,0.0,-2.3742,-2.4469,-2.4462,-2.4488,-2.4537,-2.4653,-2.5118,-2.5404,-2.5545,-2.5584,-2.6034,-2.6899,-2.7174,-2.8131,-2.9687,-3.0065,-3.0838,-3.194,0.0,-3.3478,-3.3853,-3.439,-3.4703,-3.4832,-3.4898,-3.4999,-3.5113,-3.5044,-3.4945,-3.4812,-3.4752,-3.4362,-3.4023,-3.4671,-3.4851,-3.4803,-3.4803,-3.4803,-3.4803,-3.4803,-3.4803,-3.4812,-3.4811,-3.4771,-3.4701,-3.468,-3.4628,-3.4524,-3.436,-3.4201,-3.3481,-3.1335,-2.8318,-2.5458,-2.3383,-2.1663,-2.0257,-1.9357,-1.8274,-1.7582,-1.7669,-1.7646,-1.7983,-1.8988,-1.9366,-1.983,-2.0484,-2.0477,-2.0435,-2.0393,-2.0639,-2.0934,-2.1242,-2.1472,-2.1535,-2.142,-2.0686,-2.0152,-1.978,-2.0304,-2.0522,-2.0401,-2.16,-2.2361,-1.7149,-1.6196,-1.4944,-1.4835,-1.4243,-1.3645,-1.3491,-1.2259,-1.1335,-1.2118,0.0,0.0,-1.2268,0.0,-1.2603,-1.4279,0.0,-1.5141,-1.7454,-1.7968,-1.8353,-1.9058,-1.915,-1.9224,-1.9444,-2.078,-2.1726,-2.1941,-2.3346,-2.4229,-2.4275,-2.422,-2.4302,-2.4503,-2.525,-2.5775,-2.6079,-2.6098,-2.6578,-2.754,-2.8234,-2.9303,-3.0649,-3.0852,-3.1646,-3.2853,-3.3076,-3.3547,-3.4209,-3.4328,-3.4473,-3.4583,-3.4651,-3.4753,-3.486,-3.4802,-3.4691,-3.4591,-3.4495,-3.4351,-3.4257,-3.4537,-3.4632,-3.4632,-3.4632,-3.4632,-3.4632,-3.4632,-3.4632,-3.4641,-3.4626,-3.4591,-3.4506,-3.445,-3.4393,-3.4269,-3.4086,-3.388,-3.2952,-3.0303,-2.7741,-2.5593,-2.4348,-2.2052,-2.0262,-1.9937,-1.851,-1.7489,-1.7498,-1.7569,-1.8137,-1.9452,-1.9646,-1.9951,-2.0673,-2.078,-2.0801,-2.0801,-2.1365,-2.1971,-2.259,-2.234,-2.2054,-2.1755,-2.0762,-2.0003,-1.9475,-1.9725,-1.9918,-2.0069,-2.082,-2.1557,-1.7094,-1.603,-1.4685,-1.4015,-1.3733,-1.3274,-1.1954,-1.0909,0.0,0.0,0.0,-0.9714,-1.1242,-1.0868,0.0,-1.3346,0.0,0.0,0.0,0.0,-1.8151,0.0,0.0,0.0,0.0,0.0,0.0,0.0,0.0,-2.4209,-2.4218,-2.4201,-2.4311,-2.4564,-2.4733,-2.5196,-2.6005,-2.6023,-2.6778,-2.8307,-2.8392,-2.8923,-2.9851,-3.1134,-3.1812,-3.2072,-3.3398,0.0,-3.4209,-3.4281,-3.4404,-3.4528,-3.4594,-3.467,-3.4733,-3.4668,-3.4583,-3.4495,-3.4393,-3.4281,-3.4209,-3.4281,-3.4305,-3.4305,-3.4305,-3.4305,-3.4305,-3.4305,-3.4305,-3.4293,-3.4293,-3.4197,-3.4099,-3.4086,-3.3998,-3.3868,-3.3793,-3.3026,-3.1729,-2.963,-2.7741,-2.5913,-2.4098,-2.1863,-2.0176,-1.9796,-1.8456,-1.7489,-1.7498,-1.7988,-1.8654,-1.9502,-2.0144,-2.0761,-2.1446,-2.2057,-2.2388,-2.2309,-2.2867,-2.3224,-2.3237,-2.2871,-2.2299,-2.1488,-2.0914,-2.0191,-1.9339,-1.9559,-1.9684,-1.9801,-2.064,-2.1366,-1.641,-1.5607,-1.4662,-1.4275,-1.3527,-1.2684,-1.1944,0.0,0.0,0.0,0.0,-0.9665,-1.0483,0.0,0.0,0.0,0.0,0.0,0.0,0.0,0.0,0.0,0.0,0.0,0.0,0.0,0.0,0.0,0.0,-2.4161,-2.419,-2.4201,-2.446,-2.505,-2.4668,-2.5055,-2.6347,-2.6365,-2.7,-2.825,-2.863,-2.9233,-3.0049,-3.1244,-3.2001,-3.2442,-3.3665,0.0,-3.4209,-3.4233,-3.4281,-3.434,-3.4374,-3.442,-3.4446,-3.4409,-3.4363,-3.4328,-3.4269,-3.4221,-3.4123,-3.3678,-3.3518,-3.3518,-3.3518,-3.3209,-3.2851,-3.2851,-3.2827,-3.2785,-3.2785,-3.2705,-3.2586,-3.2586,-3.2449,-3.2274,-3.221,-3.1276,-3.0149,-2.9177,-2.7519,-2.5875,-2.4503,-2.2562,-2.0853,-1.986,-1.8734,-1.7884,-1.7536,-1.8419,-1.9349,-2.0078,-2.0486,-2.1301,-2.2778,-2.2877,-2.3175,-2.3902,-2.4061,-2.4213,-2.4424,-2.3647,-2.2733,-2.1681,-2.096,-1.9979,-1.8728,-1.8931,-1.8911,-1.8681,-1.9794,-2.068,-1.5741,-1.5217,-1.4608,-1.4437,-1.3275,-1.2145,-1.2037,-1.0896,0.0,0.0,0.0,0.0,0.0,0.0,0.0,0.0,0.0,0.0,0.0,0.0,0.0,0.0,0.0,0.0,0.0,0.0,0.0,0.0,0.0,0.0,-2.417,-2.4163,-2.4485,-2.5195,-2.4588,-2.5049,-2.6663,-2.6682,-2.7198,-2.822,-2.8868,-2.9488,-3.0134,-3.1177,-3.1996,-3.2655,-3.3697,0.0,-3.4161,-3.4161,-3.4161,-3.4161,-3.4161,-3.4161,-3.4161,-3.4161,-3.4161,-3.4123,-3.3956,-3.3901,-3.3759,-3.2871,-3.2711,-3.2822,-3.2643,-3.2077,-3.1513,-3.1489,-3.144,-3.1378,-3.1384,-3.1393,-3.1399,-3.1386,-3.1089,-3.0758,-3.0628,-2.9852,-2.9086,-2.8755,-2.7312,-2.5894,-2.5033,-2.3266,-2.1504,-2.012,-1.9107,-1.8257,-1.7586,-1.8601,-1.9714,-2.0602,-2.0834,-2.1713,-2.3603,-2.3355,-2.3653,-2.4942,-2.486,-2.4897,-2.5269,-2.4257,-2.3097,-2.1877,-2.1044,-1.9941,-1.8516,-1.8572,-1.8466,-1.8242,-1.9205,-2.0117,-1.5546,-1.5032,-1.4329,-1.3543,-1.2722,-1.1916,-1.1183,0.0,0.0,0.0,-0.9859,-0.9893,-0.9832,0.0,0.0,0.0,0.0,0.0,0.0,0.0,0.0,0.0,0.0,0.0,0.0,0.0,0.0,0.0,0.0,0.0,-2.4103,-2.4046,-2.4102,-2.4309,-2.4197,-2.4931,-2.6586,-2.6605,-2.7376,-2.8906,-2.898,-2.9053,-2.9193,-3.0711,-3.1495,-3.1703,-3.3257,0.0,0.0,-3.4023,-3.4023,-3.4023,-3.4023,-3.4023,-3.4023,-3.4023,-3.4023,-3.3913,-3.3179,-3.2921,-3.2761,-3.1832,-3.2072,-3.257,-3.1783,-3.1408,-3.1221,-3.1157,-3.1091,-3.1038,-3.0971,-3.1343,-3.1739,-3.1682,-3.1038,-3.0353,-3.0047,-2.9852,-2.9379,-2.822,-2.725,-2.632,-2.533,-2.3344,-2.1601,-2.0746,-1.9412,-1.8257,-1.7586,-1.8141,-1.9134,-2.0553,-2.1298,-2.2061,-2.2924,-2.344,-2.4033,-2.4786,-2.5093,-2.516,-2.4942,-2.4307,-2.3263,-2.1759,-2.128,-2.055,-1.9558,-1.9147,-1.9277,-1.9894,-1.9686,-2.0271,-1.412,-1.3925,-1.3527,-1.2746,-1.1942,-1.1287,-1.0964,0.0,0.0,-0.9795,-0.9825,-0.9834,-0.9805,-0.9499,0.0,0.0,0.0,0.0,0.0,0.0,0.0,0.0,0.0,0.0,0.0,0.0,0.0,0.0,0.0,0.0,-2.3795,-2.3896,-2.3955,-2.3966,-2.3896,-2.4585,-2.6104,-2.6122,-2.6916,-2.8451,-2.8451,-2.8451,-2.8505,-3.0219,-3.1043,-3.1232,-3.2885,0.0,0.0,-3.3766,-3.3766,-3.3766,-3.3766,-3.3766,-3.3766,-3.3766,-3.3766,-3.3638,-3.2831,-3.2557,-3.2324,-3.089,-3.0587,-3.0734,-3.0516,-3.0015,-2.9518,-2.9479,-2.9399,-2.9305,-2.9278,-2.9354,-2.944,-2.9428,-2.9051,-2.8659,-2.8493,-2.8207,-2.7826,-2.7267,-2.6792,-2.6184,-2.5346,-2.4065,-2.2739,-2.1547,-2.0472,-1.9383,-1.8186,-1.9049,-1.9797,-1.9848,-2.0633,-2.1978,-2.405,-2.3934,-2.4159,-2.5104,-2.5048,-2.4795,-2.4318,-2.3958,-2.3017,-2.144,-2.1493,-2.0839,-1.9464,-1.9403,-1.9476,-1.9688,-1.9758,-2.0331,-1.2873,-1.2992,-1.3024,-1.2255,-1.1475,-1.0875,0.0,0.0,-0.9714,-0.9769,-0.9768,-0.9772,-0.9776,-0.9739,-0.9769,0.0,0.0,0.0,0.0,0.0,0.0,0.0,0.0,0.0,0.0,0.0,0.0,0.0,0.0,0.0,-2.3416,-2.3591,-2.37,-2.3735,-2.3657,-2.4306,-2.572,-2.5737,-2.6503,-2.8034,-2.8034,-2.8034,-2.8101,-2.9597,-3.0481,-3.0872,-3.2289,0.0,0.0,-3.3444,-3.3444,-3.3444,-3.3444,-3.3444,-3.3444,-3.3444,-3.3313,-3.2986,-3.2183,-3.1747,-3.1334,-2.9822,-2.9197,-2.9046,-2.9152,-2.8721,-2.8183,-2.8169,-2.8077,-2.8021,-2.8205,-2.7994,-2.7766,-2.7964,-2.7742,-2.7417,-2.7293,-2.7005,-2.6741,-2.6607,-2.6418,-2.6129,-2.5578,-2.4846,-2.3818,-2.2344,-2.1468,-2.0447,-1.891,-1.955,-1.9976,-1.9526,-2.0199,-2.1738,-2.4378,-2.3928,-2.3976,-2.5154,-2.4815,-2.4333,-2.3837,-2.3551,-2.2766,-2.1405,-2.1528,-2.0945,-1.9661,-1.984,-1.9898,-1.9824,-2.0193,-2.0694,-1.2126,-1.2535,-1.3011,-1.2204,-1.1406,-1.0807,0.0,-1.0237,-0.9702,-0.9702,-0.9702,-0.9702,-0.9702,-0.9702,-0.9933,-1.0665,0.0,0.0,0.0,0.0,0.0,0.0,0.0,0.0,0.0,0.0,0.0,0.0,0.0,0.0,-2.302,-2.3126,-2.3324,-2.3588,-2.3463,-2.4117,-2.5591,-2.5591,-2.6388,-2.7911,-2.7911,-2.7911,-2.7929,-2.8884,-2.9754,-3.0555,0.0,0.0,0.0,-3.3101,-3.3101,-3.3101,-3.3101,-3.3101,-3.3101,-3.3101,-3.2595,-3.1801,-3.0991,-3.0236,-2.9467,-2.8523,-2.8073,-2.7901,-2.776,-2.7716,-2.7686,-2.7632,-2.7513,-2.7565,-2.8228,-2.785,-2.7471,-2.8131,-2.7685,-2.7021,-2.6775,-2.6708,-2.6624,-2.6365,-2.6295,-2.6294,-2.6187,-2.559,-2.4597,-2.3106,-2.22,-2.1167,-1.9674,-1.927,-1.9314,-1.984,-2.032,-2.1366,-2.3266,-2.3167,-2.3518,-2.4721,-2.4302,-2.3882,-2.3616,-2.3157,-2.2555,-2.1816,-2.1346,-2.0896,-2.0504,-2.0627,-2.0719,-2.0786,-2.1272,-2.1428,-1.1165,-1.1315,-1.1366,-1.0553,-1.0175,-0.997,-0.997,-0.983,-0.9702,-0.9702,-0.9702,-0.9694,-0.9638,-0.9635,-0.9881,-1.0603,0.0,0.0,0.0,0.0,0.0,0.0,0.0,0.0,0.0,0.0,0.0,0.0,0.0,0.0,-2.2932,-2.2932,-2.3028,-2.3253,-2.3175,-2.3793,-2.5167,-2.5185,-2.595,-2.7481,-2.7481,-2.7481,-2.7531,-2.8373,-2.8938,0.0,0.0,0.0,0.0,-3.2343,-3.2555,-3.2555,-3.2555,-3.2555,-3.2484,-3.1988,-3.165,-3.1225,-2.9913,-2.9325,-2.8977,-2.8068,-2.7368,-2.6947,-2.7354,-2.7526,-2.7539,-2.7483,-2.7438,-2.7445,-2.7624,-2.7422,-2.7219,-2.7428,-2.7144,-2.6808,-2.6708,-2.6556,-2.6401,-2.6313,-2.6259,-2.6221,-2.6203,-2.5125,-2.41,-2.3539,-2.2279,-2.1046,-1.9985,-2.0079,-2.0067,-1.9546,-1.9992,-2.099,-2.2636,-2.3011,-2.3392,-2.4008,-2.3752,-2.3651,-2.381,-2.3493,-2.3088,-2.2616,-2.2514,-2.1992,-2.1038,-2.1381,-2.1584,-2.1693,-2.2109,-2.2085,0.0,-1.049,-1.0571,-0.9769,-0.9581,-0.9595,-0.9595,-0.9641,-0.9665,-0.9665,-0.9672,-0.9672,-0.9605,-0.9585,-0.9813,-1.0545,0.0,0.0,0.0,0.0,0.0,0.0,0.0,0.0,0.0,0.0,0.0,0.0,0.0,0.0,-2.2712,-2.2699,-2.2751,-2.2881,-2.2906,-2.3445,-2.454,-2.485,-2.5626,-2.6851,-2.7144,-2.7299,-2.7332,-2.7843,-2.8287,0.0,0.0,0.0,0.0,-3.1567,-3.1917,-3.2162,-3.2197,-3.2232,-3.2127,-3.1357,-3.0885,-3.0449,-2.9189,-2.8528,-2.8165,-2.7635,-2.7091,-2.669,-2.703,-2.728,-2.7405,-2.7312,-2.7296,-2.7333,-2.7546,-2.7327,-2.7107,-2.7332,-2.7012,-2.6674,-2.6573,-2.6435,-2.6295,-2.6259,-2.6222,-2.6103,-2.5821,-2.4942,-2.3982,-2.3242,-2.2215,-2.1167,-2.0242,-2.033,-2.0221,-1.9536,-1.9947,-2.064,-2.1531,-2.2156,-2.2681,-2.3076,-2.3098,-2.324,-2.3579,-2.3271,-2.3077,-2.3036,-2.2867,-2.2379,-2.1533,-2.1822,-2.2096,-2.2335,-2.2518,-2.2223,0.0,-1.006,-1.0449,-0.9689,-0.9543,-0.9587,-0.9605,-0.9605,0.0,-0.9601,-0.9657,-0.9668,-0.9597,-0.9581,-0.9803,-1.0545,0.0,0.0,0.0,0.0,0.0,0.0,0.0,0.0,0.0,0.0,0.0,0.0,0.0,0.0,-2.2391,-2.2446,-2.2487,-2.2487,-2.2659,-2.3083,-2.3788,-2.4543,-2.5301,-2.6094,-2.6868,-2.723,-2.7299,-2.736,-2.7738,0.0,0.0,-2.9414,-3.0612,-3.0786,-3.1254,-3.1858,-3.1932,-3.1968,-3.1899,-3.1046,-3.023,-2.9452,-2.8639,-2.7815,-2.7116,-2.7065,-2.7004,-2.6875,-2.664,-2.6873,-2.7234,-2.7103,-2.7087,-2.7278,-2.7896,-2.7589,-2.7198,-2.7672,-2.7249,-2.6657,-2.6348,-2.6295,-2.6277,-2.6203,-2.6185,-2.5954,-2.5209,-2.4856,-2.4108,-2.2423,-2.1929,-2.1403,-2.0392,-2.0083,-1.9884,-1.969,-2.0038,-2.0196,-2.001,-2.0812,-2.1554,-2.201,-2.2312,-2.2663,-2.3084,-2.2649,-2.2632,-2.3124,-2.2614,-2.2218,-2.1967,-2.2105,-2.2365,-2.2708,-2.2482,-2.1901,-0.9497,0.0,-0.974,-0.9554,-0.9508,-0.9539,0.0,-0.9605,-0.9597,0.0,0.0,0.0,0.0,0.0,0.0,0.0,0.0,0.0,0.0,0.0,0.0,0.0,0.0,0.0,0.0,0.0,0.0,0.0,0.0,-2.2161,-2.2324,-2.2293,-2.2293,-2.2352,-2.2391,-2.2801,-2.3633,-2.3896,-2.468,-2.6018,-2.6268,-2.6695,-2.7299,-2.7315,-2.7089,0.0,0.0,-2.8459,-2.8664,-2.986,-3.0801,-3.138,-3.0911,-3.0849,-3.0854,-2.9437,-2.8681,-2.8271,-2.7419,-2.6894,-2.6472,-2.5765,-2.583,-2.6109,-2.5389,-2.5949,-2.6825,-2.6791,-2.7131,-2.7518,-2.7686,-2.7898,-2.7973,-2.766,-2.7317,-2.6942,-2.6412,-2.6259,-2.6221,-2.6203,-2.6115,-2.5796,-2.5003,-2.4152,-2.3192,-2.2001,-2.1089,-2.0389,-1.9962,-1.9693,-1.9468,-1.9269,-1.9213,-1.9089,-1.8885,-2.0096,-2.1026,-2.1387,-2.1338,-2.1779,-2.2888,-2.2643,-2.2787,-2.3472,-2.3001,-2.2732,-2.2672,-2.2797,-2.2862,-2.286,-2.2273,-2.1702,-0.9408,-0.9444,-0.9506,-0.9501,-0.9496,-0.9508,-0.9543,0.0,0.0,0.0,0.0,0.0,0.0,0.0,0.0,0.0,0.0,0.0,0.0,0.0,0.0,0.0,0.0,0.0,0.0,0.0,0.0,0.0,0.0,-2.1649,-2.2046,-2.2005,-2.193,-2.1842,-2.1842,-2.2218,-2.3,-2.3383,-2.3974,-2.4808,-2.5195,-2.5757,-2.6508,-2.6198,-2.6009,0.0,0.0,-2.6841,-2.7367,-2.8179,-2.9144,-3.0112,-2.9816,-2.9808,-2.9813,-2.8528,-2.7912,-2.7601,-2.6687,-2.6209,-2.5895,-2.5373,-2.5432,-2.564,-2.5086,-2.5432,-2.6099,-2.6572,-2.6936,-2.7307,-2.7871,-2.8046,-2.7997,-2.7712,-2.7385,-2.6991,-2.639,-2.6239,-2.6202,-2.6202,-2.6061,-2.5653,-2.4723,-2.3945,-2.3049,-2.187,-2.088,-2.0197,-1.9972,-1.9463,-1.9045,-1.8841,-1.863,-1.8543,-1.8582,-1.9218,-1.984,-2.0426,-2.0539,-2.1062,-2.2115,-2.1903,-2.1979,-2.2446,-2.2268,-2.2134,-2.2075,-2.237,-2.2238,-2.175,-2.1395,-2.0915,-0.9273,-0.9352,-0.943,-0.9453,-0.9475,-0.9474,-0.9478,0.0,0.0,0.0,0.0,0.0,0.0,0.0,0.0,0.0,0.0,0.0,0.0,0.0,0.0,0.0,0.0,0.0,0.0,0.0,0.0,0.0,0.0,-2.1095,-2.1718,-2.1663,-2.151,-2.126,-2.1245,-2.1524,-2.2092,-2.2757,-2.3156,-2.3274,-2.391,-2.46,-2.5308,-2.4746,-2.4777,-2.5235,0.0,0.0,-2.6184,-2.6351,-2.7256,-2.8537,-2.8664,-2.8755,-2.8707,-2.7822,-2.7322,-2.6967,-2.6065,-2.5559,-2.5294,-2.5234,-2.5195,-2.5176,-2.5095,-2.5056,-2.5274,-2.6342,-2.6687,-2.7013,-2.8132,-2.8142,-2.7881,-2.7867,-2.7496,-2.6967,-2.6391,-2.6178,-2.6114,-2.6114,-2.5934,-2.5433,-2.4397,-2.3875,-2.3161,-2.1868,-2.0989,-2.0356,-2.0127,-1.9334,-1.8702,-1.8475,-1.8254,-1.8235,-1.8463,-1.8342,-1.8583,-1.9382,-1.9824,-2.0381,-2.1133,-2.0996,-2.0934,-2.1055,-2.1168,-2.114,-2.0982,-2.1353,-2.1124,-2.0297,-2.0229,-1.989,-0.9151,-0.9111,-0.9116,-0.9282,-0.9338,-0.9325,-0.9331,0.0,0.0,0.0,0.0,0.0,0.0,0.0,0.0,0.0,0.0,0.0,0.0,0.0,0.0,0.0,0.0,0.0,0.0,0.0,0.0,0.0,0.0,-2.0727,-2.149,-2.1371,-2.1198,-2.1055,-2.1055,-2.1103,-2.1197,-2.1546,-2.2014,-2.2636,-2.2798,-2.3307,-2.4067,-2.4033,-2.3749,-2.3363,0.0,-2.4132,-2.4331,-2.5571,-2.6581,-2.7361,-2.7379,-2.7437,-2.7376,-2.6444,-2.5942,-2.5608,-2.4883,-2.4567,-2.4451,-2.4333,-2.4313,-2.4313,-2.441,-2.4446,-2.4689,-2.5935,-2.6598,-2.7116,-2.7879,-2.8388,-2.8616,-2.823,-2.7694,-2.7134,-2.6639,-2.6097,-2.5675,-2.5696,-2.5435,-2.4927,-2.3964,-2.3409,-2.2753,-2.1689,-2.0804,-2.0196,-2.0122,-1.9305,-1.8581,-1.8288,-1.7955,-1.7679,-1.7442,-1.7752,-1.8154,-1.8632,-1.9151,-1.9774,-2.0509,-2.0717,-2.0828,-2.0856,-2.0856,-2.0758,-2.05,-2.0485,-2.0229,-1.9784,-1.9134,-1.8942,-0.8907,-0.8683,-0.8463,-0.892,-0.9075,-0.9136,-0.9146,0.0,0.0,0.0,0.0,0.0,0.0,0.0,0.0,0.0,0.0,0.0,0.0,0.0,0.0,0.0,0.0,0.0,0.0,0.0,0.0,0.0,0.0,0.0,-2.107,-2.1006,-2.0794,-2.0514,-2.0514,-2.0496,-2.0461,-2.0614,-2.102,-2.1698,-2.1714,-2.2151,-2.2882,-2.2622,-2.254,-2.262,0.0,-2.2671,-2.2996,-2.3543,-2.452,-2.5638,-2.5566,-2.5815,-2.6129,-2.5407,-2.4906,-2.4527,-2.4116,-2.3873,-2.3754,-2.3696,-2.3681,-2.3745,-2.3888,-2.3973,-2.4304,-2.5614,-2.6266,-2.676,-2.765,-2.8206,-2.8372,-2.7805,-2.7572,-2.7214,-2.6311,-2.5875,-2.5536,-2.5155,-2.4855,-2.4465,-2.382,-2.3425,-2.2993,-2.235,-2.1637,-2.1035,-2.064,-1.9698,-1.8795,-1.8063,-1.7639,-1.7413,-1.7333,-1.776,-1.8297,-1.8834,-1.9245,-1.9622,-1.9938,-1.9954,-1.9937,-1.9937,-1.9937,-1.9772,-1.9416,-1.9462,-1.9109,-1.835,-1.8016,-1.7982,-0.8495,-0.8184,-0.7845,-0.836,0.0,-0.8957,-0.8957,0.0,0.0,0.0,0.0,0.0,0.0,0.0,0.0,0.0,0.0,0.0,0.0,0.0,0.0,0.0,0.0,0.0,0.0,0.0,0.0,0.0,0.0,0.0,-2.0633,-2.0611,-2.0424,-2.01,-2.008,-2.0061,-2.0005,-2.0061,-2.0325,-2.0796,-2.0829,-2.1131,-2.1672,-2.1262,-2.1408,-2.1923,-2.1295,-2.1326,-2.1788,-2.1775,-2.2542,-2.3724,-2.3917,-2.4401,-2.4962,-2.4482,-2.4027,-2.3623,-2.3384,-2.3179,-2.3068,-2.3154,-2.3141,-2.3157,-2.3452,-2.3562,-2.3879,-2.5219,-2.5809,-2.6289,-2.7493,-2.794,-2.7984,-2.7507,-2.7303,-2.6954,-2.6016,-2.5539,-2.5129,-2.457,-2.4287,-2.4082,-2.3898,-2.3554,-2.3282,-2.3159,-2.2497,-2.1757,-2.109,-2.0057,-1.8987,-1.7916,-1.7434,-1.7308,-1.7559,-1.7953,-1.8541,-1.9307,-1.9534,-1.9656,-1.9656,-1.9394,-1.9249,-1.9249,-1.9049,-1.874,-1.833,-1.8219,-1.7712,-1.6898,-1.6809,-1.6978,-0.7785,-0.7664,-0.7535,-0.7584,-0.821,0.0,-0.8818,-0.8818,0.0,0.0,0.0,0.0,0.0,0.0,0.0,0.0,0.0,0.0,0.0,0.0,0.0,0.0,0.0,0.0,0.0,0.0,0.0,0.0,0.0,0.0,-2.0381,-2.0239,-2.0133,-2.01,-2.0043,-1.999,-2.0005,-1.999,-2.0061,-2.017,-2.0289,-2.0371,-2.0418,-2.0455,-2.054,-2.0624,-2.0577,-2.0543,-2.0586,-2.1192,-2.1506,-2.1724,-2.2902,-2.359,-2.3867,-2.3523,-2.3201,-2.2912,-2.2535,-2.2342,-2.2339,-2.2706,-2.2544,-2.232,-2.3084,-2.3164,-2.3256,-2.4657,-2.5239,-2.5828,-2.7394,-2.7815,-2.785,-2.7919,-2.702,-2.6131,-2.6168,-2.5077,-2.4112,-2.4046,-2.3824,-2.3804,-2.4275,-2.3665,-2.3287,-2.3755,-2.2773,-2.1757,-2.109,-2.0057,-1.8987,-1.7916,-1.7434,-1.7463,-1.81,-1.8179,-1.8643,-1.9673,-1.9773,-1.9798,-1.9798,-1.9539,-1.9394,-1.9394,-1.8647,-1.7997,-1.7479,-1.6491,-1.6018,-1.5989,-1.5431,-1.5898,-0.8154,-0.7884,-0.76,-0.8015,-0.8341,0.0,0.0,-0.9301,0.0,0.0,0.0,0.0,0.0,0.0,0.0,0.0,0.0,0.0,0.0,0.0,0.0,0.0,0.0,0.0,0.0,0.0,0.0,0.0,0.0,0.0,-1.974,-1.9836,-1.9869,-1.9904,-1.9902,-1.9866,-1.9797,-1.9797,-1.9711,-1.9536,-1.9851,-1.9957,-1.9922,-1.9995,-2.0048,-2.0067,-2.0013,-1.9942,-1.9854,-2.0071,-2.0458,-2.1031,-2.2219,-2.2688,-2.2679,-2.2767,-2.2663,-2.2426,-2.2086,-2.1912,-2.189,-2.2336,-2.2427,-2.2411,-2.2818,-2.2987,-2.3235,-2.3994,-2.4754,-2.5699,-2.727,-2.7675,-2.7665,-2.763,-2.6911,-2.6117,-2.5634,-2.4736,-2.3911,-2.3408,-2.3231,-2.337,-2.3984,-2.3827,-2.3792,-2.436,-2.3731,-2.2802,-2.1757,-2.0691,-1.9454,-1.7896,-1.7329,-1.7305,-1.7892,-1.8276,-1.8747,-1.9489,-1.9708,-1.9759,-1.9682,-1.9486,-1.9368,-1.9275,-1.8873,-1.8398,-1.7825,-1.7035,-1.6558,-1.6329,-1.6183,-1.6507,-0.81,-0.7849,-0.7567,0.0,0.0,0.0,-0.9313,-0.95,0.0,0.0,0.0,0.0,0.0,0.0,0.0,0.0,0.0,0.0,0.0,0.0,0.0,0.0,0.0,0.0,0.0,0.0,0.0,0.0,0.0,0.0,0.0,-1.88,-1.8941,-1.9061,-1.9059,-1.9024,-1.9006,-1.9132,-1.9041,-1.8767,-1.9189,-1.9402,-1.9387,-1.9431,-1.9449,-1.9449,-1.9387,-1.9258,-1.9128,-1.9068,-1.9502,-2.0274,-2.1023,-2.1455,-2.167,-2.1843,-2.1895,-2.1841,-2.164,-2.1471,-2.1486,-2.2104,-2.225,-2.2272,-2.2728,-2.3034,-2.3322,-2.3949,-2.4752,-2.5771,-2.7165,-2.7524,-2.7454,-2.7159,-2.652,-2.5756,-2.4954,-2.4215,-2.3562,-2.2997,-2.2888,-2.3186,-2.4065,-2.4036,-2.4181,-2.4984,-2.4428,-2.3499,-2.2395,-2.1133,-1.9599,-1.7636,-1.7166,-1.722,-1.7761,-1.8302,-1.8817,-1.9357,-1.9565,-1.9555,-1.9291,-1.9334,-1.9216,-1.8941,-1.8994,-1.8694,-1.8084,-1.749,-1.7093,-1.6877,-1.69,-1.7134,-0.7415,-0.7409,-0.7392,0.0,0.0,0.0,0.0,0.0,0.0,0.0,0.0,0.0,0.0,0.0,0.0,0.0,0.0,0.0,0.0,0.0,0.0,0.0,0.0,0.0,0.0,0.0,0.0,0.0,0.0,0.0,0.0,-1.7052,-1.7207,-1.7471,-1.7418,-1.7416,-1.7497,-1.7882,-1.7989,-1.7801,-1.8262,-1.8563,-1.8703,-1.8703,-1.8703,-1.8688,-1.8635,-1.8481,-1.8305,-1.8305,-1.8687,-1.9293,-1.921,-1.9884,-2.0863,-2.0676,-2.0837,-2.1166,-2.1033,-2.0974,-2.1047,-2.2075,-2.1995,-2.1734,-2.2843,-2.3217,-2.3454,-2.4637,-2.538,-2.6039,-2.7107,-2.7386,-2.7223,-2.6565,-2.5741,-2.4916,-2.4247,-2.3466,-2.2888,-2.2888,-2.2888,-2.3331,-2.466,-2.4365,-2.4326,-2.5643,-2.4718,-2.3641,-2.2881,-2.1257,-1.9351,-1.7153,-1.6982,-1.7233,-1.7749,-1.8289,-1.883,-1.9357,-1.9394,-1.9149,-1.8621,-1.8995,-1.8941,-1.8433,-1.8801,-1.8706,-1.8123,-1.7501,-1.7333,-1.7517,-1.7242,-1.7583,-0.7903,-0.8024,0.0,0.0,0.0,0.0,0.0,0.0,0.0,0.0,0.0,0.0,0.0,0.0,0.0,0.0,0.0,0.0,0.0,0.0,0.0,0.0,0.0,0.0,0.0,0.0,0.0,0.0,0.0,0.0,0.0,-1.6395,-1.6642,-1.6852,-1.6901,-1.6918,-1.6935,-1.7014,-1.7112,-1.7231,-1.7276,-1.7669,-1.8352,-1.8352,-1.8352,-1.8352,-1.824,-1.8121,-1.8029,-1.8029,-1.8139,-1.8351,-1.8707,-1.9039,-1.9374,-2.0069,-2.0392,-2.0534,-2.0828,-2.0913,-2.0995,-2.159,-2.193,-2.2204,-2.2518,-2.3136,-2.3744,-2.3934,-2.4667,-2.5403,-2.5548,-2.5835,-2.6127,-2.6113,-2.5233,-2.4326,-2.4028,-2.3397,-2.2888,-2.2888,-2.2888,-2.3331,-2.466,-2.4704,-2.5114,-2.6854,-2.5965,-2.4371,-2.2371,-2.0498,-1.8976,-1.7999,-1.787,-1.7896,-1.8065,-1.8561,-1.8962,-1.9119,-1.9131,-1.9085,-1.9018,-1.915,-1.9097,-1.8837,-1.9302,-1.9266,-1.8678,-1.8378,-1.8167,-1.7988,-1.7998,-1.8144,-0.7677,0.0,0.0,0.0,0.0,0.0,0.0,0.0,0.0,0.0,0.0,0.0,0.0,0.0,0.0,0.0,0.0,0.0,0.0,0.0,0.0,0.0,0.0,0.0,0.0,0.0,0.0,0.0,0.0,0.0,0.0,-1.5219,-1.5449,-1.5674,-1.5725,-1.5761,-1.5829,-1.5975,-1.6102,-1.6217,-1.6311,-1.6638,-1.7138,-1.7591,-1.7808,-1.7808,-1.772,-1.7659,-1.7625,-1.7625,-1.7625,-1.7651,-1.7979,-1.8217,-1.8472,-1.9131,-1.9665,-2.0091,-2.0351,-2.0616,-2.0905,-2.1277,-2.1681,-2.2031,-2.2446,-2.306,-2.3671,-2.3879,-2.4391,-2.4815,-2.4717,-2.4672,-2.4726,-2.5087,-2.4553,-2.3865,-2.3572,-2.3389,-2.3302,-2.3302,-2.349,-2.3998,-2.5067,-2.5226,-2.5767,-2.7395,-2.6587,-2.4904,-2.2401,-2.0657,-1.9389,-1.866,-1.8338,-1.8205,-1.8205,-1.8686,-1.8987,-1.8987,-1.8987,-1.8999,-1.9037,-1.909,-1.9078,-1.8987,-1.9732,-1.9901,-1.9505,-1.9321,-1.9088,-1.8764,-1.8876,-1.892,0.0,0.0,0.0,0.0,0.0,0.0,0.0,0.0,0.0,0.0,0.0,0.0,0.0,0.0,0.0,0.0,0.0,0.0,0.0,0.0,0.0,0.0,0.0,0.0,0.0,0.0,0.0,0.0,0.0,0.0,0.0,-1.3821,-1.3974,-1.4206,-1.4222,-1.4303,-1.4406,-1.4849,-1.5025,-1.4971,-1.5387,-1.5554,-1.5545,-1.6624,-1.7146,-1.7199,-1.7199,-1.7199,-1.7199,-1.7199,-1.7199,-1.7199,-1.7199,-1.7539,-1.8022,-1.8074,-1.8754,-1.9669,-1.9773,-2.0139,-2.0675,-2.1095,-2.1237,-2.1443,-2.2377,-2.2853,-2.3278,-2.4061,-2.4242,-2.419,-2.4294,-2.3735,-2.3253,-2.3677,-2.3687,-2.3495,-2.3068,-2.3461,-2.392,-2.406,-2.453,-2.5114,-2.5836,-2.5952,-2.6335,-2.7376,-2.6814,-2.5428,-2.3022,-2.1641,-2.042,-1.927,-1.862,-1.8277,-1.8277,-1.871,-1.8987,-1.8987,-1.8987,-1.8946,-1.8798,-1.8893,-1.896,-1.8946,-1.9973,-2.0429,-2.0251,-2.0112,-1.9889,-1.9517,-1.9599,-1.9634,0.0,0.0,0.0,0.0,0.0,0.0,0.0,0.0,0.0,0.0,0.0,0.0,0.0,0.0,0.0,0.0,0.0,0.0,0.0,0.0,0.0,0.0,0.0,0.0,0.0,0.0,0.0,0.0,0.0,0.0,-1.3335,-1.3442,-1.3527,-1.3594,-1.3644,-1.3682,-1.3702,-1.3866,-1.4167,-1.4602,-1.476,-1.5079,-1.5513,-1.6232,-1.6794,-1.7199,-1.7199,-1.7199,-1.7199,-1.7199,-1.7199,-1.7199,-1.7199,-1.7277,-1.7447,-1.7931,-1.8257,-1.8597,-1.9486,-1.9819,-1.9916,-2.0486,-2.0888,-2.117,-2.1387,-2.1908,-2.2473,-2.277,-2.3017,-2.3151,-2.2858,-2.2784,-2.2801,-2.2743,-2.2792,-2.2994,-2.3554,-2.3789,-2.4205,-2.5207,-2.5487,-2.5952,-2.7086,-2.7194,-2.7305,-2.784,-2.7726,-2.6863,-2.4806,-2.3111,-2.1654,-2.0469,-1.9442,-1.8819,-1.8819,-1.8927,-1.8987,-1.8987,-1.8987,-1.8881,-1.864,-1.8667,-1.864,-1.853,-1.9383,-1.9547,-1.9,-1.9468,-1.944,-1.8985,-1.9209,-1.9213,0.0,0.0,0.0,0.0,0.0,0.0,0.0,0.0,0.0,0.0,0.0,0.0,0.0,0.0,0.0,0.0,0.0,0.0,0.0,0.0,0.0,0.0,0.0,0.0,0.0,0.0,0.0,0.0,0.0,-1.3198,-1.3198,-1.3267,-1.3323,-1.3408,-1.3374,-1.3391,-1.3459,-1.348,-1.3681,-1.4011,-1.4102,-1.4458,-1.5113,-1.5983,-1.6545,-1.6833,-1.7081,-1.7199,-1.7199,-1.7199,-1.7199,-1.7199,-1.7136,-1.7094,-1.7133,-1.7424,-1.77,-1.8028,-1.8908,-1.9339,-1.96,-2.0091,-2.0386,-2.0615,-2.083,-2.1189,-2.1551,-2.1875,-2.2043,-2.2168,-2.2377,-2.2561,-2.2754,-2.3191,-2.3179,-2.3191,-2.3771,-2.4322,-2.4986,-2.5862,-2.6201,-2.6664,-2.754,-2.774,-2.7706,-2.7513,-2.744,-2.6858,-2.5345,-2.367,-2.2201,-2.1104,-2.0012,-1.9263,-1.9011,-1.8987,-1.8987,-1.8987,-1.8946,-1.8786,-1.8518,-1.8236,-1.8187,-1.845,-1.8656,-1.8714,-1.8633,-1.8731,-1.866,-1.8424,-1.8793,-1.8909,0.0,0.0,0.0,0.0,0.0,0.0,0.0,0.0,0.0,0.0,0.0,0.0,0.0,0.0,0.0,0.0,0.0,0.0,0.0,0.0,0.0,0.0,0.0,0.0,0.0,0.0,0.0,0.0,0.0,-1.3198,-1.3198,-1.3198,-1.325,-1.3357,-1.325,-1.3215,-1.3259,-1.3306,-1.334,-1.3378,-1.3514,-1.3878,-1.4445,-1.5658,-1.6277,-1.6428,-1.6963,-1.7199,-1.7199,-1.7199,-1.7199,-1.7157,-1.7044,-1.6981,-1.6981,-1.6918,-1.717,-1.7648,-1.8362,-1.8887,-1.9313,-1.9826,-1.999,-2.004,-2.0429,-2.0567,-2.0668,-2.1148,-2.1319,-2.1564,-2.2353,-2.2677,-2.3047,-2.4024,-2.3989,-2.385,-2.4163,-2.4943,-2.5759,-2.6402,-2.6891,-2.7323,-2.769,-2.7919,-2.7783,-2.6969,-2.6827,-2.6371,-2.5239,-2.3803,-2.2458,-2.1391,-2.0388,-1.9591,-1.9035,-1.8987,-1.8987,-1.8972,-1.8878,-1.8637,-1.834,-1.7717,-1.7628,-1.8105,-1.7796,-1.7873,-1.8385,-1.8019,-1.7833,-1.7925,-1.8371,-1.8578,0.0,0.0,0.0,0.0,0.0,0.0,0.0,0.0,0.0,0.0,0.0,0.0,0.0,0.0,0.0,0.0,0.0,0.0,0.0,0.0,0.0,0.0,0.0,0.0,0.0,0.0,0.0,0.0,-1.2902,-1.3198,-1.3198,-1.3198,-1.3215,-1.3232,-1.3146,-1.2978,-1.2708,-1.2878,-1.2931,-1.289,-1.331,-1.3552,-1.3685,-1.4837,-1.5731,-1.6428,-1.6963,-1.7199,-1.7199,-1.7199,-1.7136,-1.7023,-1.7002,-1.696,-1.6897,-1.6897,-1.6948,-1.7166,-1.8234,-1.8561,-1.8707,-1.9674,-1.9926,-1.9849,-1.9886,-2.0001,-2.0143,-2.0309,-2.1017,-2.1848,-2.2299,-2.2997,-2.365,-2.3946,-2.4427,-2.4935,-2.543,-2.5473,-2.5818,-2.7173,-2.7748,-2.8007,-2.7972,-2.7845,-2.7523,-2.682,-2.6728,-2.6188,-2.4766,-2.3756,-2.2615,-2.1271,-2.0317,-1.9591,-1.9035,-1.8987,-1.8946,-1.8825,-1.8798,-1.8545,-1.7991,-1.7401,-1.6931,-1.6608,-1.6829,-1.7002,-1.7135,-1.7352,-1.7512,-1.7583,-1.7979,-1.809,0.0,0.0,0.0,0.0,0.0,0.0,0.0,0.0,0.0,0.0,0.0,0.0,0.0,0.0,0.0,0.0,0.0,0.0,0.0,0.0,0.0,0.0,0.0,0.0,0.0,0.0,0.0,0.0,-1.2526,-1.299,-1.299,-1.299,-1.3042,-1.3141,-1.3007,-1.2803,-1.2549,-1.2632,-1.2733,-1.2803,-1.3237,-1.3442,-1.3467,-1.4351,-1.5113,-1.5769,-1.6656,-1.7044,-1.7044,-1.7044,-1.7002,-1.6939,-1.6867,-1.6803,-1.6782,-1.6693,-1.6684,-1.6836,-1.7976,-1.8346,-1.8451,-1.9535,-1.9837,-1.9861,-2.0188,-2.0446,-2.0745,-2.1276,-2.2009,-2.2824,-2.3656,-2.4142,-2.4527,-2.4968,-2.5142,-2.5215,-2.5201,-2.5242,-2.5536,-2.6367,-2.7123,-2.7571,-2.7317,-2.7183,-2.6889,-2.6191,-2.5845,-2.5282,-2.4229,-2.3403,-2.2526,-2.1484,-2.0705,-2.0021,-1.948,-1.9167,-1.8946,-1.8798,-1.8744,-1.8437,-1.781,-1.7217,-1.6655,-1.62,-1.5997,-1.6018,-1.6286,-1.6459,-1.6684,-1.6951,-1.7528,-1.7719,0.0,0.0,0.0,0.0,0.0,0.0,0.0,0.0,0.0,0.0,0.0,0.0,0.0,0.0,0.0,0.0,0.0,0.0,0.0,0.0,0.0,0.0,0.0,0.0,0.0,0.0,0.0,0.0,-1.2128,-1.2662,-1.2579,-1.265,-1.2785,-1.2973,-1.2838,-1.2644,-1.2389,-1.23,-1.2372,-1.2644,-1.3017,-1.3224,-1.3301,-1.4006,-1.4527,-1.4999,-1.6171,-1.6756,-1.6897,-1.6897,-1.6876,-1.6846,-1.674,-1.6675,-1.6654,-1.6543,-1.65,-1.6651,-1.7802,-1.8204,-1.838,-1.9459,-1.9798,-1.9874,-2.0339,-2.0778,-2.1248,-2.1982,-2.2791,-2.3686,-2.4642,-2.4973,-2.5171,-2.5563,-2.5425,-2.5063,-2.4669,-2.4909,-2.5258,-2.5428,-2.6191,-2.6688,-2.6474,-2.6371,-2.6102,-2.5406,-2.4983,-2.4442,-2.3677,-2.3132,-2.2476,-2.1643,-2.0981,-2.0382,-1.9856,-1.9447,-1.9111,-1.8934,-1.8853,-1.8526,-1.7863,-1.7125,-1.6576,-1.62,-1.5596,-1.549,-1.5902,-1.5901,-1.6141,-1.6618,-1.7099,-1.7348,0.0,0.0,0.0,0.0,0.0,0.0,0.0,0.0,0.0,0.0,0.0,0.0,0.0,0.0,0.0,0.0,0.0,0.0,0.0,0.0,0.0,0.0,0.0,0.0,0.0,0.0,0.0,0.0,-1.1829,-1.2276,-1.1963,-1.2258,-1.2473,-1.262,-1.268,-1.252,-1.2131,-1.1737,-1.1756,-1.215,-1.2478,-1.2743,-1.2955,-1.3761,-1.4116,-1.4235,-1.5497,-1.6384,-1.6897,-1.6897,-1.6825,-1.6697,-1.6697,-1.662,-1.65,-1.65,-1.65,-1.6651,-1.7802,-1.8204,-1.838,-1.9459,-1.9798,-1.9811,-1.9836,-2.0422,-2.1171,-2.1472,-2.2671,-2.3973,-2.4488,-2.4888,-2.5161,-2.5061,-2.4793,-2.4509,-2.4337,-2.4775,-2.5097,-2.4789,-2.5271,-2.5676,-2.5676,-2.5488,-2.5202,-2.4637,-2.4528,-2.4143,-2.3176,-2.3019,-2.2578,-2.1512,-2.0935,-2.0382,-1.9856,-1.9784,-1.9634,-1.93,-1.9324,-1.9015,-1.8205,-1.7184,-1.6578,-1.6487,-1.5893,-1.5797,-1.6169,-1.5978,-1.6233,-1.6872,-1.6917,-1.6936,0.0,0.0,0.0,0.0,0.0,0.0,0.0,0.0,0.0,0.0,0.0,0.0,0.0,0.0,0.0,0.0,0.0,0.0,0.0,0.0,0.0,0.0,0.0,0.0,0.0,0.0,0.0,0.0,0.0,-1.1774,-1.1664,-1.1799,-1.2102,-1.2514,-1.2437,-1.2246,-1.1963,-1.1664,-1.17,-1.2095,-1.2473,-1.2733,-1.2838,-1.3175,-1.3494,-1.381,-1.4523,-1.5334,-1.6165,-1.6511,-1.6607,-1.6565,-1.6565,-1.6543,-1.65,-1.65,-1.65,-1.66,-1.74,-1.7903,-1.8329,-1.9033,-1.9522,-1.9874,-2.0264,-2.0728,-2.1286,-2.2198,-2.2996,-2.3738,-2.4475,-2.4633,-2.4523,-2.416,-2.3691,-2.3348,-2.3288,-2.4116,-2.4738,-2.4329,-2.4978,-2.5571,-2.5418,-2.5347,-2.5131,-2.4568,-2.4484,-2.4145,-2.3144,-2.2883,-2.2544,-2.1796,-2.1146,-2.0724,-2.0523,-2.0203,-1.9898,-1.9709,-1.972,-1.9419,-1.8733,-1.8024,-1.7476,-1.7144,-1.6443,-1.6154,-1.6198,-1.6248,-1.642,-1.6649,-1.7072,-1.7284,-0.3436,0.0,0.0,0.0,0.0,0.0,0.0,0.0,0.0,0.0,0.0,0.0,0.0,0.0,0.0,0.0,0.0,0.0,0.0,0.0,0.0,0.0,0.0,0.0,0.0,0.0,0.0,0.0,0.0,0.0,-1.0946,-1.127,-1.1726,-1.2282,-1.2156,-1.1982,-1.1799,-1.1523,-1.1608,-1.1993,-1.2413,-1.2627,-1.2662,-1.2703,-1.2872,-1.3123,-1.3627,-1.4493,-1.5538,-1.6061,-1.6306,-1.6349,-1.6371,-1.6436,-1.6479,-1.65,-1.65,-1.6588,-1.7187,-1.7739,-1.8292,-1.882,-1.9359,-1.9911,-2.0515,-2.0966,-2.1525,-2.2531,-2.313,-2.3607,-2.4233,-2.4237,-2.3956,-2.3526,-2.3072,-2.2678,-2.2616,-2.3557,-2.4308,-2.3992,-2.4774,-2.5465,-2.5312,-2.5312,-2.5192,-2.4831,-2.4748,-2.4448,-2.355,-2.3332,-2.2998,-2.2411,-2.1785,-2.1334,-2.1158,-2.0798,-2.048,-2.0157,-2.0308,-2.0148,-1.9599,-1.9126,-1.8627,-1.8047,-1.7323,-1.6846,-1.6646,-1.6529,-1.655,-1.664,-1.7219,-1.7606,0.0,0.0,0.0,0.0,0.0,0.0,0.0,0.0,0.0,0.0,0.0,0.0,0.0,0.0,0.0,0.0,0.0,0.0,0.0,0.0,0.0,0.0,0.0,0.0,0.0,0.0,0.0,0.0,-0.9755,-1.0144,-0.982,-1.0704,-1.1442,-1.1872,-1.1847,-1.1737,-1.1616,-1.1338,-1.1404,-1.1811,-1.2204,-1.2395,-1.2395,-1.2395,-1.2305,-1.2157,-1.2896,-1.3907,-1.51,-1.5576,-1.5846,-1.5988,-1.6122,-1.6253,-1.6392,-1.6479,-1.65,-1.6575,-1.7162,-1.7727,-1.8268,-1.8807,-1.9359,-1.9924,-2.0515,-2.115,-2.1789,-2.2347,-2.2979,-2.359,-2.3725,-2.3649,-2.3509,-2.3168,-2.2878,-2.2647,-2.2451,-2.3143,-2.3806,-2.3806,-2.4602,-2.5312,-2.5312,-2.5312,-2.5312,-2.5312,-2.5312,-2.5049,-2.4408,-2.4302,-2.3997,-2.3262,-2.2723,-2.2186,-2.1639,-2.1624,-2.1339,-2.0649,-2.1132,-2.1221,-2.0743,-2.0475,-1.9955,-1.9119,-1.8452,-1.791,-1.7505,-1.6852,-1.6659,-1.6936,-1.7339,-1.7861,-0.4733,0.0,0.0,0.0,0.0,0.0,0.0,0.0,0.0,0.0,0.0,0.0,0.0,0.0,0.0,0.0,0.0,0.0,0.0,0.0,0.0,0.0,0.0,0.0,0.0,0.0,0.0,0.0,-0.9487,-0.9892,-0.9802,-1.0961,-1.1693,-1.1826,-1.195,-1.195,-1.1815,-1.1608,-1.1689,-1.2102,-1.2347,-1.2473,-1.2473,-1.2419,-1.2486,-1.2625,-1.3076,-1.3661,-1.4341,-1.4811,-1.513,-1.5379,-1.5546,-1.5768,-1.6013,-1.6306,-1.6436,-1.6461,-1.6623,-1.7275,-1.8062,-1.8127,-1.9031,-2.013,-2.0291,-2.0739,-2.1312,-2.1828,-2.2146,-2.2417,-2.2887,-2.2969,-2.2921,-2.283,-2.2635,-2.2482,-2.242,-2.3143,-2.3806,-2.3806,-2.4602,-2.5312,-2.5312,-2.5312,-2.5312,-2.5312,-2.5206,-2.4956,-2.4361,-2.4048,-2.3641,-2.3047,-2.275,-2.2393,-2.1853,-2.1807,-2.1588,-2.1069,-2.1486,-2.1578,-2.1228,-2.1082,-2.0582,-1.9606,-1.876,-1.8058,-1.7505,-1.7327,-1.7255,-1.7348,-1.7915,-1.8391,0.0,0.0,0.0,0.0,0.0,0.0,0.0,-0.5086,0.0,0.0,0.0,0.0,0.0,0.0,0.0,0.0,0.0,0.0,0.0,0.0,0.0,0.0,0.0,0.0,0.0,-0.8223,-0.8339,-0.8279,-0.9014,-0.9711,-1.0235,-1.116,-1.1712,-1.1808,-1.1986,-1.2059,-1.1979,-1.1877,-1.1975,-1.2294,-1.249,-1.2538,-1.2455,-1.2552,-1.2653,-1.2734,-1.3245,-1.3617,-1.3905,-1.4349,-1.4766,-1.5131,-1.5345,-1.5591,-1.5859,-1.6241,-1.6362,-1.6318,-1.6371,-1.707,-1.7894,-1.7834,-1.8879,-2.0241,-2.0462,-2.0916,-2.1456,-2.2009,-2.2198,-2.2242,-2.25,-2.2647,-2.2678,-2.2586,-2.2482,-2.2389,-2.2328,-2.3111,-2.3806,-2.3806,-2.4602,-2.5312,-2.5312,-2.5312,-2.5276,-2.5206,-2.5147,-2.4945,-2.4472,-2.4167,-2.3874,-2.3468,-2.3375,-2.311,-2.257,-2.2525,-2.234,-2.1857,-2.2283,-2.2355,-2.199,-2.2015,-2.1493,-2.0363,-1.9485,-1.8646,-1.785,-1.7559,-1.7488,-1.7749,-1.8114,-1.8467,-0.7139,-0.7083,0.0,0.0,0.0,0.0,-0.5564,-0.5449,0.0,0.0,0.0,0.0,0.0,0.0,0.0,0.0,0.0,0.0,0.0,0.0,0.0,0.0,0.0,0.0,-0.7564,-0.7603,-0.7647,-0.771,-0.8532,-0.9567,-1.0783,-1.1279,-1.1627,-1.1829,-1.2041,-1.2131,-1.2131,-1.2131,-1.2222,-1.2413,-1.2621,-1.2603,-1.2425,-1.2763,-1.2858,-1.2754,-1.3461,-1.3806,-1.3872,-1.4245,-1.4651,-1.5074,-1.5356,-1.558,-1.5814,-1.6219,-1.6275,-1.62,-1.638,-1.7041,-1.7798,-1.7836,-1.8913,-2.0333,-2.0799,-2.1362,-2.1949,-2.2512,-2.2678,-2.2616,-2.2451,-2.2525,-2.2586,-2.242,-2.2438,-2.2425,-2.2313,-2.3144,-2.389,-2.389,-2.4638,-2.5312,-2.5312,-2.5312,-2.5241,-2.5111,-2.5087,-2.4909,-2.4562,-2.449,-2.4381,-2.4236,-2.42,-2.3957,-2.3418,-2.3337,-2.3097,-2.2559,-2.2936,-2.3011,-2.2519,-2.2703,-2.2205,-2.0978,-2.0113,-1.9241,-1.8377,-1.7666,-1.7591,-1.816,-1.816,-1.8228,-0.8256,-0.8186,-0.8043,0.0,0.0,0.0,0.0,-0.6071,0.0,0.0,0.0,0.0,0.0,0.0,0.0,0.0,0.0,0.0,0.0,0.0,0.0,0.0,0.0,0.0,-0.7289,-0.7627,-0.7826,-0.7788,-0.8692,-0.9634,-1.0527,-1.1319,-1.1829,-1.2041,-1.224,-1.233,-1.233,-1.233,-1.2383,-1.2473,-1.2627,-1.2627,-1.2502,-1.2943,-1.3268,-1.3495,-1.4032,-1.4492,-1.4824,-1.4903,-1.488,-1.4801,-1.5074,-1.5334,-1.5603,-1.5957,-1.6066,-1.6105,-1.6555,-1.7117,-1.7703,-1.8017,-1.9223,-2.0552,-2.0665,-2.1336,-2.2176,-2.2396,-2.2451,-2.2451,-2.242,-2.234,-2.229,-2.2247,-2.2573,-2.2886,-2.2855,-2.364,-2.4374,-2.4374,-2.4879,-2.5312,-2.5312,-2.5312,-2.5241,-2.5111,-2.4957,-2.479,-2.4538,-2.4345,-2.4236,-2.42,-2.42,-2.3921,-2.3229,-2.3007,-2.2484,-2.1475,-2.1761,-2.1607,-2.0814,-2.1237,-2.0958,-1.9915,-1.8926,-1.8347,-1.8175,-1.8015,-1.8154,-1.8585,-1.8408,-1.8364,-0.861,-0.8547,-0.8384,-0.7717,0.0,0.0,0.0,0.0,0.0,0.0,0.0,0.0,0.0,0.0,0.0,0.0,0.0,0.0,0.0,0.0,0.0,0.0,0.0,0.0,-0.6711,-0.706,-0.7478,-0.7911,-0.87,-0.9584,-1.0601,-1.148,-1.2041,-1.224,-1.2449,-1.2556,-1.2556,-1.2556,-1.2573,-1.2609,-1.2674,-1.2662,-1.2633,-1.3397,-1.3828,-1.4033,-1.4782,-1.5233,-1.5446,-1.5446,-1.5379,-1.5243,-1.5289,-1.5424,-1.5637,-1.5913,-1.5957,-1.5997,-1.6586,-1.7108,-1.7593,-1.8062,-1.9287,-2.0586,-2.0603,-2.148,-2.2463,-2.2525,-2.2604,-2.2635,-2.2586,-2.2432,-2.2309,-2.2309,-2.2657,-2.3011,-2.3011,-2.3785,-2.4484,-2.4484,-2.4881,-2.5206,-2.5276,-2.5312,-2.5206,-2.4992,-2.4861,-2.4682,-2.4381,-2.4273,-2.42,-2.42,-2.42,-2.3988,-2.3401,-2.3078,-2.2468,-2.1522,-2.1424,-2.1019,-2.0184,-2.0394,-2.0155,-1.9459,-1.8753,-1.8399,-1.8399,-1.8154,-1.8131,-1.8371,-1.8241,-1.8201,0.0,0.0,0.0,0.0,0.0,-0.731,0.0,0.0,0.0,0.0,0.0,0.0,0.0,0.0,0.0,0.0,0.0,0.0,0.0,0.0,0.0,0.0,0.0,0.0,-0.6201,-0.6516,-0.7046,-0.7832,-0.8517,-0.9397,-1.0542,-1.1484,-1.2135,-1.2401,-1.2591,-1.2709,-1.2709,-1.2709,-1.2709,-1.2709,-1.2709,-1.2709,-1.2745,-1.3807,-1.4309,-1.4349,-1.5358,-1.5792,-1.5792,-1.5792,-1.5792,-1.5792,-1.5625,-1.5614,-1.5738,-1.5891,-1.5891,-1.591,-1.6661,-1.7122,-1.7507,-1.8265,-1.9516,-2.0771,-2.0909,-2.1816,-2.2787,-2.2818,-2.2957,-2.3078,-2.2909,-2.277,-2.2659,-2.2597,-2.2938,-2.328,-2.328,-2.4013,-2.464,-2.4606,-2.4895,-2.5111,-2.5241,-2.5241,-2.5123,-2.479,-2.4754,-2.461,-2.4236,-2.42,-2.42,-2.4164,-2.4116,-2.3897,-2.3446,-2.3001,-2.2381,-2.1511,-2.1079,-2.0467,-1.9596,-1.9566,-1.944,-1.9183,-1.8843,-1.8652,-1.8652,-1.8161,-1.7951,-1.8,-1.8,-1.8,0.0,0.0,0.0,0.0,-0.7557,0.0,0.0,0.0,0.0,0.0,0.0,0.0,0.0,0.0,0.0,0.0,0.0,0.0,0.0,0.0,0.0,0.0,0.0,0.0,0.0,-0.6563,-0.6876,-0.7111,-0.8016,-0.893,-0.9784,-1.0993,-1.1912,-1.2467,-1.2627,-1.2709,-1.2709,-1.2709,-1.2709,-1.2709,-1.2709,-1.2709,-1.2745,-1.3807,-1.4309,-1.4349,-1.5358,-1.5792,-1.5792,-1.5738,-1.576,-1.5792,-1.577,-1.577,-1.5792,-1.5814,-1.5814,-1.5958,-1.6979,-1.7364,-1.7664,-1.9119,-2.0382,-2.1422,-2.2001,-2.2603,-2.3088,-2.3207,-2.3522,-2.3829,-2.3547,-2.3599,-2.3648,-2.3366,-2.3814,-2.435,-2.435,-2.4807,-2.518,-2.5051,-2.5075,-2.5123,-2.5111,-2.4957,-2.479,-2.4574,-2.4538,-2.4454,-2.4236,-2.42,-2.4127,-2.397,-2.3776,-2.3446,-2.2852,-2.2252,-2.1424,-2.0195,-1.9756,-1.9056,-1.7982,-1.817,-1.8435,-1.8763,-1.8563,-1.8442,-1.8442,-1.7942,-1.7829,-1.8,-1.8,-1.8,0.0,0.0,0.0,0.0,0.0,0.0,0.0,0.0,-0.6366,0.0,0.0,0.0,0.0,0.0,0.0,0.0,0.0,0.0,0.0,0.0,0.0,0.0,0.0,0.0,0.0,0.0,0.0,0.0,-0.7517,-0.8588,-0.9305,-1.0888,-1.1893,-1.2142,-1.2506,-1.2709,-1.2709,-1.2709,-1.2709,-1.2709,-1.2709,-1.2709,-1.2745,-1.3807,-1.4309,-1.4349,-1.5358,-1.577,-1.5738,-1.5715,-1.5738,-1.5814,-1.601,-1.601,-1.5935,-1.5991,-1.6242,-1.6607,-1.7374,-1.808,-1.8873,-2.0482,-2.1323,-2.1858,-2.2717,-2.3185,-2.3446,-2.3771,-2.4063,-2.4221,-2.3972,-2.3892,-2.3829,-2.3484,-2.3815,-2.4221,-2.4198,-2.4613,-2.4992,-2.4957,-2.4814,-2.473,-2.473,-2.479,-2.4718,-2.4538,-2.449,-2.4418,-2.4236,-2.42,-2.408,-2.3751,-2.3446,-2.2964,-2.2252,-2.1482,-2.0637,-1.9631,-1.8852,-1.8313,-1.8101,-1.8087,-1.8279,-1.8692,-1.8482,-1.8402,-1.8402,-1.7942,-1.7668,-1.7635,-1.7635,-1.7635,-0.6536,0.0,0.0,0.0,0.0,0.0,0.0,0.0,0.0,0.0,0.0,0.0,0.0,0.0,0.0,0.0,0.0,0.0,0.0,0.0,0.0,0.0,0.0,0.0,0.0,0.0,0.0,0.0,0.0,-0.8028,-0.8858,-1.0504,-1.1531,-1.1802,-1.2345,-1.2609,-1.2609,-1.2609,-1.2639,-1.2656,-1.2656,-1.2662,-1.2745,-1.3768,-1.4261,-1.4289,-1.5281,-1.5703,-1.5693,-1.5671,-1.5748,-1.5947,-1.6194,-1.6281,-1.6262,-1.6426,-1.682,-1.7405,-1.8106,-1.9309,-2.07,-2.1875,-2.2364,-2.2611,-2.3412,-2.3913,-2.4311,-2.4704,-2.5085,-2.5322,-2.4944,-2.4688,-2.4457,-2.4023,-2.4085,-2.4202,-2.4225,-2.4531,-2.479,-2.4718,-2.461,-2.449,-2.4418,-2.4526,-2.4527,-2.4232,-2.4209,-2.4091,-2.3834,-2.3902,-2.3802,-2.3366,-2.3036,-2.2515,-2.1693,-2.0828,-1.9975,-1.9174,-1.832,-1.7954,-1.8282,-1.8136,-1.8166,-1.8482,-1.8362,-1.8273,-1.8282,-1.7829,-1.7505,-1.731,-1.731,-1.727,0.0,0.0,0.0,-0.5677,0.0,0.0,0.0,0.0,-0.6434,0.0,0.0,0.0,0.0,0.0,0.0,0.0,0.0,0.0,0.0,0.0,0.0,0.0,0.0,0.0,0.0,0.0,0.0,0.0,-0.6264,-0.7091,-0.8351,-0.9519,-1.0598,-1.1566,-1.2142,-1.2413,-1.2413,-1.2413,-1.2437,-1.2508,-1.2508,-1.2561,-1.2728,-1.3684,-1.4113,-1.4173,-1.5109,-1.5592,-1.5693,-1.5558,-1.578,-1.6188,-1.6259,-1.6531,-1.6897,-1.7094,-1.7565,-1.8227,-1.9342,-2.1198,-2.3093,-2.3145,-2.3522,-2.3979,-2.4192,-2.4983,-2.5848,-2.5992,-2.6852,-2.753,-2.6865,-2.6471,-2.607,-2.5394,-2.4985,-2.4766,-2.4766,-2.4778,-2.4754,-2.4538,-2.449,-2.4454,-2.4236,-2.42,-2.4028,-2.3499,-2.3442,-2.3258,-2.2788,-2.3121,-2.3218,-2.2601,-2.247,-2.2101,-2.1282,-2.042,-1.9567,-1.8771,-1.8141,-1.7907,-1.811,-1.7912,-1.79,-1.8031,-1.804,-1.7991,-1.7991,-1.7595,-1.731,-1.7098,-1.7098,-1.6976,0.0,0.0,-0.6014,-0.5845,0.0,0.0,0.0,0.0,0.0,0.0,0.0,0.0,0.0,0.0,0.0,0.0,0.0,0.0,0.0,0.0,0.0,0.0,0.0,0.0,0.0,0.0,0.0,0.0,-0.6161,0.0,-0.7819,-0.9282,-1.0397,-1.1056,-1.1948,-1.2395,-1.2395,-1.2395,-1.2413,-1.2419,-1.2473,-1.249,-1.2538,-1.3606,-1.4041,-1.4028,-1.5044,-1.5536,-1.5558,-1.5647,-1.5903,-1.6231,-1.6625,-1.6985,-1.7303,-1.7323,-1.795,-1.9044,-2.0982,-2.2418,-2.3446,-2.3699,-2.3932,-2.4105,-2.435,-2.5052,-2.5799,-2.5943,-2.6585,-2.7081,-2.6281,-2.5922,-2.5594,-2.4927,-2.4589,-2.4418,-2.4418,-2.4418,-2.4381,-2.4309,-2.4309,-2.4169,-2.3752,-2.3659,-2.3602,-2.343,-2.3407,-2.3224,-2.2776,-2.3121,-2.3125,-2.2399,-2.2105,-2.1662,-2.0876,-2.001,-1.9404,-1.9109,-1.8677,-1.8433,-1.8488,-1.8131,-1.7952,-1.7991,-1.8,-1.8,-1.8,-1.7595,-1.7229,-1.6812,-1.6574,-1.6376,-0.633,-0.6209,0.0,-0.5845,-0.6064,0.0,-0.5875,0.0,0.0,0.0,0.0,0.0,0.0,0.0,0.0,0.0,0.0,0.0,0.0,0.0,0.0,0.0,0.0,0.0,0.0,0.0,-0.601,-0.576,-0.6153,0.0,0.0,-0.8867,-0.9956,-1.0425,-1.1657,-1.2294,-1.2294,-1.2294,-1.2312,-1.233,-1.2372,-1.2401,-1.2448,-1.3509,-1.3961,-1.3927,-1.4935,-1.5379,-1.5458,-1.5659,-1.5947,-1.6284,-1.6786,-1.7186,-1.7516,-1.7652,-1.8766,-2.0458,-2.2369,-2.3555,-2.4239,-2.4445,-2.445,-2.445,-2.4637,-2.5358,-2.6094,-2.6107,-2.6658,-2.7077,-2.6309,-2.5818,-2.5376,-2.4817,-2.4436,-2.42,-2.42,-2.42,-2.42,-2.42,-2.42,-2.4039,-2.3499,-2.3407,-2.3281,-2.2926,-2.2869,-2.2685,-2.2236,-2.2593,-2.2592,-2.1894,-2.1568,-2.1015,-2.0014,-1.9325,-1.8997,-1.9063,-1.8772,-1.8571,-1.8571,-1.8201,-1.8,-1.8,-1.8,-1.8,-1.8,-1.7514,-1.7057,-1.6566,-1.6072,-1.5748]},{"header":{"parameterUnit":"m.s-1","parameterCategory":1,"la1":30.6,"la2":29.2853,"lo1":-89.7004,"lo2":-87.6739,"dy":0.0162,"dx":0.0183,"nx":112,"ny":82,"refTime":"2026-03-22T00:00:00:Z","depth":0,"parameterNumber":3,"parameterNumberName":"V-component_of_WINDS"},"data":[0.0,0.0,0.0,0.0,0.0,0.0,0.0,0.0,0.0,0.0,0.0,0.0,0.0,0.0,0.0,0.0,0.0,0.0,0.0,0.0,0.0,0.0,0.0,0.0,0.0,0.0,0.0,0.0,0.0,0.0,0.0,0.0,0.0,0.0,0.0,0.0,0.0,0.0,0.0,0.0,0.0,0.0,0.0,0.0,0.0,0.0,0.0,0.0,0.0,0.0,0.0,0.0,0.0,0.0,0.0,0.0,0.0,0.0,0.0,0.0,0.0,0.0,0.0,0.0,0.0,0.0,0.0,0.0,0.0,0.0,0.0,0.0,0.0,0.0,0.0,0.0,0.0,0.0,0.0,0.0,0.0,0.0,0.0,0.0,0.0,0.0,0.0,0.0,0.0,0.0,0.0,-0.0822,0.0183,0.081,0.0871,0.0888,0.0767,0.0488,0.0,0.0,0.0,0.0,0.0,0.0,0.0,0.0,0.0,0.0,0.0,0.0,0.0,0.0,0.0,0.0,0.0,0.0,0.0,0.0,0.0,0.0,0.0,0.0,0.0,0.0,0.0,0.0,0.0,0.0,0.0,0.0,0.0,0.0,0.0,0.0,0.0,0.0,0.0,0.0,0.0,0.0,0.0,0.0,0.0,0.0,0.0,0.0,0.0,0.0,0.0,0.0,0.0,0.0,0.0,0.0,0.0,0.0,0.0,0.0,0.0,0.0,0.0,0.0,0.0,0.0,0.0,0.0,0.0,0.0,0.0,0.0,0.0,0.0,0.0,0.0,0.0,0.0,0.0,0.0,0.0,0.0,0.0,0.0,0.0,0.0,0.0,0.0,0.0,0.0,0.0,0.0,0.0,0.0,0.0,0.0,0.0,0.0,0.0,0.0,0.0,0.0,0.0,0.0,-0.1215,-0.0375,0.0255,0.067,0.0807,0.1128,0.1149,0.0771,0.0,0.0,0.0,0.0,0.0,0.0,0.0,0.0,0.0,0.0,0.0,0.0,0.0,0.0,0.0,0.0,0.0,0.0,0.0,0.0,0.0,0.0,0.0,0.0,0.0,0.0,0.0,0.0,0.0,0.0,0.0,0.0,0.0,0.0,0.0,0.0,0.0,0.0,0.0,0.0,0.0,0.0,0.0,0.0,0.0,0.0,0.0,0.0,0.0,0.0,0.0,0.0,0.0,0.0,0.0,0.0,0.0,0.0,0.0,0.0,0.0,0.0,0.0,0.0,0.0,0.0,0.0,0.0,0.0,0.0,0.0,0.0,0.0,0.0,0.0,0.0,0.0,0.0,0.0,0.0,0.0,0.0,0.0,0.0,0.0,0.0,0.0,0.0,0.0,0.0,0.0,0.0,0.0,0.0,0.0,0.0,0.0,0.0,0.0,0.0,0.0,0.0,0.0,-0.1018,-0.0549,-0.0045,0.0343,0.066,0.094,0.1225,0.1269,0.0921,0.0421,0.0,0.0,0.0,0.0,0.0,0.0,0.0,0.0,0.0,0.0,0.0,0.0,0.0,0.0,0.0,0.0,0.0,0.0,0.0,0.0,0.0,0.0,0.0,0.0,0.0,0.0,0.0,0.0,0.0,0.0,0.0,0.0,0.0,0.0,0.0,0.0,0.0,0.0,0.0,0.0,0.0,0.0,0.0,0.0,0.0,0.0,0.0,0.0,0.0,0.0,0.0,0.0,0.0,0.0,0.0,0.0,0.0,0.0,0.0,0.0,0.0,0.0,0.0,0.0,0.0,0.0,0.0,0.0,0.0,0.0,0.0,0.0,0.0,0.0,0.0,0.0,0.0,0.0,0.0,0.0,0.0,0.0,0.0,0.0,0.0,0.0,0.0,0.0,0.0,0.0,0.0,0.0,0.0,0.0,0.0,0.0,0.0,0.0,0.0,0.0,0.0,0.0,-0.0456,-0.0021,0.0178,0.0385,0.0659,0.1031,0.126,0.1293,0.1022,0.0691,0.0,0.0,0.0,0.0,0.0,0.0,0.0,0.0,0.0,0.0,0.0,0.0,0.0,0.0,0.0,0.0,0.0,0.0,0.0,0.0,0.0,0.0,0.0,0.0,0.0,0.0,0.0,0.0,0.0,0.0,0.0,0.0,0.0,0.0,0.0,0.0,0.0,0.0,0.0,0.0,0.0,0.0,0.0,0.0,0.0,0.0,0.0,0.0,0.0,0.0,0.0,0.0,0.0,0.0,0.0,0.0,0.0,0.0,0.0,0.0,0.0,0.0,0.0,0.0,0.0,0.0,0.0,0.0,0.0,0.0,0.0,0.0,0.0,0.0,0.0,0.0,0.0,0.0,0.0,0.0,0.0,0.0,0.0,0.0,0.0,0.0,0.0,0.0,0.0,0.0,0.0,0.0,0.0,0.0,0.0,0.0,0.0,0.0,0.0,0.0,0.0,0.0,-0.0122,0.0171,0.0201,0.0442,0.0679,0.0898,0.1218,0.1293,0.1022,0.0691,0.0,0.0,0.0,0.0,0.0,0.0,0.0,0.0,0.0,0.0,0.0,0.0,0.0,0.0,0.0,0.0,0.0,0.0,0.0,0.0,0.0,0.0,0.0,0.0,0.0,0.0,0.0,0.0,0.0,0.0,0.0,0.0,0.0,0.0,0.0,0.0,0.0,0.0,0.0,0.0,0.0,0.0,0.0,0.0,0.0,0.0,0.0,0.0,0.0,0.0,0.0,0.0,0.0,0.0,0.0,0.0,0.0,0.0,0.0,0.0,0.0,0.0,0.0,0.0,0.0,0.0,0.0,0.0,0.0,0.0,0.0,0.0,0.0,0.0,0.0,0.0,0.0,0.0,0.0,0.0,0.0,0.0,0.0,0.0,0.0,0.0,0.0,0.0,0.0,0.0,0.0,0.0,0.0,0.0,0.0,0.0,0.0,0.0,0.0,0.0,0.0,0.0,-0.0082,0.0236,0.0,0.0524,0.0799,0.1121,0.1383,0.1411,0.114,0.0,0.0,0.0,0.0,0.0,0.0,0.0,0.0,0.0,0.0,0.0,0.0,0.0,0.0,0.0,0.0,0.0,0.0,0.0,0.0,0.0,0.0,0.0,0.0,0.0,0.0,0.0,0.0,0.0,0.0,0.0,0.0,0.0,0.0,0.0,0.0,0.0,0.0,0.0,0.0,0.0,0.0,0.0,0.0,0.0,0.0,0.0,0.0,0.0,0.0,0.0,0.0,0.0,0.0,0.0,0.0,0.0,0.0,0.0,0.0,0.0,0.0,0.0,0.0,0.0,0.0,0.0,0.0,0.0,0.0,0.0,0.0,0.0,0.0,0.0,0.0,0.0,0.0,0.0,0.0,0.0,0.0,0.0,0.0,0.0,0.0,0.0,0.0,0.0,0.0,0.0,0.0,0.0,0.0,0.0,0.0,0.0,0.0,0.0,0.0,0.0,0.0,-0.0481,-0.0041,0.03,0.0,0.0629,0.0916,0.1274,0.1456,0.1436,0.1152,0.0,0.0,0.0,0.0,0.0,0.0,0.0,0.0,0.0,0.0,0.0,0.0,0.0,0.0,0.0,0.0,0.0,0.0,0.0,0.0,0.0,0.0,0.0,0.0,0.0,0.0,0.0,0.0,0.0,0.0,0.0,0.0,0.0,0.0,0.0,0.0,0.0,0.0,0.0,0.0,0.0,0.0,0.0,0.0,0.0,0.0,0.0,0.0,0.0,0.0,0.0,0.0,0.0,0.0,0.0,0.0,0.0,0.0,0.0,0.0,0.0,0.0,0.0,0.0,0.0,0.0,0.0,0.0,0.0,0.0,0.0,0.0,0.0,0.0,0.0,0.0,0.0,0.0,0.0,0.0,0.0,0.0,0.0,0.0,0.0,0.0,0.0,0.0,0.0,0.0,0.0,0.0,0.0,0.0,0.0,0.0,0.0,0.0,0.0,0.0,0.0,0.0,-0.0421,0.0061,0.0428,0.0492,0.0741,0.1014,0.1283,0.1424,0.1361,0.0,0.0,0.0,0.0,0.0,0.0,0.0,0.0,0.0,0.0,0.0,0.0,0.0,0.0,0.0,0.0,0.0,0.0,0.0,0.0,0.0,0.0,0.0,0.0,0.0,0.0,0.0,0.0,0.0,0.0,0.0,0.0,0.0,0.0,0.0,0.0,0.0,0.0,0.0,0.0,0.0,0.0,0.0,0.0,0.0,0.0,0.0,0.0,0.0,0.0,0.0,0.0,0.0,0.0,0.0,0.0,0.0,0.0,0.0,0.0,0.0,0.0,0.0,0.0,0.0,0.0,0.0,0.0,0.0,0.0,0.0,0.0,0.0,0.0,0.0,0.0,0.0,0.0,0.0,0.0,0.0,0.0,0.0,0.0,0.0,0.0,0.0,0.0,0.0,0.0,0.0,0.0,0.0,0.0,0.0,0.0,0.0,0.0,0.0,0.0,0.0,0.0,0.0,-0.0147,0.0273,0.0565,0.0634,0.0799,0.1038,0.1341,0.1442,0.141,0.1224,0.0,0.0,0.0,0.0,0.0,0.0,0.0,0.0,0.0,0.0,0.0,0.0,0.0,0.0,0.0,0.0,0.0,0.0,0.0,0.0,0.0,0.0,0.0,0.0,0.0,0.0,0.0,0.0,0.0,0.0,0.0,0.0,0.0,0.0,0.0,0.0,0.0,0.0,0.0,0.0,0.0,0.0,0.0,0.0,0.0,0.0,0.0,0.0,0.0,0.0,0.0,0.0,0.0,0.0,0.0,0.0,0.0,0.0,0.0,0.0,0.0,0.0,0.0,0.0,0.0,0.0,0.0,0.0,0.0,0.0,0.0,0.0,0.0,0.0,0.0,0.0,0.0,0.0,0.0,0.0,0.0,0.0,0.0,0.0,0.0,0.0,0.0,0.0,0.0,0.0,0.0,0.0,0.0,0.0,0.0,0.0,0.0,0.0,0.0,0.0,0.0,0.0,0.0139,0.0518,0.0769,0.0823,0.0869,0.1021,0.1333,0.1418,0.1397,0.1227,0.0,0.0,0.0,0.0,0.0,0.0,0.0,0.0,0.0,0.0,0.0,0.0,0.0,0.0,0.0,0.0,0.0,0.0,0.0,0.0,0.0,0.0,0.0,0.0,0.0,0.0,0.0,0.0,0.0,0.0,0.0,0.0,0.0,0.0,0.0,0.0,0.0,0.0,0.0,0.0,0.0,0.0,0.0,0.0,0.0,0.0,0.0,0.0,0.0,0.0,0.0,0.0,0.0,0.0,0.0,0.0,0.0,0.0,0.0,0.0,0.0,0.0,0.0,0.0,0.0,0.0,0.0,0.0,0.0,0.0,0.0,0.0,0.0,0.0,0.0,0.0,0.0,0.0,0.0,0.0,0.0,0.0,0.0,0.0,0.0,0.0,0.0,0.0,0.0,0.0,0.0,0.0,0.0,0.0,0.0,0.0,0.0,0.0,0.0,0.0,0.0,0.0,0.0428,0.079,0.105,0.1061,0.0986,0.1048,0.1318,0.1383,0.1329,0.1139,0.0,0.0,0.0,0.0,0.0,0.0,0.0,0.0,0.0,0.0,0.0,0.0,0.0,0.0,0.0,0.0,0.0,0.0,0.0,0.0,0.0,0.0,0.0,0.0,0.0,0.0,0.0,0.0,0.0,0.0,0.0,0.0,0.0,0.0,0.0,0.0,0.0,0.0,0.0,0.0,0.0,0.0,0.0,0.0,0.0,0.0,0.0,0.0,0.0,0.0,0.0,0.0,0.0,0.0,0.0,0.0,0.0,0.0,0.0,0.0,-0.1599,0.0,0.0,0.0,0.0,0.0,0.0,0.0,0.0,0.0,0.0,0.0,0.0,0.0,0.0,0.0,0.0,0.0,0.0,0.0,0.0,0.0,0.0,0.0,0.0,0.0,0.0,0.0,0.0,0.0,0.0,0.0,0.0,0.0,0.0,0.0,0.0,0.0,0.0,0.0,0.0,0.0,0.0761,0.1154,0.1406,0.1457,0.131,0.133,0.1596,0.1527,0.1439,0.1345,0.1087,0.0,0.0,0.0,0.0,0.0,0.0,0.0,0.0,0.0,0.0,0.0,0.0,0.0,0.0,0.0,0.0,0.0,0.0,0.0,0.0,0.0,0.0,0.0,0.0,0.0,0.0,0.0,0.0,0.0,0.0,0.0,0.0,0.0,0.0,0.0,0.0,0.0,0.0,0.0,0.0,0.0,0.0,0.0,0.0,0.0,0.0,0.0,0.0,0.0,0.0,0.0,0.0,0.0,0.0,0.0,0.0,0.0,0.0,0.0,0.0,-0.1195,0.0,0.0,0.0,0.0,0.0,0.0,0.0,0.0,0.0,0.0,0.0,0.0,0.0,0.0,0.0,0.0,0.0,0.0,0.0,0.0,0.0,0.0,0.0,0.0,0.0,0.0,0.0,0.0,0.0,0.0,0.0,0.0,0.0,0.0,0.0,0.0,0.0,0.0,0.0,0.0,0.1049,0.1549,0.1873,0.1845,0.1713,0.1696,0.1839,0.178,0.1673,0.1502,0.1269,0.0,0.0,0.0,0.0,0.0,0.0,0.0,0.0,0.0,0.0,0.0,0.0,0.0,0.0,0.0,0.0,0.0,0.0,0.0,0.0,0.0,0.0,0.0,0.0,0.0,0.0,0.0,0.0,0.0,0.0,0.0,0.0,0.0,0.0,0.0,0.0,0.0,0.0,0.0,0.0,0.0,0.0,0.0,0.0,0.0,0.0,0.0,0.0,0.0,0.0,0.0,0.0,0.0,-0.035,-0.0387,-0.045,-0.0386,-0.0351,-0.0342,-0.0699,-0.0797,-0.068,-0.0699,0.0,0.0,0.0,0.0,0.0,0.0,0.0,0.0,0.0,0.0,0.0,0.0,0.0,0.0,0.0,0.0,0.0,0.0,0.0,0.0,0.0,0.0,0.0,0.0,0.0322,0.032,0.0,0.0,0.0,0.0,0.0,0.0,0.0,0.0,0.0,0.0,0.0,0.0,0.1388,0.1969,0.2325,0.2217,0.2131,0.209,0.2118,0.2086,0.1963,0.1699,0.1483,0.1321,0.0,0.0,0.0,0.0,0.0,0.0,0.0,0.0,0.0,0.0,0.0,0.0,0.0,0.0,0.0,0.0,0.0,0.0,0.0,0.0,0.0,0.0,0.0,0.0,0.0,0.0,0.0,0.0,0.0,0.0,0.0,0.0,-0.091,-0.1117,0.0,0.0,0.0,0.0,0.0,0.0,0.0,0.0,0.0,0.0,0.0,0.0,0.0,-0.0639,-0.0449,-0.0294,-0.0197,-0.0145,-0.0146,-0.0174,-0.0234,-0.0234,-0.012,0.0025,0.0098,0.0,-0.0175,-0.0021,0.0,0.0,0.0,0.0,0.0,0.0,0.0,0.0,0.0,0.0,0.0,0.0,0.0,0.0,0.0,0.0,0.0,0.0,0.0,0.0,0.0,0.0,0.0894,0.0812,0.0813,0.0826,0.0,0.0527,0.023,0.0131,0.0049,0.0,0.0,0.0,0.0,0.0,0.0,0.0,0.1859,0.2335,0.2646,0.263,0.251,0.2487,0.2603,0.2449,0.2263,0.2053,0.1791,0.1539,0.13,0.1275,0.0,0.0,0.0,0.0,0.0,0.0,0.0,0.0,0.0,0.0,0.0,0.0,0.0,0.0,0.0,0.0,0.0,0.0,0.0,0.0,0.0,0.0,0.0,0.0,0.0,0.0,0.0,0.0,0.0,-0.0588,-0.0635,-0.0795,-0.0813,-0.0824,0.0,0.0,0.0,0.0,0.0,0.0,0.0,0.0,0.0,-0.0622,-0.0372,-0.0163,0.0,0.0205,0.0329,0.0398,0.0455,0.0448,0.0419,0.0419,0.0475,0.0563,0.0602,0.0564,0.0458,0.0351,0.0022,-0.045,0.0,0.0,0.0,0.0,-0.0939,-0.0642,-0.0419,-0.033,-0.033,-0.033,0.0,0.0,0.0,0.0,0.0,0.0,0.0,0.0,0.0,0.0,0.0986,0.097,0.0961,0.0981,0.1085,0.105,0.093,0.0,0.0712,0.0663,0.0612,0.0,0.0,0.0,0.0,0.0,0.2472,0.2891,0.3122,0.3047,0.2944,0.2907,0.2924,0.2773,0.2583,0.2346,0.214,0.1933,0.1699,0.1689,0.156,0.0,0.0,0.0,0.0,0.0,0.0,0.0,0.0,0.0,0.0,0.0,0.0,0.0,0.0,0.0,0.0,0.0,0.0,0.0,0.0,0.0,0.0,0.0,0.0,0.0,0.0,0.0,0.0,-0.041,-0.036,-0.046,-0.0482,-0.049,0.0,0.0,0.0,0.0,0.0,0.0,-0.0396,-0.0421,-0.038,-0.028,0.0,0.0217,0.0385,0.0604,0.076,0.0819,0.0867,0.0896,0.0898,0.0898,0.0898,0.0899,0.0893,0.0894,0.0875,0.062,0.029,-0.0092,-0.0508,-0.0655,-0.0632,-0.0719,-0.0537,-0.0249,-0.0064,0.0,0.0,-0.0043,-0.0322,-0.0737,-0.103,0.0,0.0,0.0,0.0,-0.0425,0.0111,0.0602,0.0964,0.0954,0.0952,0.0996,0.1196,0.1392,0.1522,0.0,0.1352,0.1314,0.1308,0.0,0.0,0.0,0.0,0.2744,0.3016,0.3331,0.3505,0.3458,0.3395,0.3327,0.3277,0.3189,0.2987,0.2623,0.2513,0.2351,0.2108,0.2107,0.1973,0.1707,0.0,0.0,0.0,0.0,0.0,0.0,0.0,0.0,0.0,0.0,0.0,0.0,0.0,0.0,0.0,0.0,0.0,0.0,0.0,0.0,0.0,0.0,0.0,0.0,0.0,0.0,0.0,0.0,0.0,-0.0125,-0.0187,0.0,0.0,0.0,0.0,-0.0126,-0.0178,-0.0188,-0.0116,-0.0176,-0.013,0.0078,0.0225,0.0385,0.0583,0.0724,0.0817,0.0903,0.0905,0.0896,0.0898,0.0898,0.0898,0.0898,0.0899,0.0887,0.0909,0.0876,0.0668,0.035,0.0072,-0.0092,-0.0135,-0.007,0.0118,0.0381,0.0513,0.0552,0.0528,0.041,0.0053,-0.0399,-0.0798,-0.0973,0.0,0.0,-0.0538,-0.0104,0.0076,0.0513,0.0888,0.0832,0.08,0.09,0.1226,0.1492,0.1737,0.0,0.1762,0.1776,0.2096,0.0,0.2023,0.257,0.288,0.3159,0.3429,0.3548,0.367,0.3857,0.3814,0.377,0.377,0.3765,0.3502,0.2922,0.2873,0.2728,0.2395,0.2381,0.2344,0.2259,0.2263,0.0,0.0,0.0,0.0,0.0,0.0,0.0,0.0,0.0,0.0,0.0,0.0,0.0,0.0,0.0,0.0,0.0,0.0,0.0,0.0,0.0,0.0,0.0,0.0,0.0,0.0,0.0,0.0,0.0165,0.0168,0.0,0.0223,0.0193,0.0197,0.022,0.0283,0.033,0.0354,0.0365,0.0404,0.0493,0.0451,0.0471,0.0538,0.0545,0.0553,0.0578,0.0716,0.0766,0.0777,0.0896,0.0956,0.0956,0.0956,0.0962,0.0971,0.096,0.0844,0.064,0.035,0.0259,0.0276,0.0223,0.0351,0.0591,0.0607,0.0676,0.0745,0.0531,0.0196,-0.0168,-0.0419,-0.0618,-0.0678,-0.0336,-0.0028,0.03,0.0712,0.0942,0.1094,0.1107,0.1163,0.1273,0.1606,0.1997,0.2419,0.2833,0.2778,0.2753,0.3004,0.3057,0.3151,0.3434,0.3596,0.3728,0.3863,0.4207,0.4467,0.4543,0.4792,0.4813,0.4467,0.4479,0.4157,0.3341,0.3321,0.3182,0.2805,0.2832,0.2801,0.2689,0.2726,0.2695,0.0,0.0,0.0,0.0,0.0,0.0,0.0,0.0,0.0,0.0,0.0,0.0,0.0,0.0,0.0,0.0,0.0,0.0,0.0,0.0,0.0,0.0,0.0,0.0,0.0,0.0,0.0529,0.0532,0.0552,0.0587,0.0635,0.0603,0.058,0.0637,0.0743,0.0809,0.0841,0.0909,0.0931,0.0903,0.0807,0.0748,0.073,0.0715,0.0704,0.0742,0.0884,0.0939,0.0987,0.1173,0.1265,0.1265,0.1327,0.1365,0.1378,0.1378,0.134,0.1228,0.0758,0.0591,0.0632,0.053,0.0615,0.0747,0.0679,0.0787,0.0958,0.0808,0.0728,0.0678,0.0555,0.0406,0.0379,0.0682,0.0898,0.1095,0.1439,0.1545,0.1553,0.1637,0.1711,0.186,0.222,0.2634,0.3055,0.3559,0.3516,0.3491,0.3766,0.3774,0.3807,0.3953,0.3976,0.4066,0.4372,0.4728,0.5064,0.5347,0.5663,0.5636,0.5075,0.511,0.4723,0.3703,0.3738,0.3599,0.315,0.3175,0.3183,0.3133,0.3207,0.318,0.3066,0.0,0.0,0.0,0.0,0.0,0.0,0.0,0.0,0.0,0.0,0.0,0.0,0.0,0.0,0.0,0.0,0.0,0.0,0.0,0.0,0.0,0.0,0.0,0.0641,0.0734,0.0877,0.101,0.096,0.0978,0.1114,0.1012,0.0978,0.1114,0.1188,0.1251,0.1315,0.1376,0.1395,0.1344,0.1331,0.1312,0.1238,0.1309,0.1352,0.1415,0.1416,0.1469,0.1542,0.1729,0.1823,0.1854,0.204,0.2136,0.213,0.213,0.2166,0.2136,0.1286,0.0945,0.0942,0.0939,0.0917,0.0892,0.0855,0.0954,0.1144,0.1313,0.1683,0.2119,0.2116,0.2115,0.2112,0.2111,0.2156,0.2216,0.2216,0.2203,0.2255,0.2392,0.2466,0.2625,0.3033,0.3342,0.3632,0.3983,0.3957,0.3988,0.4335,0.4145,0.3963,0.4096,0.398,0.0,0.4904,0.5088,0.5468,0.6248,0.6418,0.623,0.5608,0.5673,0.5232,0.4015,0.4118,0.3985,0.3445,0.3419,0.3482,0.3612,0.3685,0.3488,0.3006,0.0,0.0,0.0,0.0,0.0,0.0,0.0,0.0,0.0,0.0,0.0,0.0,0.0,0.0,0.0,0.0,0.0,0.0,0.0,0.0,0.0,0.0,0.1204,0.1062,0.1238,0.14,0.1426,0.1512,0.1567,0.1602,0.1567,0.1567,0.1602,0.1587,0.1619,0.1722,0.1836,0.1971,0.2102,0.2091,0.2094,0.2064,0.1979,0.1922,0.1848,0.2074,0.213,0.2034,0.247,0.2659,0.2692,0.2819,0.2896,0.2884,0.2884,0.2898,0.2839,0.2081,0.1762,0.1752,0.1659,0.1432,0.1223,0.149,0.1672,0.1828,0.2182,0.253,0.2733,0.2681,0.2627,0.2541,0.2587,0.2528,0.2444,0.2589,0.2554,0.2548,0.2725,0.2813,0.3011,0.3509,0.4023,0.447,0.4853,0.5186,0.5208,0.4574,0.4476,0.4408,0.4195,0.4021,0.0,0.4846,0.5835,0.6645,0.7059,0.786,0.798,0.7029,0.6802,0.6185,0.4919,0.4897,0.4616,0.3933,0.3859,0.3835,0.3817,0.4072,0.3879,0.0,0.0,0.0,0.0,0.0,0.0,0.0,0.0,0.0,0.0,0.0,0.0,0.0,0.0,0.0,0.0,0.0,0.0,0.0,0.0,0.0,0.0,0.1439,0.1723,0.1705,0.1739,0.1814,0.1919,0.2011,0.207,0.2134,0.2077,0.2051,0.2051,0.2039,0.2069,0.2149,0.2387,0.2548,0.2609,0.2682,0.2704,0.2649,0.2609,0.2561,0.2494,0.2696,0.2779,0.2764,0.3148,0.3357,0.3424,0.3587,0.3651,0.3651,0.3651,0.3651,0.0,0.0,0.0,0.0,0.0,0.2279,0.2106,0.241,0.2686,0.2968,0.3349,0.3644,0.3888,0.3827,0.3673,0.3481,0.3489,0.3298,0.3152,0.325,0.3173,0.3161,0.3368,0.3494,0.3716,0.4124,0.4691,0.5198,0.5503,0.597,0.0,0.5297,0.5102,0.4943,0.4708,0.4461,0.4666,0.5604,0.6551,0.7382,0.8001,0.8659,0.8749,0.7983,0.75,0.0,0.0,0.0,0.4941,0.4179,0.4104,0.0,0.0,0.0,0.0,0.0,0.0,0.0,0.0,0.4372,0.508,0.0,0.0,0.0,0.0,0.0,0.0,0.0,0.0,0.0,0.0,0.0,0.0,0.0,0.0,0.0,0.0,0.1859,0.2273,0.2452,0.226,0.2185,0.2422,0.2477,0.2538,0.2667,0.2564,0.2491,0.2506,0.253,0.2553,0.2581,0.0,0.0,0.0,0.0,0.3284,0.3175,0.3219,0.3262,0.3302,0.3318,0.342,0.3614,0.382,0.3979,0.4125,0.4323,0.442,0.442,0.442,0.442,0.4342,0.3614,0.3315,0.3275,0.3272,0.3197,0.3149,0.3354,0.0,0.0,0.4447,0.4775,0.5063,0.5067,0.4846,0.458,0.4443,0.4231,0.4009,0.3939,0.3884,0.3862,0.4095,0.4273,0.4485,0.4816,0.5347,0.5828,0.597,0.6509,0.6764,0.6272,0.5872,0.556,0.5376,0.515,0.5477,0.6801,0.7247,0.7873,0.8964,0.0,0.0,0.8627,0.7954,0.7501,0.7366,0.6254,0.5258,0.4479,0.4436,0.4436,0.4436,0.4717,0.4893,0.4965,0.5963,0.6409,0.6344,0.5723,0.6429,0.0,0.0,0.0,0.0,0.0,0.0,0.0,0.0,0.0,0.0,0.0,0.0,0.0,0.0,0.0,0.1869,0.2177,0.249,0.2837,0.279,0.2737,0.2792,0.2893,0.3021,0.3147,0.305,0.303,0.3192,0.2974,0.292,0.313,0.3481,0.3703,0.3775,0.4078,0.4228,0.42,0.4226,0.4144,0.4011,0.0,0.0,0.4246,0.4538,0.4756,0.4891,0.509,0.5193,0.5193,0.5193,0.5193,0.5123,0.4361,0.3966,0.3759,0.3631,0.3485,0.3368,0.3575,0.3878,0.4235,0.4432,0.467,0.4837,0.4777,0.471,0.0,0.456,0.4357,0.4154,0.4147,0.4011,0.3967,0.4276,0.4366,0.4574,0.5161,0.5803,0.6328,0.652,0.7151,0.7494,0.6861,0.6514,0.6153,0.5698,0.5679,0.6119,0.7249,0.7937,0.8633,0.9412,0.9882,0.9833,0.9135,0.8735,0.8292,0.7732,0.7172,0.6593,0.5996,0.5922,0.5896,0.5896,0.5894,0.6122,0.655,0.7085,0.7775,0.8591,0.8658,0.9001,0.0,0.0,0.0,0.0,0.0,0.0,0.0,0.0,0.0,0.0,0.0,0.1044,0.1172,0.0,0.1863,0.2192,0.2469,0.2745,0.302,0.2964,0.2946,0.3091,0.3152,0.3273,0.3428,0.3303,0.3246,0.3344,0.3192,0.3209,0.3431,0.3744,0.395,0.4102,0.4348,0.4491,0.4491,0.4491,0.4436,0.4356,0.4384,0.4458,0.4568,0.4787,0.4987,0.5117,0.5325,0.5395,0.5395,0.5395,0.5395,0.5362,0.499,0.4716,0.4493,0.43,0.4278,0.4332,0.4412,0.464,0.4865,0.4961,0.497,0.4952,0.4926,0.4818,0.4762,0.4762,0.4664,0.4559,0.4625,0.4561,0.4561,0.4797,0.491,0.5057,0.5491,0.6109,0.6648,0.6995,0.7591,0.7905,0.7435,0.7321,0.705,0.631,0.6315,0.6716,0.763,0.8125,0.8726,0.9557,0.9834,0.9957,0.9962,0.9714,0.9072,0.7971,0.7828,0.7496,0.6831,0.6709,0.668,0.6755,0.6712,0.6981,0.7543,0.8218,0.8972,0.9839,1.1117,1.1648,0.0,0.0,0.0,0.0,0.0,0.0,0.0,0.0,0.1368,0.1324,0.1456,0.1594,0.163,0.1962,0.2306,0.2478,0.274,0.2978,0.3178,0.3097,0.3119,0.342,0.3368,0.3387,0.3587,0.3418,0.3319,0.335,0.335,0.3438,0.3634,0.39,0.4095,0.419,0.4389,0.4491,0.4491,0.4491,0.4491,0.4491,0.444,0.4513,0.4701,0.4819,0.4942,0.5066,0.525,0.5365,0.5395,0.5426,0.544,0.5443,0.5437,0.5312,0.5131,0.4882,0.493,0.5117,0.509,0.5185,0.5349,0.5334,0.5167,0.4985,0.5027,0.4989,0.4958,0.5009,0.5011,0.5028,0.5146,0.5167,0.516,0.5311,0.5411,0.5561,0.586,0.6411,0.6977,0.738,0.7955,0.8237,0.7878,0.7988,0.7808,0.6922,0.6929,0.7269,0.7982,0.8195,0.8626,0.954,0.9537,0.9744,1.0417,1.0339,0.9724,0.8487,0.8604,0.8395,0.7673,0.7536,0.7514,0.7635,0.7635,0.7947,0.8605,0.9517,1.0243,1.0835,1.2912,1.3717,0.1059,0.1078,0.0,0.1241,0.1275,0.1306,0.0,0.0,0.1671,0.1724,0.1799,0.1906,0.2095,0.2262,0.2504,0.2869,0.2911,0.3071,0.3566,0.3523,0.3576,0.3973,0.3581,0.3387,0.3587,0.3418,0.3363,0.3544,0.3576,0.3615,0.3761,0.4031,0.4177,0.4197,0.4389,0.4491,0.4491,0.4491,0.4491,0.4491,0.448,0.4558,0.4694,0.4724,0.4786,0.4921,0.5063,0.5233,0.5405,0.5542,0.5562,0.5576,0.5496,0.5474,0.5406,0.4953,0.4792,0.4745,0.4634,0.4712,0.4835,0.4687,0.4598,0.4588,0.4785,0.4944,0.5155,0.5456,0.5472,0.5422,0.5454,0.535,0.5317,0.5444,0.5486,0.5659,0.6211,0.6895,0.7471,0.7723,0.8373,0.8704,0.8004,0.8012,0.7884,0.7234,0.7301,0.7659,0.8282,0.8474,0.8788,0.9368,0.943,0.9465,0.9628,0.993,1.0056,0.9877,0.9897,0.9715,0.9256,0.9174,0.9148,0.9148,0.9148,0.9575,1.0397,1.1226,1.1815,1.2204,1.3544,1.4236,0.1491,0.0,0.0,0.0,0.1944,0.2072,0.2132,0.2277,0.2384,0.2339,0.2414,0.2491,0.2546,0.2692,0.2864,0.0,0.3108,0.33,0.3749,0.3869,0.4033,0.4352,0.4358,0.4234,0.3928,0.3669,0.3606,0.3808,0.3749,0.3805,0.4018,0.4153,0.426,0.4368,0.4457,0.4491,0.4491,0.4491,0.4491,0.4491,0.4491,0.4525,0.459,0.465,0.4775,0.4894,0.5036,0.5137,0.5247,0.5491,0.5589,0.5603,0.5642,0.5591,0.5434,0.5073,0.4935,0.4885,0.469,0.4679,0.4711,0.4646,0.4634,0.472,0.485,0.5102,0.5374,0.5637,0.5742,0.5811,0.5935,0.5921,0.588,0.5958,0.5958,0.6108,0.6585,0.72,0.7762,0.8147,0.8657,0.8926,0.8457,0.8212,0.7962,0.7597,0.7589,0.7748,0.8113,0.8292,0.8594,0.9219,0.9816,1.0178,1.0206,1.0744,1.0978,1.0693,1.0755,1.0577,1.0048,0.9963,0.9925,0.9925,1.0038,1.0551,1.1467,1.2193,1.2829,1.3433,1.5117,1.6065,0.1909,0.0,0.0,0.2294,0.2463,0.2607,0.2621,0.2775,0.2872,0.2778,0.2825,0.2904,0.2878,0.2993,0.0,0.3229,0.3311,0.3558,0.4069,0.4287,0.4527,0.4856,0.5123,0.5062,0.4543,0.4143,0.3931,0.3961,0.3945,0.3971,0.4123,0.4237,0.4355,0.4487,0.4491,0.4491,0.4491,0.4491,0.4491,0.4491,0.4491,0.4491,0.4494,0.4604,0.4711,0.4863,0.4978,0.5086,0.5216,0.5521,0.5674,0.5725,0.5871,0.5858,0.5678,0.531,0.5138,0.5027,0.479,0.469,0.469,0.469,0.4772,0.4894,0.5024,0.5294,0.5636,0.5811,0.5982,0.6118,0.6272,0.63,0.63,0.63,0.63,0.6412,0.6868,0.7555,0.8157,0.8588,0.9041,0.9229,0.889,0.8465,0.8143,0.7986,0.7931,0.7933,0.8,0.8193,0.8551,0.9097,1.0103,1.075,1.0732,1.1527,1.1816,1.1327,1.1511,1.1379,1.0823,1.0825,1.0775,1.0636,1.0963,1.1473,1.2169,1.2976,1.3809,1.4636,1.6303,1.7545,0.0,0.0,0.25,0.2568,0.259,0.2621,0.268,0.2804,0.2903,0.2891,0.29,0.2937,0.3072,0.3044,0.3129,0.3517,0.3586,0.387,0.4656,0.4833,0.5065,0.5604,0.568,0.5631,0.0,0.4861,0.4306,0.3924,0.4084,0.4123,0.4008,0.4327,0.4484,0.4491,0.4491,0.4491,0.4491,0.4491,0.4491,0.4491,0.4491,0.4491,0.4491,0.4494,0.4583,0.4707,0.486,0.5087,0.5409,0.5674,0.5881,0.5993,0.6224,0.6286,0.6209,0.5741,0.535,0.4987,0.4765,0.469,0.469,0.469,0.4834,0.5015,0.5156,0.5463,0.5834,0.5952,0.6139,0.6293,0.6296,0.63,0.63,0.63,0.63,0.6451,0.7069,0.7965,0.8734,0.9039,0.9548,0.9804,0.9279,0.8744,0.8384,0.8372,0.844,0.8357,0.8041,0.8411,0.8765,0.8992,1.0141,1.0876,1.0793,1.1898,1.2346,1.1806,1.2215,1.2257,1.1783,1.2069,1.1995,1.147,1.21,1.2493,1.258,1.3792,1.4863,1.5856,1.6626,1.8085,0.0,0.0,0.2774,0.2788,0.2891,0.2998,0.3029,0.3062,0.3107,0.3103,0.2997,0.2937,0.3072,0.3191,0.3341,0.3567,0.4002,0.4492,0.4935,0.5434,0.5874,0.612,0.6367,0.0,0.0,0.0,0.0,0.4763,0.4704,0.4733,0.4862,0.4895,0.4904,0.4904,0.4715,0.4632,0.4632,0.4546,0.4491,0.4491,0.4605,0.4713,0.4837,0.4926,0.5046,0.5183,0.5451,0.5625,0.5759,0.6147,0.6279,0.6227,0.6423,0.6412,0.6261,0.5906,0.5787,0.5624,0.4995,0.4719,0.4703,0.4746,0.5032,0.5346,0.5434,0.5759,0.6141,0.6183,0.6259,0.63,0.63,0.63,0.63,0.63,0.63,0.649,0.7253,0.8275,0.9165,0.9403,0.9959,1.0279,0.987,0.9209,0.8784,0.8969,0.8799,0.8635,0.8663,0.8926,0.9179,0.9379,1.051,1.132,1.1571,1.2431,1.2767,1.2362,1.2594,1.2497,1.1894,1.2267,1.2383,1.2173,1.2688,1.3227,1.3792,1.4953,1.5944,1.6774,1.8107,1.9431,0.0,0.307,0.3014,0.3014,0.3107,0.3192,0.3192,0.3143,0.3111,0.3147,0.2993,0.2886,0.3097,0.3259,0.3499,0.3922,0.4442,0.4979,0.5504,0.5995,0.6377,0.656,0.6766,0.0,0.0,0.0,0.0,0.538,0.5425,0.5474,0.5556,0.5571,0.5504,0.5344,0.5069,0.4877,0.4767,0.4601,0.4518,0.4573,0.4741,0.4994,0.535,0.55,0.5747,0.6117,0.6379,0.6581,0.6733,0.6973,0.6917,0.6716,0.6712,0.6525,0.6261,0.6099,0.6194,0.6295,0.5484,0.519,0.5212,0.5269,0.5578,0.5901,0.5957,0.6215,0.6525,0.6525,0.6525,0.6528,0.6606,0.6606,0.6644,0.6721,0.6718,0.6949,0.7748,0.877,0.9575,0.9791,1.0224,1.0523,1.0204,0.9665,0.9371,0.9712,0.9417,0.9188,0.9208,0.9408,0.9701,1.0051,1.107,1.1867,1.22,1.2888,1.3075,1.2486,1.2923,1.2902,1.2281,1.2883,1.314,1.2936,1.3519,1.4174,1.4908,1.5979,1.7018,1.8092,1.9268,2.0516,0.3638,0.3466,0.3192,0.3192,0.3192,0.3192,0.3179,0.3034,0.2923,0.3046,0.285,0.2774,0.0,0.0,0.3614,0.455,0.4891,0.5359,0.6277,0.6477,0.6611,0.0,0.0,0.0,0.0,0.0,0.0,0.587,0.0,0.6328,0.6097,0.6303,0.6253,0.5855,0.55,0.5199,0.4924,0.4653,0.4594,0.472,0.4944,0.5383,0.6039,0.6203,0.6708,0.7474,0.7593,0.788,0.8236,0.8029,0.778,0.7484,0.7096,0.6676,0.6338,0.6338,0.6654,0.6976,0.6273,0.6114,0.6204,0.6273,0.6479,0.6676,0.6676,0.6826,0.6976,0.6976,0.6976,0.7019,0.7219,0.7296,0.7334,0.7522,0.7599,0.7825,0.8585,0.9372,1.0014,1.0172,1.0403,1.0537,1.0336,1.0086,1.0098,1.0569,1.0286,0.9932,0.9667,0.9863,1.0281,1.095,1.1785,1.2393,1.2616,1.3281,1.3292,1.2342,1.3172,1.3477,1.2955,1.3881,1.4199,1.3762,1.4519,1.5243,1.581,1.6794,1.8075,1.9601,2.0088,2.1361,0.3761,0.35,0.3192,0.3192,0.3192,0.3155,0.3018,0.2823,0.2683,0.2716,0.2476,0.2409,0.0,0.0,0.0,0.4568,0.528,0.0,0.6413,0.6714,0.0,0.0,0.0,0.7029,0.7137,0.7319,0.0,0.0,0.7115,0.6972,0.71,0.6993,0.6837,0.663,0.5991,0.5586,0.5426,0.5011,0.4899,0.5064,0.5493,0.5977,0.655,0.7166,0.7705,0.8164,0.8483,0.8709,0.8793,0.8757,0.842,0.7931,0.7668,0.7246,0.6788,0.7099,0.7447,0.7824,0.7957,0.7731,0.7455,0.7563,0.7774,0.7927,0.7927,0.8084,0.8241,0.8241,0.8241,0.8241,0.8322,0.8432,0.8546,0.8623,0.8732,0.8998,0.948,1.0115,1.0526,1.0452,1.0467,1.0444,1.0265,1.0242,1.0454,1.0967,1.0706,1.037,1.0157,1.0215,1.0538,1.1165,1.1859,1.2529,1.3073,1.3388,1.3488,1.3335,1.3554,1.3641,1.351,1.4169,1.4514,1.4461,1.5095,1.5635,1.61,1.7634,1.8728,1.9423,2.1175,2.2672,0.4197,0.3808,0.3426,0.3426,0.3357,0.3234,0.3067,0.2783,0.2552,0.256,0.2312,0.0,0.0,0.0,0.0,0.0,0.0,0.0,0.6461,0.6713,0.688,0.0,0.7,0.0,0.7152,0.7495,0.7767,0.0,0.7829,0.7803,0.7889,0.7809,0.7589,0.7273,0.6848,0.6452,0.6044,0.5789,0.5742,0.5902,0.6367,0.6981,0.7678,0.8232,0.8806,0.9423,0.0,0.9798,0.9907,0.9739,0.9339,0.8846,0.858,0.8161,0.7744,0.805,0.847,0.8922,0.9231,0.9328,0.9236,0.8765,0.8689,0.8799,0.8799,0.8879,0.896,0.896,0.896,0.9003,0.9084,0.9236,0.942,0.9496,0.9685,0.9981,1.0464,1.0907,1.1162,1.1096,1.0977,1.0905,1.0904,1.0742,1.0827,1.1431,1.1035,1.0669,1.0564,1.0603,1.0912,1.1665,1.2131,1.2603,1.3176,1.333,1.343,1.353,1.3758,1.4021,1.4227,1.4723,1.5044,1.5173,1.5517,1.5923,1.6414,1.7845,1.8887,1.9615,2.16,2.3206,0.4816,0.4302,0.3761,0.3716,0.3584,0.3402,0.3208,0.2816,0.2474,0.2452,0.0,0.0,0.2594,0.0,0.3451,0.44,0.0,0.5455,0.6353,0.654,0.668,0.6913,0.6946,0.6973,0.7053,0.7435,0.7747,0.7959,0.8382,0.858,0.8448,0.8547,0.8309,0.7696,0.766,0.733,0.6653,0.6658,0.675,0.693,0.7368,0.8058,0.8897,0.9175,0.9788,1.0635,1.0707,1.09,1.1074,1.07,1.0293,0.9916,0.9528,0.915,0.8813,0.9041,0.9458,0.996,1.0218,1.0625,1.0925,0.9863,0.9523,0.9523,0.9523,0.9523,0.9523,0.9523,0.9523,0.9566,0.9765,0.996,1.018,1.0368,1.0556,1.0887,1.1446,1.1749,1.1912,1.2013,1.1775,1.1663,1.1875,1.1357,1.1145,1.1832,1.1287,1.0822,1.0881,1.0952,1.1333,1.2214,1.2456,1.2741,1.317,1.3366,1.3476,1.3476,1.4041,1.4577,1.4987,1.5426,1.5731,1.5879,1.5967,1.6234,1.6744,1.7761,1.8819,1.9982,2.1654,2.332,0.541,0.4748,0.4055,0.3837,0.376,0.3588,0.3078,0.2669,0.0,0.0,0.0,0.1921,0.2441,0.2672,0.0,0.4176,0.0,0.0,0.0,0.0,0.6607,0.0,0.0,0.0,0.0,0.0,0.0,0.0,0.0,0.8752,0.8725,0.8659,0.8282,0.7568,0.7414,0.7225,0.6937,0.6943,0.7144,0.7552,0.7907,0.8328,0.8842,0.9593,1.0107,1.0382,1.0852,0.0,1.1074,1.085,1.0519,1.0105,0.9879,0.9533,0.9226,0.9614,0.9916,1.0218,1.0556,1.085,1.1074,1.085,1.0775,1.0775,1.0775,1.0775,1.0775,1.0775,1.0775,1.0812,1.0812,1.1111,1.1409,1.1446,1.1706,1.2077,1.2342,1.2719,1.3021,1.3115,1.2789,1.2499,1.2545,1.1717,1.1299,1.1953,1.1338,1.0822,1.0881,1.124,1.1685,1.2245,1.2618,1.3068,1.3629,1.4052,1.4331,1.4453,1.5028,1.5445,1.5636,1.6201,1.6425,1.6303,1.6785,1.7018,1.696,1.8001,1.9092,2.0193,2.1798,2.3522,0.5491,0.4996,0.4483,0.4347,0.412,0.3803,0.3411,0.0,0.0,0.0,0.0,0.2065,0.2432,0.0,0.0,0.0,0.0,0.0,0.0,0.0,0.0,0.0,0.0,0.0,0.0,0.0,0.0,0.0,0.0,0.8883,0.8804,0.8659,0.8512,0.8291,0.8015,0.796,0.8149,0.8155,0.8351,0.8738,0.9027,0.9322,0.9655,1.0152,1.0475,1.0698,1.0979,0.0,1.1074,1.0999,1.085,1.0663,1.055,1.04,1.0244,1.0438,1.0588,1.07,1.0887,1.1037,1.1087,1.1065,1.1052,1.1052,1.1052,1.0991,1.0952,1.0952,1.1024,1.1089,1.1089,1.1381,1.166,1.166,1.2092,1.2551,1.2769,1.3195,1.3581,1.3683,1.3571,1.3362,1.32,1.2635,1.2161,1.2111,1.1593,1.1148,1.0931,1.1509,1.212,1.2576,1.277,1.331,1.4337,1.4399,1.4622,1.519,1.57,1.6179,1.6669,1.7063,1.7247,1.7169,1.7316,1.7177,1.6679,1.7731,1.8625,1.9429,2.1413,2.3272,0.5574,0.524,0.4906,0.4865,0.4458,0.402,0.3781,0.324,0.0,0.0,0.0,0.0,0.0,0.0,0.0,0.0,0.0,0.0,0.0,0.0,0.0,0.0,0.0,0.0,0.0,0.0,0.0,0.0,0.0,0.0,0.8857,0.8765,0.8791,0.8953,0.8677,0.8778,0.9311,0.9318,0.9498,0.9889,1.0046,1.0226,1.045,1.0659,1.0861,1.1045,1.1193,0.0,1.1223,1.1223,1.1223,1.1223,1.1223,1.1223,1.1223,1.1223,1.1223,1.1211,1.1156,1.1138,1.1132,1.1078,1.1064,1.1102,1.1081,1.1045,1.1005,1.1073,1.1211,1.1382,1.1423,1.1737,1.2053,1.2087,1.2521,1.3016,1.3318,1.3762,1.4147,1.4376,1.4407,1.4279,1.4019,1.3568,1.3017,1.236,1.1881,1.1436,1.0962,1.1623,1.2348,1.2843,1.2987,1.3535,1.4749,1.4629,1.4852,1.5737,1.6299,1.6912,1.7611,1.7949,1.8086,1.7954,1.7854,1.7488,1.6856,1.774,1.8547,1.9308,2.1236,2.3091,0.6045,0.5695,0.5286,0.5047,0.4678,0.4264,0.3878,0.0,0.0,0.0,0.2746,0.2697,0.2842,0.0,0.0,0.0,0.0,0.0,0.0,0.0,0.0,0.0,0.0,0.0,0.0,0.0,0.0,0.0,0.0,0.0,0.8982,0.908,0.9041,0.8818,0.8897,0.9167,0.9644,0.965,0.993,1.0521,1.0548,1.0575,1.0589,1.1102,1.123,1.111,1.1695,0.0,0.0,1.1632,1.1632,1.1632,1.1632,1.1632,1.1632,1.1632,1.1632,1.1594,1.1384,1.1295,1.128,1.1272,1.1357,1.1414,1.1294,1.1471,1.1751,1.1921,1.2091,1.2226,1.2395,1.2983,1.3554,1.3735,1.3697,1.3793,1.4493,1.4802,1.5131,1.5723,1.5535,1.5272,1.5257,1.4201,1.327,1.287,1.213,1.1436,1.0962,1.1363,1.1985,1.2812,1.3276,1.3752,1.4324,1.4825,1.5384,1.6019,1.7005,1.7699,1.8038,1.8821,1.888,1.8097,1.8539,1.8625,1.8318,1.8775,1.9831,2.1427,2.196,2.3371,0.5562,0.5363,0.5091,0.4781,0.4421,0.4108,0.391,0.0,0.0,0.31,0.3004,0.2971,0.3068,0.3063,0.0,0.0,0.0,0.0,0.0,0.0,0.0,0.0,0.0,0.0,0.0,0.0,0.0,0.0,0.0,0.0,0.9614,0.9413,0.9316,0.929,0.9413,0.9902,1.0779,1.0787,1.1115,1.1748,1.1748,1.1748,1.1771,1.2171,1.2267,1.2106,1.2541,0.0,0.0,1.2415,1.2415,1.2415,1.2415,1.2415,1.2415,1.2415,1.2415,1.2368,1.2072,1.197,1.1925,1.1742,1.1933,1.2145,1.1791,1.1785,1.1926,1.2022,1.2215,1.2439,1.2503,1.2916,1.33,1.3373,1.3585,1.3862,1.4245,1.4762,1.5266,1.5584,1.5742,1.5733,1.5456,1.4819,1.414,1.3431,1.2793,1.2141,1.1475,1.2048,1.2582,1.2828,1.305,1.37,1.5028,1.5248,1.5764,1.6814,1.762,1.8306,1.8871,1.9357,1.9271,1.8474,1.9183,1.9264,1.8673,1.9488,2.0614,2.201,2.2679,2.3963,0.5103,0.5068,0.4983,0.4643,0.4276,0.3985,0.0,0.0,0.3345,0.3304,0.3245,0.3234,0.3283,0.333,0.3423,0.0,0.0,0.0,0.0,0.0,0.0,0.0,0.0,0.0,0.0,0.0,0.0,0.0,0.0,0.0,1.0456,1.0105,0.9847,0.971,0.995,1.0568,1.162,1.1628,1.1973,1.2665,1.2665,1.2665,1.2658,1.2946,1.3017,1.2946,1.3251,0.0,0.0,1.3258,1.3258,1.3258,1.3258,1.3258,1.3258,1.3258,1.3165,1.3035,1.2677,1.2505,1.2382,1.2163,1.2393,1.2743,1.2449,1.2414,1.2474,1.2505,1.2758,1.3066,1.3227,1.3353,1.3467,1.3639,1.3869,1.4121,1.4359,1.4854,1.5323,1.5555,1.5874,1.6012,1.5751,1.5413,1.4883,1.3962,1.3447,1.287,1.2047,1.2605,1.3097,1.3139,1.3433,1.4185,1.5605,1.5725,1.6286,1.7572,1.8278,1.8883,1.9475,1.985,1.9747,1.9105,1.9813,2.0007,1.9533,2.059,2.1715,2.2906,2.3747,2.4882,0.4868,0.5001,0.5125,0.4777,0.435,0.4,0.0,0.3739,0.3495,0.3495,0.3495,0.3495,0.3495,0.3495,0.3603,0.3934,0.0,0.0,0.0,0.0,0.0,0.0,0.0,0.0,0.0,0.0,0.0,0.0,0.0,0.0,1.1477,1.1217,1.0753,1.0012,1.0446,1.1086,1.1899,1.1899,1.227,1.2978,1.2978,1.2978,1.2986,1.3201,1.3364,1.3484,0.0,0.0,0.0,1.4093,1.4093,1.4093,1.4093,1.4093,1.4093,1.4093,1.3836,1.3458,1.3115,1.2795,1.2508,1.2476,1.272,1.3047,1.339,1.348,1.3541,1.3739,1.4019,1.4388,1.493,1.4769,1.4607,1.5155,1.4993,1.4824,1.5264,1.5381,1.5526,1.5999,1.6114,1.6153,1.6363,1.5991,1.537,1.4438,1.4007,1.3485,1.2594,1.2785,1.3243,1.3924,1.4763,1.5417,1.5767,1.6221,1.7008,1.8209,1.8987,1.9512,1.9773,2.0308,2.0398,1.9991,2.0435,2.0896,2.1279,2.2265,2.3368,2.4499,2.5239,2.6226,0.4483,0.4529,0.4506,0.417,0.3906,0.3728,0.3728,0.3602,0.3495,0.3495,0.3495,0.3517,0.3556,0.3566,0.3744,0.4257,0.0,0.0,0.0,0.0,0.0,0.0,0.0,0.0,0.0,0.0,0.0,0.0,0.0,0.0,1.1653,1.1653,1.1418,1.0905,1.1116,1.1766,1.2858,1.2867,1.3258,1.404,1.404,1.404,1.4028,1.4223,1.4271,0.0,0.0,0.0,0.0,1.5168,1.5267,1.5267,1.5267,1.5267,1.5234,1.4959,1.4759,1.456,1.3909,1.3597,1.3512,1.3425,1.3348,1.3362,1.39,1.395,1.3881,1.4079,1.4207,1.4363,1.4611,1.4657,1.4664,1.4853,1.5046,1.5206,1.5381,1.5642,1.5902,1.6085,1.621,1.6345,1.6374,1.5814,1.5279,1.5068,1.4572,1.4029,1.3576,1.4059,1.448,1.4596,1.5237,1.5925,1.656,1.7301,1.8153,1.9139,1.9579,2.0155,2.0927,2.134,2.1577,2.165,2.2564,2.3073,2.3161,2.406,2.505,2.6083,2.688,2.7579,0.0,0.4225,0.4231,0.3922,0.3762,0.3671,0.3671,0.3605,0.3541,0.3541,0.352,0.352,0.3591,0.3643,0.3865,0.4449,0.0,0.0,0.0,0.0,0.0,0.0,0.0,0.0,0.0,0.0,0.0,0.0,0.0,0.0,1.2076,1.2101,1.2002,1.1753,1.1703,1.2107,1.3048,1.3213,1.3626,1.4277,1.4433,1.4515,1.4494,1.4572,1.4608,0.0,0.0,0.0,0.0,1.5696,1.5913,1.6079,1.6009,1.5982,1.593,1.5549,1.5357,1.5181,1.4513,1.4262,1.4158,1.4081,1.4028,1.4079,1.4562,1.4467,1.4228,1.4407,1.4437,1.4533,1.484,1.4876,1.4871,1.515,1.5321,1.5439,1.5613,1.5884,1.6114,1.621,1.6306,1.635,1.6174,1.5775,1.5463,1.5347,1.509,1.4855,1.4639,1.5146,1.5516,1.5505,1.6117,1.6751,1.7358,1.7982,1.8697,1.9535,2.0079,2.0833,2.1796,2.218,2.2579,2.3036,2.3939,2.4422,2.4499,2.5438,2.6333,2.7276,2.7807,2.8317,0.0,0.409,0.4222,0.3964,0.3856,0.38,0.3808,0.3699,0.0,0.3601,0.3563,0.3531,0.3612,0.3762,0.4048,0.4599,0.0,0.0,0.0,0.0,0.0,0.0,0.0,0.0,0.0,0.0,0.0,0.0,0.0,0.0,1.27,1.2603,1.2529,1.2529,1.2175,1.2209,1.2715,1.3084,1.3488,1.3911,1.4286,1.4478,1.4515,1.4357,1.4478,0.0,0.0,1.5149,1.5978,1.5856,1.614,1.6673,1.6446,1.6332,1.6253,1.5819,1.5569,1.5373,1.4988,1.4751,1.4608,1.458,1.4815,1.5167,1.5381,1.505,1.4595,1.4715,1.4784,1.4965,1.5503,1.5411,1.5349,1.5977,1.5811,1.5624,1.6028,1.6114,1.6181,1.6374,1.6402,1.6257,1.579,1.5873,1.5843,1.5339,1.557,1.5765,1.5647,1.601,1.6318,1.6522,1.7228,1.779,1.8057,1.8332,1.8819,1.9601,2.049,2.1459,2.2487,2.2898,2.3487,2.4314,2.4842,2.5223,2.5494,2.6402,2.7252,2.798,2.8137,2.8542,0.397,0.0,0.4047,0.3933,0.389,0.3866,0.0,0.3699,0.3612,0.0,0.0,0.0,0.0,0.0,0.0,0.0,0.0,0.0,0.0,0.0,0.0,0.0,0.0,0.0,0.0,0.0,0.0,0.0,0.0,1.3021,1.2856,1.2871,1.2871,1.2808,1.27,1.2769,1.2999,1.3008,1.3365,1.4053,1.4041,1.4194,1.4515,1.4485,1.4328,0.0,0.0,1.5452,1.597,1.6552,1.7029,1.7394,1.6871,1.6533,1.6233,1.5611,1.5532,1.5671,1.5355,1.541,1.5554,1.5443,1.5751,1.6118,1.5981,1.5592,1.5216,1.5235,1.5585,1.6048,1.6186,1.6557,1.685,1.6538,1.6576,1.6591,1.6185,1.621,1.6345,1.6374,1.6477,1.6434,1.6006,1.6024,1.6014,1.5839,1.5892,1.6001,1.6129,1.6488,1.6812,1.701,1.7337,1.7646,1.7921,1.8658,1.9436,2.0251,2.0696,2.1779,2.3702,2.407,2.4922,2.6356,2.6871,2.7151,2.72,2.735,2.755,2.7855,2.8253,2.8669,0.4176,0.4094,0.3998,0.396,0.3921,0.389,0.3856,0.0,0.0,0.0,0.0,0.0,0.0,0.0,0.0,0.0,0.0,0.0,0.0,0.0,0.0,0.0,0.0,0.0,0.0,0.0,0.0,0.0,0.0,1.304,1.3214,1.332,1.3406,1.3549,1.3549,1.3383,1.3013,1.3129,1.3392,1.3822,1.393,1.4204,1.4581,1.4335,1.4232,0.0,0.0,1.5147,1.584,1.631,1.6826,1.7298,1.6869,1.6565,1.6272,1.5813,1.5872,1.6177,1.5995,1.6179,1.6497,1.6477,1.6674,1.689,1.6841,1.6674,1.6467,1.6483,1.675,1.7188,1.7756,1.7954,1.7922,1.757,1.732,1.703,1.637,1.6316,1.6413,1.6413,1.6563,1.662,1.6364,1.6573,1.6823,1.6896,1.6796,1.6798,1.7095,1.7144,1.7261,1.7455,1.7679,1.8024,1.8541,1.9176,1.9797,2.0426,2.0946,2.2098,2.4028,2.4379,2.5173,2.6574,2.6774,2.691,2.6959,2.7197,2.7279,2.7222,2.7946,2.8525,0.4423,0.4299,0.4125,0.4073,0.4022,0.3973,0.3963,0.0,0.0,0.0,0.0,0.0,0.0,0.0,0.0,0.0,0.0,0.0,0.0,0.0,0.0,0.0,0.0,0.0,0.0,0.0,0.0,0.0,0.0,1.3086,1.3637,1.3834,1.4069,1.434,1.4363,1.3978,1.3176,1.3472,1.364,1.3709,1.4014,1.4382,1.4759,1.4287,1.4233,1.4533,0.0,0.0,1.5656,1.5833,1.6337,1.6935,1.6758,1.6602,1.6449,1.6225,1.6417,1.681,1.6846,1.7118,1.7506,1.7628,1.7683,1.771,1.7859,1.7913,1.7944,1.8189,1.817,1.835,1.9516,1.9432,1.8984,1.8796,1.8156,1.7429,1.6772,1.6597,1.6516,1.6516,1.6761,1.6954,1.6846,1.7347,1.7812,1.8026,1.7768,1.7696,1.8044,1.7755,1.7632,1.7841,1.8095,1.8556,1.9287,1.9669,2.0059,2.0514,2.1305,2.2438,2.4045,2.4474,2.5115,2.6001,2.5909,2.5932,2.6085,2.6664,2.6796,2.6572,2.7526,2.8275,0.4625,0.4705,0.4695,0.4403,0.433,0.4311,0.4252,0.0,0.0,0.0,0.0,0.0,0.0,0.0,0.0,0.0,0.0,0.0,0.0,0.0,0.0,0.0,0.0,0.0,0.0,0.0,0.0,0.0,0.0,1.359,1.3922,1.428,1.4535,1.464,1.464,1.4571,1.4433,1.4193,1.4262,1.4595,1.4559,1.4741,1.5112,1.4908,1.4625,1.4282,0.0,1.497,1.5315,1.6095,1.669,1.7138,1.7108,1.6979,1.6817,1.6725,1.6928,1.7395,1.812,1.8513,1.8762,1.8883,1.891,1.891,1.8815,1.8801,1.903,2.0036,1.9907,1.9565,2.0209,2.0672,2.0791,2.009,1.9392,1.8692,1.7926,1.7437,1.7155,1.7088,1.744,1.7657,1.7491,1.8003,1.8425,1.8361,1.8045,1.7908,1.8079,1.7845,1.7788,1.8089,1.8392,1.8711,1.9118,1.9759,2.0474,2.1199,2.1886,2.3,2.4605,2.547,2.6009,2.6161,2.6161,2.6214,2.6416,2.6576,2.6723,2.6859,2.7517,2.8216,0.4798,0.4801,0.4715,0.4856,0.4774,0.4655,0.4635,0.0,0.0,0.0,0.0,0.0,0.0,0.0,0.0,0.0,0.0,0.0,0.0,0.0,0.0,0.0,0.0,0.0,0.0,0.0,0.0,0.0,0.0,0.0,1.4549,1.4846,1.5108,1.5389,1.5389,1.5445,1.5524,1.5288,1.5028,1.4739,1.4681,1.4871,1.5289,1.4867,1.4672,1.462,0.0,1.4899,1.5293,1.588,1.6423,1.6929,1.7002,1.7086,1.7213,1.7584,1.8054,1.8566,1.9097,1.9462,1.9668,1.9708,1.9695,1.9618,1.9474,1.937,1.955,2.0695,2.066,2.0534,2.1554,2.1889,2.177,2.1,2.0496,1.9863,1.8811,1.8414,1.8215,1.7943,1.8224,1.8519,1.8652,1.9054,1.9422,1.96,1.9227,1.8816,1.8584,1.8369,1.8269,1.8341,1.8669,1.917,1.9895,2.0611,2.1282,2.1954,2.2733,2.3488,2.424,2.4807,2.512,2.512,2.512,2.525,2.5476,2.6004,2.6241,2.6206,2.7026,2.7889,0.4856,0.4809,0.4691,0.5123,0.0,0.4991,0.4991,0.0,0.0,0.0,0.0,0.0,0.0,0.0,0.0,0.0,0.0,0.0,0.0,0.0,0.0,0.0,0.0,0.0,0.0,0.0,0.0,0.0,0.0,0.0,1.5163,1.5356,1.5637,1.5988,1.6044,1.61,1.62,1.61,1.5702,1.5005,1.496,1.5142,1.5494,1.4957,1.4851,1.5102,1.4842,1.4968,1.5398,1.5784,1.6191,1.6651,1.7021,1.7486,1.8011,1.8658,1.924,1.9734,2.0016,2.0283,2.0498,2.0666,2.0563,2.0308,2.0297,2.0079,2.0037,2.1114,2.1228,2.1289,2.2563,2.2726,2.236,2.1831,2.1332,2.073,1.9738,1.9333,1.9065,1.8768,1.8975,1.9328,1.9831,2.0028,2.0284,2.0807,2.0257,1.959,1.8989,1.8785,1.8659,1.8512,1.886,1.9606,2.0833,2.1395,2.1998,2.2706,2.3383,2.3739,2.3739,2.4003,2.4145,2.4145,2.4055,2.4148,2.4436,2.5076,2.5413,2.547,2.6321,2.7369,0.4678,0.48,0.4893,0.4996,0.5143,0.0,0.5272,0.5272,0.0,0.0,0.0,0.0,0.0,0.0,0.0,0.0,0.0,0.0,0.0,0.0,0.0,0.0,0.0,0.0,0.0,0.0,0.0,0.0,0.0,0.0,1.5533,1.5812,1.5979,1.5988,1.6122,1.6188,1.62,1.6188,1.61,1.5901,1.578,1.5738,1.5773,1.566,1.5549,1.5471,1.5435,1.548,1.5618,1.6079,1.6279,1.6445,1.7573,1.8597,1.95,1.9914,2.0258,2.0585,2.0968,2.1202,2.1432,2.2119,2.1866,2.1367,2.1668,2.1179,2.0757,2.1767,2.1843,2.1816,2.2683,2.2878,2.2805,2.2659,2.1783,2.0925,2.0722,1.9992,1.9352,1.9342,1.9552,1.9974,2.0687,2.0617,2.0693,2.1342,2.0505,1.959,1.8989,1.8785,1.8659,1.8512,1.886,1.9781,2.1476,2.1665,2.2218,2.3445,2.3565,2.3595,2.3595,2.3861,2.4003,2.4003,2.36,2.3561,2.3948,2.3717,2.4086,2.5037,2.543,2.6722,0.5157,0.5108,0.5043,0.5406,0.5586,0.0,0.0,0.6011,0.0,0.0,0.0,0.0,0.0,0.0,0.0,0.0,0.0,0.0,0.0,0.0,0.0,0.0,0.0,0.0,0.0,0.0,0.0,0.0,0.0,0.0,1.6309,1.6315,1.6306,1.6262,1.6297,1.634,1.6392,1.6392,1.6466,1.6612,1.6328,1.6197,1.6241,1.612,1.6054,1.5998,1.6098,1.6185,1.6293,1.6582,1.6789,1.7106,1.8398,1.9207,1.9758,2.0454,2.0858,2.1142,2.1468,2.1674,2.189,2.263,2.2623,2.2363,2.2424,2.2054,2.162,2.1747,2.1805,2.1998,2.2832,2.3017,2.306,2.3133,2.2531,2.1866,2.1652,2.108,2.0512,2.0259,2.0283,2.054,2.1172,2.1173,2.1329,2.1982,2.1368,2.0531,1.959,1.9337,1.9076,1.8613,1.9587,2.0715,2.1801,2.2269,2.2894,2.38,2.3696,2.3653,2.3717,2.3903,2.4024,2.4124,2.3994,2.414,2.459,2.4671,2.5017,2.5631,2.6344,2.7405,0.5349,0.5232,0.5128,0.0,0.0,0.0,0.6551,0.6591,0.0,0.0,0.0,0.0,0.0,0.0,0.0,0.0,0.0,0.0,0.0,0.0,0.0,0.0,0.0,0.0,0.0,0.0,0.0,0.0,0.0,0.0,0.0,1.6271,1.6106,1.5994,1.6028,1.6069,1.609,1.6304,1.6589,1.6898,1.6865,1.6829,1.6816,1.6706,1.6685,1.6685,1.6816,1.6964,1.711,1.7206,1.7483,1.7937,1.8888,1.9574,2.012,2.0819,2.1329,2.1746,2.1973,2.2137,2.2395,2.3344,2.3447,2.3265,2.3639,2.3286,2.2719,2.243,2.2336,2.2452,2.3048,2.3198,2.319,2.3145,2.275,2.2291,2.1932,2.1471,2.103,2.0752,2.0699,2.0923,2.1668,2.1642,2.1773,2.2545,2.1995,2.1159,2.0253,1.9837,1.9429,1.8912,2.0143,2.1265,2.1933,2.2601,2.3289,2.3958,2.3839,2.367,2.3559,2.3876,2.3996,2.3866,2.4148,2.4528,2.5005,2.5329,2.5763,2.6301,2.698,2.7892,0.5108,0.5116,0.514,0.0,0.0,0.0,0.0,0.0,0.0,0.0,0.0,0.0,0.0,0.0,0.0,0.0,0.0,0.0,0.0,0.0,0.0,0.0,0.0,0.0,0.0,0.0,0.0,0.0,0.0,0.0,0.0,1.5591,1.5391,1.512,1.5241,1.5273,1.521,1.5925,1.6448,1.6709,1.7443,1.7693,1.7517,1.7517,1.7517,1.7504,1.7646,1.7808,1.7988,1.7988,1.8324,1.8794,1.8878,1.9669,2.0818,2.1086,2.1719,2.2402,2.2555,2.2689,2.302,2.4356,2.4375,2.4138,2.5425,2.4951,2.4024,2.4,2.3616,2.3241,2.3357,2.339,2.3251,2.2638,2.2278,2.1947,2.1405,2.099,2.0699,2.0699,2.0699,2.1053,2.2204,2.189,2.1904,2.3039,2.2256,2.138,2.0967,2.0217,1.9649,1.943,2.0374,2.128,2.1968,2.2636,2.3305,2.3958,2.4003,2.37,2.3046,2.3773,2.3866,2.3122,2.3902,2.4544,2.5001,2.5346,2.6002,2.691,2.7064,2.7935,0.5703,0.5803,0.0,0.0,0.0,0.0,0.0,0.0,0.0,0.0,0.0,0.0,0.0,0.0,0.0,0.0,0.0,0.0,0.0,0.0,0.0,0.0,0.0,0.0,0.0,0.0,0.0,0.0,0.0,0.0,0.0,1.6253,1.6001,1.575,1.5726,1.5708,1.5689,1.6005,1.6525,1.7268,1.758,1.7824,1.7996,1.7996,1.7996,1.7996,1.8082,1.8201,1.8347,1.8347,1.8458,1.8633,1.9078,1.9544,2.0063,2.1102,2.163,2.1924,2.2532,2.2772,2.2962,2.3873,2.4355,2.466,2.5009,2.4973,2.4695,2.3934,2.3717,2.3534,2.2852,2.3059,2.3319,2.2951,2.2177,2.1522,2.1446,2.1067,2.0699,2.0699,2.0699,2.1053,2.2204,2.2243,2.2663,2.4233,2.3585,2.2578,2.1651,2.0904,2.0573,2.0843,2.192,2.2701,2.2915,2.3544,2.3999,2.4198,2.4213,2.4101,2.3855,2.4074,2.4116,2.3948,2.465,2.5222,2.5708,2.6615,2.7254,2.7699,2.8388,2.8966,0.5812,0.0,0.0,0.0,0.0,0.0,0.0,0.0,0.0,0.0,0.0,0.0,0.0,0.0,0.0,0.0,0.0,0.0,0.0,0.0,0.0,0.0,0.0,0.0,0.0,0.0,0.0,0.0,0.0,0.0,0.0,1.6038,1.5789,1.5538,1.5486,1.5421,1.5352,1.5733,1.6243,1.6867,1.7263,1.7572,1.7824,1.8336,1.8562,1.8562,1.8592,1.8649,1.8736,1.8736,1.8736,1.8764,1.9154,1.9492,1.9895,2.0696,2.132,2.183,2.2307,2.2647,2.2964,2.3734,2.4238,2.4684,2.5204,2.5387,2.5329,2.4836,2.4444,2.4069,2.3353,2.3058,2.2856,2.2489,2.1914,2.1394,2.1224,2.1106,2.1027,2.1027,2.1197,2.1655,2.257,2.2714,2.3252,2.4829,2.4469,2.3581,2.2401,2.1863,2.1676,2.1897,2.2747,2.3302,2.3302,2.3917,2.4302,2.4302,2.4302,2.4317,2.4312,2.4271,2.4255,2.4302,2.5256,2.6113,2.6846,2.7981,2.8635,2.8895,2.9844,3.0278,0.0,0.0,0.0,0.0,0.0,0.0,0.0,0.0,0.0,0.0,0.0,0.0,0.0,0.0,0.0,0.0,0.0,0.0,0.0,0.0,0.0,0.0,0.0,0.0,0.0,0.0,0.0,0.0,0.0,0.0,0.0,1.5283,1.5117,1.4872,1.4856,1.4779,1.4596,1.531,1.5764,1.5949,1.6682,1.7086,1.7226,1.8462,1.9043,1.9101,1.9101,1.9101,1.9101,1.9101,1.9101,1.9101,1.9101,1.9478,2.0016,2.0074,2.0828,2.1844,2.196,2.2367,2.2962,2.3739,2.4057,2.4344,2.5629,2.5887,2.5796,2.6086,2.5434,2.4615,2.4347,2.3274,2.2115,2.1602,2.1563,2.1482,2.0907,2.1171,2.1538,2.1616,2.2086,2.2663,2.3263,2.3367,2.3817,2.514,2.5114,2.4502,2.3325,2.3055,2.2929,2.2814,2.3148,2.3394,2.3394,2.3948,2.4302,2.4302,2.4302,2.4359,2.4498,2.44,2.4323,2.4359,2.5737,2.6987,2.8066,2.9263,2.9979,3.0269,3.1212,3.1651,0.0,0.0,0.0,0.0,0.0,0.0,0.0,0.0,0.0,0.0,0.0,0.0,0.0,0.0,0.0,0.0,0.0,0.0,0.0,0.0,0.0,0.0,0.0,0.0,0.0,0.0,0.0,0.0,0.0,0.0,1.5683,1.5566,1.5492,1.5433,1.5388,1.5329,1.5285,1.54,1.5734,1.6288,1.6356,1.6673,1.7229,1.8027,1.8651,1.9101,1.9101,1.9101,1.9101,1.9101,1.9101,1.9101,1.9101,1.9188,1.9377,1.9914,2.0277,2.0654,2.1641,2.2156,2.2462,2.3105,2.3714,2.4246,2.4549,2.4872,2.5179,2.5123,2.4791,2.4289,2.3568,2.2984,2.2358,2.1488,2.1208,2.1162,2.1302,2.142,2.1746,2.2647,2.2949,2.3367,2.4442,2.4702,2.513,2.6132,2.6196,2.5885,2.5242,2.4676,2.4261,2.4179,2.4116,2.4087,2.4087,2.4225,2.4302,2.4302,2.4302,2.4385,2.4569,2.4549,2.4569,2.4701,2.6136,2.7153,2.7775,2.9344,3.0295,3.0605,3.15,3.1976,0.0,0.0,0.0,0.0,0.0,0.0,0.0,0.0,0.0,0.0,0.0,0.0,0.0,0.0,0.0,0.0,0.0,0.0,0.0,0.0,0.0,0.0,0.0,0.0,0.0,0.0,0.0,0.0,0.0,1.5799,1.5799,1.5741,1.5668,1.5595,1.5624,1.561,1.5551,1.5507,1.5669,1.5977,1.587,1.6128,1.6748,1.7751,1.8375,1.8695,1.897,1.9101,1.9101,1.9101,1.9101,1.9101,1.9157,1.9195,1.9238,1.9607,1.9963,2.0377,2.1372,2.1955,2.235,2.3062,2.3555,2.3925,2.4282,2.4591,2.4846,2.5109,2.4752,2.4192,2.3892,2.3312,2.2655,2.2152,2.1709,2.1438,2.1498,2.1996,2.2746,2.3698,2.4167,2.4702,2.5738,2.6324,2.6755,2.7037,2.7083,2.6976,2.665,2.5888,2.5316,2.5151,2.4935,2.4656,2.4333,2.4302,2.4302,2.4302,2.4359,2.4482,2.4686,2.4871,2.5148,2.5512,2.6397,2.7356,2.8421,2.9473,3.0301,3.0969,3.2225,3.2835,0.0,0.0,0.0,0.0,0.0,0.0,0.0,0.0,0.0,0.0,0.0,0.0,0.0,0.0,0.0,0.0,0.0,0.0,0.0,0.0,0.0,0.0,0.0,0.0,0.0,0.0,0.0,0.0,0.0,1.5799,1.5799,1.5799,1.5755,1.5639,1.5755,1.5784,1.5696,1.5682,1.5653,1.5595,1.5477,1.5651,1.6114,1.7466,1.8117,1.8245,1.884,1.9101,1.9101,1.9101,1.9101,1.9139,1.9265,1.9321,1.9321,1.9376,1.9752,2.0346,2.1123,2.1727,2.2315,2.3213,2.3509,2.362,2.4238,2.4403,2.4522,2.5037,2.4634,2.4054,2.4287,2.3688,2.2997,2.2948,2.2616,2.2192,2.1852,2.2706,2.3811,2.4782,2.5743,2.6617,2.733,2.8041,2.8396,2.7988,2.7962,2.7911,2.7603,2.6846,2.6179,2.5776,2.546,2.5019,2.4364,2.4302,2.4302,2.4338,2.4436,2.462,2.4842,2.5243,2.5709,2.6281,2.6633,2.7587,2.9138,2.9549,3.0275,3.1283,3.2804,3.3516,0.0,0.0,0.0,0.0,0.0,0.0,0.0,0.0,0.0,0.0,0.0,0.0,0.0,0.0,0.0,0.0,0.0,0.0,0.0,0.0,0.0,0.0,0.0,0.0,0.0,0.0,0.0,0.0,1.541,1.5799,1.5799,1.5799,1.5784,1.577,1.5842,1.5955,1.612,1.601,1.5968,1.6025,1.5653,1.5522,1.5639,1.6993,1.7819,1.8245,1.884,1.9101,1.9101,1.9101,1.9157,1.9284,1.9302,1.9339,1.9395,1.9395,1.9454,1.9704,2.0976,2.1493,2.1806,2.3086,2.3538,2.3603,2.3699,2.3679,2.3636,2.3622,2.3652,2.3583,2.3293,2.3351,2.3444,2.3226,2.3486,2.3662,2.3099,2.3342,2.4234,2.6126,2.7991,2.932,2.9541,2.9795,2.9774,2.9333,2.9232,2.8957,2.8054,2.751,2.6892,2.5976,2.5542,2.5019,2.4364,2.4302,2.4359,2.4477,2.4498,2.4666,2.5048,2.5438,2.5824,2.6195,2.6932,2.7813,2.8873,2.9606,3.0484,3.1477,3.2352,3.2804,0.0,0.0,0.0,0.0,0.0,0.0,0.0,0.0,0.0,0.0,0.0,0.0,0.0,0.0,0.0,0.0,0.0,0.0,0.0,0.0,0.0,0.0,0.0,0.0,0.0,0.0,0.0,0.0,1.5365,1.597,1.597,1.597,1.5927,1.5871,1.5956,1.6095,1.6244,1.6205,1.6151,1.6095,1.574,1.5566,1.5595,1.6509,1.7271,1.7863,1.8826,1.9265,1.9265,1.9265,1.9302,1.9358,1.9446,1.9501,1.952,1.9545,1.9578,1.9756,2.1094,2.1575,2.1844,2.3127,2.3588,2.367,2.4059,2.4045,2.3917,2.4048,2.3966,2.379,2.3604,2.3724,2.3945,2.4164,2.4545,2.4833,2.4764,2.4806,2.5425,2.7483,2.9213,3.0419,3.0673,3.0792,3.0661,3.0129,2.9731,2.9212,2.8494,2.8015,2.7448,2.6709,2.6206,2.5626,2.4933,2.4533,2.4359,2.4498,2.4539,2.4746,2.5201,2.5586,2.5956,2.6242,2.6822,2.7535,2.8351,2.924,3.0099,3.0978,3.2198,3.2805,0.0,0.0,0.0,0.0,0.0,0.0,0.0,0.0,0.0,0.0,0.0,0.0,0.0,0.0,0.0,0.0,0.0,0.0,0.0,0.0,0.0,0.0,0.0,0.0,0.0,0.0,0.0,0.0,1.5384,1.6207,1.6246,1.6191,1.6109,1.5984,1.6067,1.622,1.6367,1.6434,1.638,1.622,1.5897,1.5725,1.5712,1.6291,1.6822,1.7369,1.8602,1.9233,1.9395,1.9395,1.9413,1.9465,1.9556,1.9611,1.9629,1.9672,1.9708,1.9887,2.1216,2.1695,2.1904,2.3191,2.3595,2.3684,2.4186,2.4275,2.4229,2.4413,2.4387,2.4261,2.4163,2.4327,2.4627,2.512,2.5425,2.5728,2.6053,2.6363,2.7027,2.8615,3.0129,3.1248,3.1481,3.1567,3.1384,3.082,3.0307,2.9716,2.8979,2.8566,2.8067,2.7332,2.6734,2.6087,2.5358,2.4835,2.4626,2.4787,2.4849,2.5094,2.557,2.5812,2.6145,2.6631,2.7012,2.7589,2.8322,2.9059,2.9884,3.0847,3.2074,3.2628,0.0,0.0,0.0,0.0,0.0,0.0,0.0,0.0,0.0,0.0,0.0,0.0,0.0,0.0,0.0,0.0,0.0,0.0,0.0,0.0,0.0,0.0,0.0,0.0,0.0,0.0,0.0,0.0,1.5591,1.6477,1.6657,1.649,1.6328,1.619,1.6193,1.6316,1.6583,1.6841,1.6828,1.657,1.6299,1.6093,1.5998,1.6473,1.6711,1.6815,1.7946,1.8806,1.9395,1.9395,1.9483,1.9593,1.9593,1.9632,1.9708,1.9708,1.9708,1.9887,2.1216,2.1695,2.1904,2.3191,2.3595,2.361,2.364,2.3911,2.4141,2.39,2.4472,2.5043,2.4595,2.5051,2.566,2.5839,2.6069,2.6283,2.6443,2.7759,2.9062,2.9478,3.093,3.2135,3.2135,3.2259,3.2112,3.1463,3.1324,3.0832,2.9531,2.9331,2.8833,2.7534,2.6795,2.6087,2.5358,2.5266,2.5358,2.5612,2.5644,2.5874,2.6426,2.6148,2.6467,2.7508,2.7878,2.8425,2.9246,2.9351,3.0212,3.1731,3.1817,3.1852,0.0,0.0,0.0,0.0,0.0,0.0,0.0,0.0,0.0,0.0,0.0,0.0,0.0,0.0,0.0,0.0,0.0,0.0,0.0,0.0,0.0,0.0,0.0,0.0,0.0,0.0,0.0,0.0,0.0,1.6815,1.6892,1.6773,1.6581,1.6272,1.6355,1.6474,1.6657,1.6892,1.6866,1.661,1.6328,1.6151,1.6067,1.6197,1.6516,1.7015,1.7895,1.8519,1.8968,1.9417,1.9617,1.9654,1.9654,1.9672,1.9708,1.9708,1.9708,1.9828,2.0737,2.1335,2.1844,2.2733,2.3266,2.3684,2.4096,2.4215,2.4326,2.498,2.5261,2.54,2.5455,2.5844,2.6297,2.6657,2.7074,2.7397,2.7448,2.8487,2.9547,2.991,3.1192,3.2219,3.2315,3.237,3.2167,3.1516,3.1409,3.0905,2.9556,2.9487,2.9181,2.8278,2.762,2.7131,2.6867,2.6448,2.6287,2.6453,2.6469,2.6667,2.713,2.7232,2.7564,2.8183,2.8553,2.8919,2.9297,2.9848,3.04,3.0986,3.2023,3.2507,0.3766,0.0,0.0,0.0,0.0,0.0,0.0,0.0,0.0,0.0,0.0,0.0,0.0,0.0,0.0,0.0,0.0,0.0,0.0,0.0,0.0,0.0,0.0,0.0,0.0,0.0,0.0,0.0,0.0,0.0,1.6855,1.6946,1.6825,1.6448,1.6541,1.6644,1.6773,1.6964,1.693,1.6659,1.6398,1.6234,1.6207,1.615,1.6439,1.6986,1.8002,1.8593,1.8933,1.9615,1.9869,1.9833,1.9815,1.9762,1.9726,1.9708,1.9708,1.9813,2.0483,2.1141,2.1799,2.2478,2.3122,2.3729,2.4395,2.4602,2.4817,2.5806,2.6086,2.6104,2.6273,2.6508,2.6841,2.7244,2.768,2.8005,2.8054,2.9026,2.9951,3.023,3.1355,3.2302,3.2398,3.2398,3.2244,3.1782,3.1747,3.1362,3.0279,3.0201,3.0039,2.9406,2.8778,2.8311,2.8077,2.7663,2.7364,2.724,2.7444,2.7731,2.8121,2.8422,2.8751,2.9164,2.9555,2.9852,3.0031,3.0363,3.064,3.0969,3.2298,3.3199,0.0,0.0,0.0,0.0,0.0,0.0,0.0,0.0,0.0,0.0,0.0,0.0,0.0,0.0,0.0,0.0,0.0,0.0,0.0,0.0,0.0,0.0,0.0,0.0,0.0,0.0,0.0,0.0,1.5461,1.6392,1.6588,1.6964,1.7043,1.6722,1.6763,1.6841,1.6901,1.7089,1.7068,1.6789,1.653,1.6412,1.6412,1.6412,1.6479,1.6733,1.8247,1.9011,1.9284,2.0027,2.0237,2.01,2.0043,1.9937,1.9797,1.9726,1.9708,1.9798,2.0453,2.1126,2.1819,2.2463,2.3122,2.3744,2.4395,2.4984,2.5569,2.6223,2.6787,2.7137,2.6993,2.7086,2.7284,2.7549,2.7815,2.8029,2.8162,2.9357,3.0402,3.0402,3.149,3.2398,3.2398,3.2398,3.2398,3.2398,3.2398,3.2206,3.1665,3.1599,3.1415,3.0869,3.0223,2.9576,2.8912,2.8826,2.8576,2.7969,2.8559,2.9075,2.9418,2.9653,3.0006,3.0522,3.0861,3.1179,3.1498,3.0876,3.1003,3.1852,3.261,3.3859,0.512,0.0,0.0,0.0,0.0,0.0,0.0,0.0,0.0,0.0,0.0,0.0,0.0,0.0,0.0,0.0,0.0,0.0,0.0,0.0,0.0,0.0,0.0,0.0,0.0,0.0,0.0,0.0,1.5673,1.6545,1.6599,1.6799,1.6895,1.685,1.6714,1.6714,1.6834,1.693,1.685,1.6581,1.6423,1.6328,1.6328,1.6369,1.6759,1.7456,1.8502,1.9285,1.983,2.0527,2.073,2.0595,2.0444,2.0273,2.0131,1.9869,1.9762,1.9792,1.9987,2.0817,2.1813,2.2088,2.3292,2.4638,2.4835,2.5327,2.5968,2.6656,2.6925,2.7133,2.758,2.774,2.7806,2.788,2.8014,2.8137,2.8186,2.9357,3.0402,3.0402,3.149,3.2398,3.2398,3.2398,3.2398,3.2398,3.248,3.2303,3.1677,3.1768,3.1659,3.1005,3.0885,3.0541,2.9872,2.9809,2.9509,2.88,2.9438,2.9974,3.0247,3.1036,3.1393,3.13,3.1769,3.1837,3.1498,3.1996,3.2367,3.2628,3.4051,3.5235,0.0,0.0,0.0,0.0,0.0,0.0,0.0,0.6952,0.0,0.0,0.0,0.0,0.0,0.0,0.0,0.0,0.0,0.0,0.0,0.0,0.0,0.0,0.0,0.0,0.0,1.3584,1.3879,1.3915,1.5341,1.6404,1.6909,1.6902,1.6882,1.6863,1.6688,1.6636,1.6717,1.6766,1.6672,1.6463,1.6315,1.6303,1.6342,1.6733,1.7218,1.7811,1.9004,1.972,2.0138,2.0829,2.0991,2.0778,2.0596,2.041,2.0252,1.9922,1.9848,1.9884,1.9815,2.0707,2.1901,2.1974,2.3365,2.5052,2.5325,2.5887,2.6556,2.7239,2.7413,2.7528,2.7972,2.8029,2.8005,2.8079,2.8137,2.821,2.8259,2.9383,3.0402,3.0402,3.149,3.2398,3.2398,3.2398,3.2425,3.248,3.2551,3.2509,3.2255,3.2363,3.2337,3.2006,3.2025,3.1808,3.1137,3.1074,3.0749,3.0014,3.067,3.1196,3.1478,3.2409,3.2782,3.2508,3.2997,3.3209,3.3134,3.3024,3.3327,3.4006,3.4983,3.5856,0.779,0.7867,0.0,0.0,0.0,0.0,0.7301,0.7363,0.0,0.0,0.0,0.0,0.0,0.0,0.0,0.0,0.0,0.0,0.0,0.0,0.0,0.0,0.0,0.0,1.3269,1.3336,1.3379,1.3388,1.474,1.608,1.7214,1.7081,1.6917,1.6776,1.6649,1.6583,1.6583,1.6583,1.6517,1.6398,1.6263,1.6277,1.6414,1.7209,1.7697,1.7964,1.9495,2.0183,2.0327,2.0971,2.1071,2.0795,2.0611,2.0443,2.0287,1.994,1.9919,2.0005,1.9959,2.0857,2.2028,2.2124,2.3513,2.5278,2.5857,2.6557,2.7287,2.7862,2.8005,2.8054,2.8162,2.8128,2.8079,2.8186,2.8272,2.8382,2.8495,2.9556,3.0509,3.0509,3.1536,3.2398,3.2398,3.2398,3.2453,3.2578,3.2621,3.2757,3.3043,3.3096,3.3176,3.3282,3.3309,3.305,3.238,3.2342,3.201,3.1193,3.1861,3.2335,3.2537,3.3501,3.3949,3.3736,3.4145,3.4711,3.5396,3.4027,3.4154,3.564,3.564,3.6065,0.915,0.9212,0.9131,0.0,0.0,0.0,0.0,0.802,0.0,0.0,0.0,0.0,0.0,0.0,0.0,0.0,0.0,0.0,0.0,0.0,0.0,0.0,0.0,0.0,1.2435,1.2916,1.3252,1.332,1.4646,1.5721,1.6405,1.6702,1.6776,1.6649,1.6503,1.6436,1.6436,1.6436,1.6396,1.6328,1.6234,1.6234,1.633,1.7099,1.7808,1.8489,1.9403,2.0131,2.0686,2.0845,2.091,2.0942,2.0795,2.0628,2.0426,2.015,2.0063,2.0157,2.0673,2.1423,2.2255,2.2854,2.4439,2.6128,2.6213,2.7126,2.813,2.8155,2.8162,2.8162,2.8186,2.8275,2.8339,2.8348,2.8762,2.9162,2.9187,3.0258,3.1197,3.1197,3.1844,3.2398,3.2398,3.2398,3.2453,3.2578,3.2746,3.2897,3.3085,3.3203,3.3282,3.3309,3.3309,3.3077,3.2492,3.2554,3.211,3.0885,3.1589,3.1884,3.1521,3.3017,3.3703,3.3309,3.3881,3.4596,3.5479,3.5166,3.5533,3.6475,3.6521,3.6631,0.9541,0.9597,0.9455,0.8897,0.0,0.0,0.0,0.0,0.0,0.0,0.0,0.0,0.0,0.0,0.0,0.0,0.0,0.0,0.0,0.0,0.0,0.0,0.0,0.0,1.1006,1.1663,1.2414,1.3133,1.4162,1.5153,1.6054,1.6472,1.6649,1.6503,1.6371,1.6289,1.6289,1.6289,1.6275,1.6248,1.6222,1.6207,1.6279,1.7342,1.8021,1.8454,1.9528,2.0215,2.0544,2.0544,2.0595,2.0647,2.0662,2.0561,2.0424,2.0185,2.015,2.0292,2.0898,2.1605,2.2367,2.3067,2.4687,2.6349,2.6311,2.7187,2.8177,2.8128,2.8039,2.8014,2.8079,2.8201,2.8299,2.8299,2.887,2.9387,2.9387,3.0443,3.1409,3.1409,3.199,3.248,3.2425,3.2398,3.248,3.2718,3.2843,3.2978,3.3176,3.3256,3.3309,3.3309,3.3309,3.3245,3.3112,3.3267,3.2999,3.2059,3.2523,3.26,3.2067,3.3362,3.4302,3.4746,3.5177,3.5627,3.611,3.6212,3.6464,3.6846,3.6888,3.6908,0.0,0.0,0.0,0.0,0.0,0.8654,0.0,0.0,0.0,0.0,0.0,0.0,0.0,0.0,0.0,0.0,0.0,0.0,0.0,0.0,0.0,0.0,0.0,0.0,0.9805,1.053,1.1442,1.2564,1.3401,1.4368,1.5482,1.6063,1.6362,1.6382,1.6262,1.6194,1.6194,1.6194,1.6194,1.6194,1.6194,1.6194,1.624,1.7592,1.8191,1.8284,1.9702,2.0304,2.0304,2.0304,2.0304,2.0304,2.0409,2.0441,2.0371,2.0202,2.0202,2.041,2.1087,2.1768,2.2459,2.3379,2.4979,2.6526,2.6642,2.7244,2.789,2.7865,2.7725,2.7625,2.779,2.8056,2.8295,2.8345,2.9097,2.9797,2.9797,3.0735,3.1609,3.1636,3.2153,3.2578,3.2453,3.2453,3.2594,3.2897,3.2924,3.3032,3.3282,3.3309,3.3309,3.3335,3.3346,3.3503,3.3797,3.4101,3.3974,3.3283,3.3489,3.3317,3.2612,3.3719,3.4981,3.6364,3.6585,3.6705,3.6705,3.6928,3.7009,3.7007,3.7007,3.7007,0.0,0.0,0.0,0.0,0.8751,0.0,0.0,0.0,0.0,0.0,0.0,0.0,0.0,0.0,0.0,0.0,0.0,0.0,0.0,0.0,0.0,0.0,0.0,0.0,0.0,1.0477,1.095,1.1055,1.2284,1.3271,1.3845,1.4924,1.5773,1.6284,1.6234,1.6194,1.6194,1.6194,1.6194,1.6194,1.6194,1.6194,1.624,1.7592,1.8191,1.8284,1.9702,2.0304,2.0304,2.0371,2.0354,2.0304,2.0321,2.0321,2.0304,2.0287,2.0287,2.0472,2.1732,2.2224,2.2609,2.4471,2.6087,2.7357,2.7846,2.7788,2.7515,2.7414,2.7119,2.6875,2.7148,2.7876,2.8624,2.8855,3.0072,3.1166,3.1166,3.1751,3.2302,3.2427,3.2532,3.2594,3.2578,3.2746,3.2897,3.3058,3.3085,3.3123,3.3282,3.3309,3.3361,3.345,3.3565,3.3797,3.4201,3.4594,3.4286,3.3117,3.329,3.284,3.1543,3.3205,3.4947,3.6626,3.6728,3.6788,3.6788,3.6992,3.7068,3.7007,3.7007,3.7007,0.0,0.0,0.0,0.0,0.0,0.0,0.0,0.0,0.8039,0.0,0.0,0.0,0.0,0.0,0.0,0.0,0.0,0.0,0.0,0.0,0.0,0.0,0.0,0.0,0.0,0.0,0.0,0.0,1.1091,1.2322,1.2867,1.4417,1.5394,1.5646,1.6006,1.6194,1.6194,1.6194,1.6194,1.6194,1.6194,1.6194,1.624,1.7592,1.8191,1.8284,1.9702,2.0321,2.0371,2.0388,2.0371,2.0287,2.0083,2.0083,2.0168,2.0148,2.0373,2.0831,2.1793,2.2629,2.362,2.5635,2.6687,2.7235,2.7619,2.7509,2.721,2.6927,2.6666,2.6549,2.68,2.7728,2.8651,2.8935,3.0345,3.1637,3.1678,3.2222,3.2718,3.2746,3.2854,3.2893,3.2893,3.2897,3.2951,3.3085,3.3096,3.315,3.3282,3.3309,3.3372,3.3607,3.3797,3.4126,3.4594,3.5055,3.4947,3.4087,3.3922,3.3817,3.3687,3.4469,3.5491,3.6684,3.6768,3.6809,3.6809,3.6992,3.7145,3.7182,3.7182,3.7182,0.7387,0.0,0.0,0.0,0.0,0.0,0.0,0.0,0.0,0.0,0.0,0.0,0.0,0.0,0.0,0.0,0.0,0.0,0.0,0.0,0.0,0.0,0.0,0.0,0.0,0.0,0.0,0.0,0.0,1.1307,1.2081,1.3752,1.4859,1.5242,1.5908,1.6248,1.6248,1.6248,1.625,1.6236,1.6236,1.6207,1.624,1.7622,1.8253,1.8331,1.9736,2.0373,2.0405,2.0423,2.0339,2.0183,1.9909,1.9839,1.9904,1.9795,2.0179,2.0835,2.1674,2.3062,2.4724,2.6186,2.6771,2.6946,2.7111,2.7088,2.6941,2.6608,2.6492,2.651,2.6866,2.7966,2.9017,2.9403,3.0828,3.2117,3.2148,3.2554,3.2897,3.2951,3.3032,3.3096,3.315,3.3069,3.2996,3.2898,3.2867,3.2856,3.273,3.2898,3.3139,3.3447,3.3912,3.4423,3.497,3.5447,3.5487,3.4949,3.4456,3.4582,3.5402,3.5499,3.5943,3.6768,3.6829,3.6851,3.6869,3.7068,3.7222,3.7334,3.7334,3.7353,0.0,0.0,0.0,0.6735,0.0,0.0,0.0,0.0,0.8034,0.0,0.0,0.0,0.0,0.0,0.0,0.0,0.0,0.0,0.0,0.0,0.0,0.0,0.0,0.0,0.0,0.0,0.0,0.0,0.9156,1.0104,1.1363,1.2661,1.4,1.5349,1.604,1.6398,1.6398,1.6398,1.6355,1.6301,1.6301,1.626,1.6254,1.7713,1.8393,1.847,1.9869,2.0458,2.0405,2.046,2.0289,1.999,1.9856,1.9657,1.9395,1.9195,1.9508,2.0199,2.1481,2.3543,2.5647,2.5705,2.6181,2.6689,2.6575,2.6616,2.6708,2.6623,2.6677,2.6936,2.7517,2.8699,2.9924,3.0601,3.1835,3.2866,3.2866,3.2881,3.2924,3.3085,3.3096,3.3123,3.3282,3.3309,3.3072,3.2418,3.2339,3.2086,3.1365,3.1896,3.2476,3.2884,3.3868,3.4691,3.5245,3.5728,3.5758,3.5211,3.4572,3.4584,3.5446,3.5634,3.6099,3.697,3.6987,3.6989,3.6989,3.7201,3.7334,3.7411,3.7411,3.7466,0.0,0.0,0.7167,0.6951,0.0,0.0,0.0,0.0,0.0,0.0,0.0,0.0,0.0,0.0,0.0,0.0,0.0,0.0,0.0,0.0,0.0,0.0,0.0,0.0,0.0,0.0,0.0,0.0,0.8799,0.0,1.0688,1.2374,1.3735,1.4706,1.5819,1.6412,1.6412,1.6412,1.6398,1.6369,1.6328,1.6315,1.6377,1.7772,1.8423,1.8531,1.9918,2.0477,2.046,2.0392,2.0218,1.9955,1.9551,1.924,1.9007,1.8988,1.9632,2.0829,2.2948,2.4519,2.5643,2.6205,2.6521,2.6654,2.6457,2.6631,2.6891,2.6806,2.7053,2.7497,2.8183,2.93,3.0434,3.1058,3.2191,3.315,3.315,3.315,3.3176,3.3229,3.3229,3.3114,3.2692,3.2639,3.256,3.2323,3.2291,3.2038,3.1277,3.1823,3.2494,3.2975,3.4038,3.492,3.5441,3.5915,3.6113,3.5939,3.5879,3.5983,3.6284,3.6464,3.6705,3.6989,3.7007,3.7007,3.7007,3.7201,3.7372,3.754,3.7667,3.7775,0.7411,0.7334,0.0,0.6951,0.7227,0.0,0.7002,0.0,0.0,0.0,0.0,0.0,0.0,0.0,0.0,0.0,0.0,0.0,0.0,0.0,0.0,0.0,0.0,0.0,0.0,0.0,0.8643,0.815,0.8686,0.0,0.0,1.1929,1.3333,1.4056,1.5647,1.6463,1.6463,1.6463,1.645,1.6436,1.638,1.6382,1.6445,1.7846,1.8484,1.8608,2.0,2.0595,2.056,2.0407,2.0183,1.9887,1.9439,1.9087,1.8784,1.8683,1.9646,2.1324,2.3469,2.4767,2.5599,2.6156,2.6392,2.6392,2.619,2.6664,2.7258,2.7272,2.7908,2.8721,2.9348,3.0296,3.1197,3.1693,3.2576,3.3309,3.3309,3.3309,3.3309,3.3309,3.3309,3.3087,3.2418,3.2291,3.2117,3.1627,3.1548,3.1295,3.0535,3.1097,3.1746,3.2232,3.3292,3.4378,3.5375,3.5778,3.6108,3.6426,3.6643,3.6745,3.6745,3.6908,3.7007,3.7007,3.7007,3.7007,3.7007,3.7239,3.7429,3.7649,3.7863,3.802]}]]